<?xml version="1.0" encoding="UTF-8" standalone="no" ?>
<gpx xmlns="http://www.topografix.com/GPX/1/1" xmlns:xsi="http://www.w3.org/2001/XMLSchema-instance" xsi:schemaLocation="http://www.topografix.com/GPX/1/1 http://www.topografix.com/GPX/1/1/gpx.xsd" version="1.1" creator="VisuGPX - https://www.visugpx.com">
  <metadata>
    <name>grand galibier depuis plan lachat</name>
    <desc><![CDATA[superbe rando réalisé par un temps radieux d'automne, les couleurs du lac des cerces et du lac blanc, le panorama depuis le grand galibier]]></desc>
  </metadata>
  <trk>
    <name><![CDATA[Move_2018_10_25_07_48_56_randonnée on GPSies.com]]></name>
    <trkseg>
      <trkpt lat="45.08983" lon="6.43604">
        <ele>1973.1999</ele>
        <time>2010-01-01T00:00:00Z</time>
      </trkpt>
      <trkpt lat="45.08977" lon="6.43612">
        <ele>1974.8761</ele>
        <time>2010-01-01T00:00:03Z</time>
      </trkpt>
      <trkpt lat="45.08977" lon="6.4362">
        <ele>1974.2761</ele>
        <time>2010-01-01T00:00:05Z</time>
      </trkpt>
      <trkpt lat="45.08986" lon="6.43627">
        <ele>1974.5383</ele>
        <time>2010-01-01T00:00:09Z</time>
      </trkpt>
      <trkpt lat="45.08984" lon="6.4364">
        <ele>1976.8032</ele>
        <time>2010-01-01T00:00:13Z</time>
      </trkpt>
      <trkpt lat="45.08981" lon="6.43646">
        <ele>1979.0508</ele>
        <time>2010-01-01T00:00:15Z</time>
      </trkpt>
      <trkpt lat="45.08976" lon="6.43658">
        <ele>1979.9491</ele>
        <time>2010-01-01T00:00:19Z</time>
      </trkpt>
      <trkpt lat="45.08971" lon="6.43665">
        <ele>1979.0491</ele>
        <time>2010-01-01T00:00:22Z</time>
      </trkpt>
      <trkpt lat="45.08966" lon="6.43668">
        <ele>1979.9016</ele>
        <time>2010-01-01T00:00:24Z</time>
      </trkpt>
      <trkpt lat="45.08962" lon="6.43676">
        <ele>1981.2032</ele>
        <time>2010-01-01T00:00:26Z</time>
      </trkpt>
      <trkpt lat="45.08957" lon="6.43689">
        <ele>1984.8032</ele>
        <time>2010-01-01T00:00:31Z</time>
      </trkpt>
      <trkpt lat="45.08951" lon="6.43698">
        <ele>1987.2524</ele>
        <time>2010-01-01T00:00:34Z</time>
      </trkpt>
      <trkpt lat="45.08944" lon="6.43708">
        <ele>1989.6524</ele>
        <time>2010-01-01T00:00:38Z</time>
      </trkpt>
      <trkpt lat="45.08937" lon="6.43718">
        <ele>1992.0524</ele>
        <time>2010-01-01T00:00:42Z</time>
      </trkpt>
      <trkpt lat="45.0893" lon="6.43727">
        <ele>1994.3016</ele>
        <time>2010-01-01T00:00:46Z</time>
      </trkpt>
      <trkpt lat="45.08926" lon="6.43733">
        <ele>1995.3016</ele>
        <time>2010-01-01T00:00:48Z</time>
      </trkpt>
      <trkpt lat="45.0892" lon="6.43747">
        <ele>1997.1016</ele>
        <time>2010-01-01T00:00:53Z</time>
      </trkpt>
      <trkpt lat="45.08916" lon="6.43753">
        <ele>1998.1016</ele>
        <time>2010-01-01T00:00:55Z</time>
      </trkpt>
      <trkpt lat="45.08912" lon="6.4376">
        <ele>1999.1016</ele>
        <time>2010-01-01T00:00:58Z</time>
      </trkpt>
      <trkpt lat="45.08905" lon="6.43771">
        <ele>2000.4508</ele>
        <time>2010-01-01T00:01:02Z</time>
      </trkpt>
      <trkpt lat="45.08901" lon="6.43778">
        <ele>2000.9508</ele>
        <time>2010-01-01T00:01:04Z</time>
      </trkpt>
      <trkpt lat="45.08894" lon="6.43787">
        <ele>2001.7508</ele>
        <time>2010-01-01T00:01:08Z</time>
      </trkpt>
      <trkpt lat="45.08888" lon="6.43796">
        <ele>2003.9524</ele>
        <time>2010-01-01T00:01:12Z</time>
      </trkpt>
      <trkpt lat="45.08882" lon="6.43809">
        <ele>2005.4508</ele>
        <time>2010-01-01T00:01:16Z</time>
      </trkpt>
      <trkpt lat="45.08876" lon="6.43819">
        <ele>2006.5016</ele>
        <time>2010-01-01T00:01:20Z</time>
      </trkpt>
      <trkpt lat="45.0887" lon="6.4383">
        <ele>2008.1016</ele>
        <time>2010-01-01T00:01:24Z</time>
      </trkpt>
      <trkpt lat="45.08866" lon="6.43836">
        <ele>2009.1016</ele>
        <time>2010-01-01T00:01:26Z</time>
      </trkpt>
      <trkpt lat="45.08862" lon="6.43842">
        <ele>2010.1524</ele>
        <time>2010-01-01T00:01:29Z</time>
      </trkpt>
      <trkpt lat="45.08856" lon="6.43853">
        <ele>2012.5524</ele>
        <time>2010-01-01T00:01:33Z</time>
      </trkpt>
      <trkpt lat="45.08853" lon="6.4386">
        <ele>2013.3508</ele>
        <time>2010-01-01T00:01:35Z</time>
      </trkpt>
      <trkpt lat="45.08847" lon="6.43872">
        <ele>2014.3016</ele>
        <time>2010-01-01T00:01:39Z</time>
      </trkpt>
      <trkpt lat="45.08844" lon="6.43879">
        <ele>2015.3016</ele>
        <time>2010-01-01T00:01:41Z</time>
      </trkpt>
      <trkpt lat="45.08839" lon="6.43885">
        <ele>2016.4524</ele>
        <time>2010-01-01T00:01:44Z</time>
      </trkpt>
      <trkpt lat="45.08833" lon="6.43896">
        <ele>2018.8524</ele>
        <time>2010-01-01T00:01:48Z</time>
      </trkpt>
      <trkpt lat="45.08828" lon="6.43908">
        <ele>2019</ele>
        <time>2010-01-01T00:01:52Z</time>
      </trkpt>
      <trkpt lat="45.08821" lon="6.43919">
        <ele>2020.1016</ele>
        <time>2010-01-01T00:01:56Z</time>
      </trkpt>
      <trkpt lat="45.08818" lon="6.43926">
        <ele>2021.0508</ele>
        <time>2010-01-01T00:01:58Z</time>
      </trkpt>
      <trkpt lat="45.0881" lon="6.43939">
        <ele>2021.9508</ele>
        <time>2010-01-01T00:02:03Z</time>
      </trkpt>
      <trkpt lat="45.08807" lon="6.43948">
        <ele>2023.9524</ele>
        <time>2010-01-01T00:02:06Z</time>
      </trkpt>
      <trkpt lat="45.08803" lon="6.43959">
        <ele>2025.9016</ele>
        <time>2010-01-01T00:02:09Z</time>
      </trkpt>
      <trkpt lat="45.08797" lon="6.4397">
        <ele>2027.5016</ele>
        <time>2010-01-01T00:02:13Z</time>
      </trkpt>
      <trkpt lat="45.08793" lon="6.43979">
        <ele>2028.7016</ele>
        <time>2010-01-01T00:02:16Z</time>
      </trkpt>
      <trkpt lat="45.08789" lon="6.43987">
        <ele>2029.9016</ele>
        <time>2010-01-01T00:02:19Z</time>
      </trkpt>
      <trkpt lat="45.08785" lon="6.43997">
        <ele>2031.4524</ele>
        <time>2010-01-01T00:02:22Z</time>
      </trkpt>
      <trkpt lat="45.08782" lon="6.44007">
        <ele>2033.8524</ele>
        <time>2010-01-01T00:02:25Z</time>
      </trkpt>
      <trkpt lat="45.08778" lon="6.44018">
        <ele>2035.3016</ele>
        <time>2010-01-01T00:02:29Z</time>
      </trkpt>
      <trkpt lat="45.08775" lon="6.44027">
        <ele>2036.5016</ele>
        <time>2010-01-01T00:02:32Z</time>
      </trkpt>
      <trkpt lat="45.08772" lon="6.44035">
        <ele>2037.5016</ele>
        <time>2010-01-01T00:02:34Z</time>
      </trkpt>
      <trkpt lat="45.08767" lon="6.44045">
        <ele>2038.4508</ele>
        <time>2010-01-01T00:02:38Z</time>
      </trkpt>
      <trkpt lat="45.08761" lon="6.44063">
        <ele>2040.6524</ele>
        <time>2010-01-01T00:02:43Z</time>
      </trkpt>
      <trkpt lat="45.08757" lon="6.44073">
        <ele>2042</ele>
        <time>2010-01-01T00:02:46Z</time>
      </trkpt>
      <trkpt lat="45.08753" lon="6.44081">
        <ele>2042</ele>
        <time>2010-01-01T00:02:49Z</time>
      </trkpt>
      <trkpt lat="45.08748" lon="6.44091">
        <ele>2043.6524</ele>
        <time>2010-01-01T00:02:53Z</time>
      </trkpt>
      <trkpt lat="45.08743" lon="6.44102">
        <ele>2045.2508</ele>
        <time>2010-01-01T00:02:56Z</time>
      </trkpt>
      <trkpt lat="45.08738" lon="6.44111">
        <ele>2045.8508</ele>
        <time>2010-01-01T00:03:00Z</time>
      </trkpt>
      <trkpt lat="45.08733" lon="6.44119">
        <ele>2046.9016</ele>
        <time>2010-01-01T00:03:03Z</time>
      </trkpt>
      <trkpt lat="45.08729" lon="6.44128">
        <ele>2048.0508</ele>
        <time>2010-01-01T00:03:06Z</time>
      </trkpt>
      <trkpt lat="45.08723" lon="6.44138">
        <ele>2048.7508</ele>
        <time>2010-01-01T00:03:09Z</time>
      </trkpt>
      <trkpt lat="45.08717" lon="6.44147">
        <ele>2049.4508</ele>
        <time>2010-01-01T00:03:13Z</time>
      </trkpt>
      <trkpt lat="45.08712" lon="6.44156">
        <ele>2050.0508</ele>
        <time>2010-01-01T00:03:16Z</time>
      </trkpt>
      <trkpt lat="45.08708" lon="6.44165">
        <ele>2050.6508</ele>
        <time>2010-01-01T00:03:19Z</time>
      </trkpt>
      <trkpt lat="45.08703" lon="6.44174">
        <ele>2051.2508</ele>
        <time>2010-01-01T00:03:22Z</time>
      </trkpt>
      <trkpt lat="45.08698" lon="6.44183">
        <ele>2051.8508</ele>
        <time>2010-01-01T00:03:26Z</time>
      </trkpt>
      <trkpt lat="45.08691" lon="6.44194">
        <ele>2052</ele>
        <time>2010-01-01T00:03:30Z</time>
      </trkpt>
      <trkpt lat="45.08689" lon="6.44205">
        <ele>2052.2508</ele>
        <time>2010-01-01T00:03:33Z</time>
      </trkpt>
      <trkpt lat="45.08686" lon="6.44216">
        <ele>2052.8508</ele>
        <time>2010-01-01T00:03:36Z</time>
      </trkpt>
      <trkpt lat="45.08684" lon="6.44225">
        <ele>2053.7016</ele>
        <time>2010-01-01T00:03:39Z</time>
      </trkpt>
      <trkpt lat="45.08681" lon="6.44236">
        <ele>2054.9016</ele>
        <time>2010-01-01T00:03:42Z</time>
      </trkpt>
      <trkpt lat="45.08677" lon="6.44246">
        <ele>2055</ele>
        <time>2010-01-01T00:03:46Z</time>
      </trkpt>
      <trkpt lat="45.08673" lon="6.44256">
        <ele>2055.3016</ele>
        <time>2010-01-01T00:03:49Z</time>
      </trkpt>
      <trkpt lat="45.0867" lon="6.44266">
        <ele>2056.5016</ele>
        <time>2010-01-01T00:03:52Z</time>
      </trkpt>
      <trkpt lat="45.08669" lon="6.44277">
        <ele>2057.3508</ele>
        <time>2010-01-01T00:03:55Z</time>
      </trkpt>
      <trkpt lat="45.08668" lon="6.44287">
        <ele>2057.9508</ele>
        <time>2010-01-01T00:03:58Z</time>
      </trkpt>
      <trkpt lat="45.08667" lon="6.44298">
        <ele>2058.5508</ele>
        <time>2010-01-01T00:04:01Z</time>
      </trkpt>
      <trkpt lat="45.08665" lon="6.44308">
        <ele>2059.3016</ele>
        <time>2010-01-01T00:04:04Z</time>
      </trkpt>
      <trkpt lat="45.08664" lon="6.44317">
        <ele>2060.3016</ele>
        <time>2010-01-01T00:04:06Z</time>
      </trkpt>
      <trkpt lat="45.08662" lon="6.44327">
        <ele>2061</ele>
        <time>2010-01-01T00:04:09Z</time>
      </trkpt>
      <trkpt lat="45.08661" lon="6.44336">
        <ele>2061</ele>
        <time>2010-01-01T00:04:12Z</time>
      </trkpt>
      <trkpt lat="45.08658" lon="6.44347">
        <ele>2061.3508</ele>
        <time>2010-01-01T00:04:15Z</time>
      </trkpt>
      <trkpt lat="45.08656" lon="6.44357">
        <ele>2061.9508</ele>
        <time>2010-01-01T00:04:18Z</time>
      </trkpt>
      <trkpt lat="45.08655" lon="6.44366">
        <ele>2062</ele>
        <time>2010-01-01T00:04:21Z</time>
      </trkpt>
      <trkpt lat="45.08652" lon="6.44378">
        <ele>2062.1508</ele>
        <time>2010-01-01T00:04:24Z</time>
      </trkpt>
      <trkpt lat="45.0865" lon="6.44388">
        <ele>2062.7508</ele>
        <time>2010-01-01T00:04:27Z</time>
      </trkpt>
      <trkpt lat="45.0865" lon="6.44397">
        <ele>2063.2508</ele>
        <time>2010-01-01T00:04:30Z</time>
      </trkpt>
      <trkpt lat="45.0865" lon="6.44409">
        <ele>2063.8508</ele>
        <time>2010-01-01T00:04:33Z</time>
      </trkpt>
      <trkpt lat="45.08652" lon="6.44425">
        <ele>2061.7475</ele>
        <time>2010-01-01T00:04:38Z</time>
      </trkpt>
      <trkpt lat="45.08654" lon="6.44437">
        <ele>2061</ele>
        <time>2010-01-01T00:04:41Z</time>
      </trkpt>
      <trkpt lat="45.08656" lon="6.44447">
        <ele>2061</ele>
        <time>2010-01-01T00:04:44Z</time>
      </trkpt>
      <trkpt lat="45.08656" lon="6.44459">
        <ele>2061</ele>
        <time>2010-01-01T00:04:48Z</time>
      </trkpt>
      <trkpt lat="45.08654" lon="6.44471">
        <ele>2061.0508</ele>
        <time>2010-01-01T00:04:51Z</time>
      </trkpt>
      <trkpt lat="45.0865" lon="6.44481">
        <ele>2061.6508</ele>
        <time>2010-01-01T00:04:54Z</time>
      </trkpt>
      <trkpt lat="45.08646" lon="6.44491">
        <ele>2062.5016</ele>
        <time>2010-01-01T00:04:58Z</time>
      </trkpt>
      <trkpt lat="45.08641" lon="6.44499">
        <ele>2063.7016</ele>
        <time>2010-01-01T00:05:01Z</time>
      </trkpt>
      <trkpt lat="45.08634" lon="6.44508">
        <ele>2064.9016</ele>
        <time>2010-01-01T00:05:04Z</time>
      </trkpt>
      <trkpt lat="45.08629" lon="6.44515">
        <ele>2066.0508</ele>
        <time>2010-01-01T00:05:07Z</time>
      </trkpt>
      <trkpt lat="45.08623" lon="6.4452">
        <ele>2066.5508</ele>
        <time>2010-01-01T00:05:10Z</time>
      </trkpt>
      <trkpt lat="45.08617" lon="6.44525">
        <ele>2067.1016</ele>
        <time>2010-01-01T00:05:13Z</time>
      </trkpt>
      <trkpt lat="45.08612" lon="6.44529">
        <ele>2068.1016</ele>
        <time>2010-01-01T00:05:15Z</time>
      </trkpt>
      <trkpt lat="45.08601" lon="6.44532">
        <ele>2069.4508</ele>
        <time>2010-01-01T00:05:19Z</time>
      </trkpt>
      <trkpt lat="45.08596" lon="6.44538">
        <ele>2070</ele>
        <time>2010-01-01T00:05:22Z</time>
      </trkpt>
      <trkpt lat="45.08592" lon="6.44545">
        <ele>2070</ele>
        <time>2010-01-01T00:05:25Z</time>
      </trkpt>
      <trkpt lat="45.08587" lon="6.44552">
        <ele>2070.1254</ele>
        <time>2010-01-01T00:05:28Z</time>
      </trkpt>
      <trkpt lat="45.08579" lon="6.44571">
        <ele>2071.3504</ele>
        <time>2010-01-01T00:05:34Z</time>
      </trkpt>
      <trkpt lat="45.08571" lon="6.44583">
        <ele>2072.251</ele>
        <time>2010-01-01T00:05:38Z</time>
      </trkpt>
      <trkpt lat="45.08563" lon="6.44598">
        <ele>2073.2508</ele>
        <time>2010-01-01T00:05:44Z</time>
      </trkpt>
      <trkpt lat="45.08556" lon="6.44612">
        <ele>2073.8991</ele>
        <time>2010-01-01T00:05:49Z</time>
      </trkpt>
      <trkpt lat="45.08552" lon="6.44631">
        <ele>2072.5014</ele>
        <time>2010-01-01T00:05:54Z</time>
      </trkpt>
      <trkpt lat="45.08543" lon="6.44647">
        <ele>2074</ele>
        <time>2010-01-01T00:06:00Z</time>
      </trkpt>
      <trkpt lat="45.0854" lon="6.44662">
        <ele>2076.2521</ele>
        <time>2010-01-01T00:06:04Z</time>
      </trkpt>
      <trkpt lat="45.08536" lon="6.44675">
        <ele>2077</ele>
        <time>2010-01-01T00:06:08Z</time>
      </trkpt>
      <trkpt lat="45.08532" lon="6.4469">
        <ele>2077.7507</ele>
        <time>2010-01-01T00:06:13Z</time>
      </trkpt>
      <trkpt lat="45.0853" lon="6.44704">
        <ele>2077.3493</ele>
        <time>2010-01-01T00:06:17Z</time>
      </trkpt>
      <trkpt lat="45.08525" lon="6.44723">
        <ele>2075.0983</ele>
        <time>2010-01-01T00:06:23Z</time>
      </trkpt>
      <trkpt lat="45.08518" lon="6.44735">
        <ele>2074.149</ele>
        <time>2010-01-01T00:06:27Z</time>
      </trkpt>
      <trkpt lat="45.08515" lon="6.44756">
        <ele>2074.7507</ele>
        <time>2010-01-01T00:06:33Z</time>
      </trkpt>
      <trkpt lat="45.08508" lon="6.44772">
        <ele>2075</ele>
        <time>2010-01-01T00:06:39Z</time>
      </trkpt>
      <trkpt lat="45.08504" lon="6.44788">
        <ele>2076.0524</ele>
        <time>2010-01-01T00:06:43Z</time>
      </trkpt>
      <trkpt lat="45.08506" lon="6.4481">
        <ele>2078.753</ele>
        <time>2010-01-01T00:06:50Z</time>
      </trkpt>
      <trkpt lat="45.08508" lon="6.44831">
        <ele>2081</ele>
        <time>2010-01-01T00:06:56Z</time>
      </trkpt>
      <trkpt lat="45.08507" lon="6.44845">
        <ele>2081</ele>
        <time>2010-01-01T00:07:00Z</time>
      </trkpt>
      <trkpt lat="45.08509" lon="6.44862">
        <ele>2081</ele>
        <time>2010-01-01T00:07:04Z</time>
      </trkpt>
      <trkpt lat="45.08507" lon="6.4488">
        <ele>2083.2028</ele>
        <time>2010-01-01T00:07:10Z</time>
      </trkpt>
      <trkpt lat="45.08503" lon="6.449">
        <ele>2085.7016</ele>
        <time>2010-01-01T00:07:15Z</time>
      </trkpt>
      <trkpt lat="45.08499" lon="6.44916">
        <ele>2088.4064</ele>
        <time>2010-01-01T00:07:20Z</time>
      </trkpt>
      <trkpt lat="45.08495" lon="6.44929">
        <ele>2091.1513</ele>
        <time>2010-01-01T00:07:24Z</time>
      </trkpt>
      <trkpt lat="45.08484" lon="6.44939">
        <ele>2091.951</ele>
        <time>2010-01-01T00:07:29Z</time>
      </trkpt>
      <trkpt lat="45.0848" lon="6.44954">
        <ele>2095.6012</ele>
        <time>2010-01-01T00:07:34Z</time>
      </trkpt>
      <trkpt lat="45.08469" lon="6.44972">
        <ele>2099</ele>
        <time>2010-01-01T00:07:41Z</time>
      </trkpt>
      <trkpt lat="45.08463" lon="6.44994">
        <ele>2099</ele>
        <time>2010-01-01T00:07:47Z</time>
      </trkpt>
      <trkpt lat="45.08464" lon="6.45012">
        <ele>2100.1018</ele>
        <time>2010-01-01T00:07:52Z</time>
      </trkpt>
      <trkpt lat="45.08455" lon="6.45032">
        <ele>2100.5497</ele>
        <time>2010-01-01T00:07:59Z</time>
      </trkpt>
      <trkpt lat="45.08446" lon="6.45039">
        <ele>2100.4521</ele>
        <time>2010-01-01T00:08:03Z</time>
      </trkpt>
      <trkpt lat="45.08441" lon="6.45055">
        <ele>2105.5022</ele>
        <time>2010-01-01T00:08:08Z</time>
      </trkpt>
      <trkpt lat="45.08436" lon="6.45071">
        <ele>2109.8524</ele>
        <time>2010-01-01T00:08:13Z</time>
      </trkpt>
      <trkpt lat="45.08431" lon="6.45087">
        <ele>2106.9984</ele>
        <time>2010-01-01T00:08:18Z</time>
      </trkpt>
      <trkpt lat="45.08426" lon="6.45101">
        <ele>2104.8977</ele>
        <time>2010-01-01T00:08:22Z</time>
      </trkpt>
      <trkpt lat="45.08423" lon="6.45117">
        <ele>2104.3502</ele>
        <time>2010-01-01T00:08:27Z</time>
      </trkpt>
      <trkpt lat="45.08418" lon="6.45131">
        <ele>2105</ele>
        <time>2010-01-01T00:08:32Z</time>
      </trkpt>
      <trkpt lat="45.08414" lon="6.45149">
        <ele>2107.8048</ele>
        <time>2010-01-01T00:08:37Z</time>
      </trkpt>
      <trkpt lat="45.08412" lon="6.45168">
        <ele>2114.1014</ele>
        <time>2010-01-01T00:08:42Z</time>
      </trkpt>
      <trkpt lat="45.08415" lon="6.45182">
        <ele>2116.1507</ele>
        <time>2010-01-01T00:08:46Z</time>
      </trkpt>
      <trkpt lat="45.08411" lon="6.45198">
        <ele>2117</ele>
        <time>2010-01-01T00:08:51Z</time>
      </trkpt>
      <trkpt lat="45.08406" lon="6.45212">
        <ele>2117.1508</ele>
        <time>2010-01-01T00:08:56Z</time>
      </trkpt>
      <trkpt lat="45.08404" lon="6.45226">
        <ele>2117.9507</ele>
        <time>2010-01-01T00:09:00Z</time>
      </trkpt>
      <trkpt lat="45.08397" lon="6.45236">
        <ele>2119.5024</ele>
        <time>2010-01-01T00:09:04Z</time>
      </trkpt>
      <trkpt lat="45.08387" lon="6.4524">
        <ele>2122.6012</ele>
        <time>2010-01-01T00:09:08Z</time>
      </trkpt>
      <trkpt lat="45.0838" lon="6.45253">
        <ele>2129.9528</ele>
        <time>2010-01-01T00:09:12Z</time>
      </trkpt>
      <trkpt lat="45.08374" lon="6.45266">
        <ele>2134.4502</ele>
        <time>2010-01-01T00:09:17Z</time>
      </trkpt>
      <trkpt lat="45.08364" lon="6.45273">
        <ele>2135</ele>
        <time>2010-01-01T00:09:21Z</time>
      </trkpt>
      <trkpt lat="45.08354" lon="6.45289">
        <ele>2135</ele>
        <time>2010-01-01T00:09:27Z</time>
      </trkpt>
      <trkpt lat="45.08352" lon="6.45305">
        <ele>2136.3518</ele>
        <time>2010-01-01T00:09:32Z</time>
      </trkpt>
      <trkpt lat="45.08347" lon="6.45317">
        <ele>2143.353</ele>
        <time>2010-01-01T00:09:36Z</time>
      </trkpt>
      <trkpt lat="45.0834" lon="6.45304">
        <ele>2146</ele>
        <time>2010-01-01T00:09:40Z</time>
      </trkpt>
      <trkpt lat="45.08331" lon="6.45311">
        <ele>2152.004</ele>
        <time>2010-01-01T00:09:45Z</time>
      </trkpt>
      <trkpt lat="45.08342" lon="6.45318">
        <ele>2150.1715</ele>
        <time>2010-01-01T00:09:49Z</time>
      </trkpt>
      <trkpt lat="45.08342" lon="6.45333">
        <ele>2150.7952</ele>
        <time>2010-01-01T00:09:54Z</time>
      </trkpt>
      <trkpt lat="45.08341" lon="6.4535">
        <ele>2147.5955</ele>
        <time>2010-01-01T00:09:58Z</time>
      </trkpt>
      <trkpt lat="45.08331" lon="6.45355">
        <ele>2141.1454</ele>
        <time>2010-01-01T00:10:03Z</time>
      </trkpt>
      <trkpt lat="45.0832" lon="6.45349">
        <ele>2149.0617</ele>
        <time>2010-01-01T00:10:07Z</time>
      </trkpt>
      <trkpt lat="45.08312" lon="6.45361">
        <ele>2163.9006</ele>
        <time>2010-01-01T00:10:12Z</time>
      </trkpt>
      <trkpt lat="45.08302" lon="6.45364">
        <ele>2168.7048</ele>
        <time>2010-01-01T00:10:16Z</time>
      </trkpt>
      <trkpt lat="45.08299" lon="6.45377">
        <ele>2173.4475</ele>
        <time>2010-01-01T00:10:20Z</time>
      </trkpt>
      <trkpt lat="45.08294" lon="6.45394">
        <ele>2166</ele>
        <time>2010-01-01T00:10:26Z</time>
      </trkpt>
      <trkpt lat="45.08286" lon="6.45404">
        <ele>2164.4969</ele>
        <time>2010-01-01T00:10:30Z</time>
      </trkpt>
      <trkpt lat="45.08282" lon="6.45418">
        <ele>2158.6457</ele>
        <time>2010-01-01T00:10:34Z</time>
      </trkpt>
      <trkpt lat="45.08275" lon="6.45435">
        <ele>2158.3022</ele>
        <time>2010-01-01T00:10:39Z</time>
      </trkpt>
      <trkpt lat="45.08273" lon="6.45452">
        <ele>2168.002</ele>
        <time>2010-01-01T00:10:44Z</time>
      </trkpt>
      <trkpt lat="45.08261" lon="6.45463">
        <ele>2171.9006</ele>
        <time>2010-01-01T00:10:50Z</time>
      </trkpt>
      <trkpt lat="45.08258" lon="6.45477">
        <ele>2173</ele>
        <time>2010-01-01T00:10:54Z</time>
      </trkpt>
      <trkpt lat="45.08253" lon="6.45493">
        <ele>2176.4008</ele>
        <time>2010-01-01T00:10:59Z</time>
      </trkpt>
      <trkpt lat="45.0824" lon="6.45501">
        <ele>2174.8993</ele>
        <time>2010-01-01T00:11:05Z</time>
      </trkpt>
      <trkpt lat="45.08233" lon="6.45519">
        <ele>2172.7494</ele>
        <time>2010-01-01T00:11:11Z</time>
      </trkpt>
      <trkpt lat="45.08227" lon="6.45532">
        <ele>2173.8044</ele>
        <time>2010-01-01T00:11:15Z</time>
      </trkpt>
      <trkpt lat="45.08223" lon="6.45545">
        <ele>2177.2016</ele>
        <time>2010-01-01T00:11:19Z</time>
      </trkpt>
      <trkpt lat="45.08221" lon="6.45564">
        <ele>2182.9527</ele>
        <time>2010-01-01T00:11:24Z</time>
      </trkpt>
      <trkpt lat="45.08218" lon="6.45577">
        <ele>2182.6979</ele>
        <time>2010-01-01T00:11:28Z</time>
      </trkpt>
      <trkpt lat="45.08228" lon="6.45578">
        <ele>2182</ele>
        <time>2010-01-01T00:11:33Z</time>
      </trkpt>
      <trkpt lat="45.08239" lon="6.4558">
        <ele>2182.7506</ele>
        <time>2010-01-01T00:11:37Z</time>
      </trkpt>
      <trkpt lat="45.0824" lon="6.45596">
        <ele>2198.7024</ele>
        <time>2010-01-01T00:11:42Z</time>
      </trkpt>
      <trkpt lat="45.08232" lon="6.45607">
        <ele>2204.6004</ele>
        <time>2010-01-01T00:11:46Z</time>
      </trkpt>
      <trkpt lat="45.08228" lon="6.45621">
        <ele>2206.7497</ele>
        <time>2010-01-01T00:11:50Z</time>
      </trkpt>
      <trkpt lat="45.08221" lon="6.45634">
        <ele>2206</ele>
        <time>2010-01-01T00:11:55Z</time>
      </trkpt>
      <trkpt lat="45.08214" lon="6.45645">
        <ele>2215.103</ele>
        <time>2010-01-01T00:11:59Z</time>
      </trkpt>
      <trkpt lat="45.08208" lon="6.45656">
        <ele>2219.2008</ele>
        <time>2010-01-01T00:12:03Z</time>
      </trkpt>
      <trkpt lat="45.082" lon="6.45668">
        <ele>2223.7509</ele>
        <time>2010-01-01T00:12:08Z</time>
      </trkpt>
      <trkpt lat="45.08198" lon="6.45685">
        <ele>2224.649</ele>
        <time>2010-01-01T00:12:13Z</time>
      </trkpt>
      <trkpt lat="45.08192" lon="6.45699">
        <ele>2224.3018</ele>
        <time>2010-01-01T00:12:17Z</time>
      </trkpt>
      <trkpt lat="45.08192" lon="6.45715">
        <ele>2237.6997</ele>
        <time>2010-01-01T00:12:22Z</time>
      </trkpt>
      <trkpt lat="45.0818" lon="6.45717">
        <ele>2234.4983</ele>
        <time>2010-01-01T00:12:27Z</time>
      </trkpt>
      <trkpt lat="45.08173" lon="6.45726">
        <ele>2233.1527</ele>
        <time>2010-01-01T00:12:31Z</time>
      </trkpt>
      <trkpt lat="45.08163" lon="6.45739">
        <ele>2237.0008</ele>
        <time>2010-01-01T00:12:36Z</time>
      </trkpt>
      <trkpt lat="45.08152" lon="6.45753">
        <ele>2239.5497</ele>
        <time>2010-01-01T00:12:42Z</time>
      </trkpt>
      <trkpt lat="45.08139" lon="6.45763">
        <ele>2238.2475</ele>
        <time>2010-01-01T00:12:48Z</time>
      </trkpt>
      <trkpt lat="45.08127" lon="6.45777">
        <ele>2235.9498</ele>
        <time>2010-01-01T00:12:54Z</time>
      </trkpt>
      <trkpt lat="45.08116" lon="6.45785">
        <ele>2234.5489</ele>
        <time>2010-01-01T00:12:59Z</time>
      </trkpt>
      <trkpt lat="45.08108" lon="6.45775">
        <ele>2236</ele>
        <time>2010-01-01T00:13:03Z</time>
      </trkpt>
      <trkpt lat="45.0811" lon="6.4579">
        <ele>2236.4508</ele>
        <time>2010-01-01T00:13:07Z</time>
      </trkpt>
      <trkpt lat="45.08105" lon="6.45804">
        <ele>2236.7488</ele>
        <time>2010-01-01T00:13:12Z</time>
      </trkpt>
      <trkpt lat="45.08101" lon="6.45817">
        <ele>2236.0507</ele>
        <time>2010-01-01T00:13:16Z</time>
      </trkpt>
      <trkpt lat="45.0809" lon="6.45821">
        <ele>2237.6499</ele>
        <time>2010-01-01T00:13:20Z</time>
      </trkpt>
      <trkpt lat="45.08082" lon="6.45828">
        <ele>2237.1491</ele>
        <time>2010-01-01T00:13:24Z</time>
      </trkpt>
      <trkpt lat="45.08074" lon="6.4584">
        <ele>2239.9004</ele>
        <time>2010-01-01T00:13:29Z</time>
      </trkpt>
      <trkpt lat="45.08068" lon="6.45853">
        <ele>2242.9536</ele>
        <time>2010-01-01T00:13:33Z</time>
      </trkpt>
      <trkpt lat="45.08058" lon="6.45865">
        <ele>2247.4012</ele>
        <time>2010-01-01T00:13:39Z</time>
      </trkpt>
      <trkpt lat="45.0805" lon="6.45882">
        <ele>2247.846</ele>
        <time>2010-01-01T00:13:44Z</time>
      </trkpt>
      <trkpt lat="45.08044" lon="6.45898">
        <ele>2245.4499</ele>
        <time>2010-01-01T00:13:49Z</time>
      </trkpt>
      <trkpt lat="45.08041" lon="6.45914">
        <ele>2243.6993</ele>
        <time>2010-01-01T00:13:54Z</time>
      </trkpt>
      <trkpt lat="45.0803" lon="6.45918">
        <ele>2243</ele>
        <time>2010-01-01T00:13:59Z</time>
      </trkpt>
      <trkpt lat="45.08019" lon="6.45926">
        <ele>2243.7533</ele>
        <time>2010-01-01T00:14:04Z</time>
      </trkpt>
      <trkpt lat="45.08008" lon="6.45927">
        <ele>2247.3524</ele>
        <time>2010-01-01T00:14:08Z</time>
      </trkpt>
      <trkpt lat="45.07997" lon="6.45937">
        <ele>2250.3008</ele>
        <time>2010-01-01T00:14:13Z</time>
      </trkpt>
      <trkpt lat="45.07991" lon="6.45951">
        <ele>2253.5494</ele>
        <time>2010-01-01T00:14:18Z</time>
      </trkpt>
      <trkpt lat="45.07983" lon="6.45962">
        <ele>2254</ele>
        <time>2010-01-01T00:14:22Z</time>
      </trkpt>
      <trkpt lat="45.07976" lon="6.45971">
        <ele>2252.2983</ele>
        <time>2010-01-01T00:14:26Z</time>
      </trkpt>
      <trkpt lat="45.07967" lon="6.45984">
        <ele>2250.1515</ele>
        <time>2010-01-01T00:14:31Z</time>
      </trkpt>
      <trkpt lat="45.07956" lon="6.45988">
        <ele>2254</ele>
        <time>2010-01-01T00:14:35Z</time>
      </trkpt>
      <trkpt lat="45.07943" lon="6.45996">
        <ele>2255.2495</ele>
        <time>2010-01-01T00:14:41Z</time>
      </trkpt>
      <trkpt lat="45.07929" lon="6.46005">
        <ele>2259.3008</ele>
        <time>2010-01-01T00:14:47Z</time>
      </trkpt>
      <trkpt lat="45.07916" lon="6.46002">
        <ele>2260.9016</ele>
        <time>2010-01-01T00:14:53Z</time>
      </trkpt>
      <trkpt lat="45.07905" lon="6.46011">
        <ele>2259.1509</ele>
        <time>2010-01-01T00:14:58Z</time>
      </trkpt>
      <trkpt lat="45.07896" lon="6.46025">
        <ele>2259.9506</ele>
        <time>2010-01-01T00:15:03Z</time>
      </trkpt>
      <trkpt lat="45.07888" lon="6.46039">
        <ele>2261.7536</ele>
        <time>2010-01-01T00:15:08Z</time>
      </trkpt>
      <trkpt lat="45.07878" lon="6.46046">
        <ele>2264.2036</ele>
        <time>2010-01-01T00:15:12Z</time>
      </trkpt>
      <trkpt lat="45.07869" lon="6.46051">
        <ele>2267.002</ele>
        <time>2010-01-01T00:15:17Z</time>
      </trkpt>
      <trkpt lat="45.07855" lon="6.46054">
        <ele>2268.5509</ele>
        <time>2010-01-01T00:15:22Z</time>
      </trkpt>
      <trkpt lat="45.07842" lon="6.4606">
        <ele>2269.7014</ele>
        <time>2010-01-01T00:15:27Z</time>
      </trkpt>
      <trkpt lat="45.07829" lon="6.46063">
        <ele>2271</ele>
        <time>2010-01-01T00:15:33Z</time>
      </trkpt>
      <trkpt lat="45.07821" lon="6.46081">
        <ele>2271</ele>
        <time>2010-01-01T00:15:39Z</time>
      </trkpt>
      <trkpt lat="45.07813" lon="6.46092">
        <ele>2271</ele>
        <time>2010-01-01T00:15:43Z</time>
      </trkpt>
      <trkpt lat="45.07803" lon="6.46099">
        <ele>2271.55</ele>
        <time>2010-01-01T00:15:48Z</time>
      </trkpt>
      <trkpt lat="45.0779" lon="6.46104">
        <ele>2267.7459</ele>
        <time>2010-01-01T00:15:53Z</time>
      </trkpt>
      <trkpt lat="45.07777" lon="6.46106">
        <ele>2268.5022</ele>
        <time>2010-01-01T00:15:58Z</time>
      </trkpt>
      <trkpt lat="45.07762" lon="6.46109">
        <ele>2271.853</ele>
        <time>2010-01-01T00:16:05Z</time>
      </trkpt>
      <trkpt lat="45.07746" lon="6.46112">
        <ele>2276.2032</ele>
        <time>2010-01-01T00:16:11Z</time>
      </trkpt>
      <trkpt lat="45.07737" lon="6.46117">
        <ele>2279.4016</ele>
        <time>2010-01-01T00:16:15Z</time>
      </trkpt>
      <trkpt lat="45.07727" lon="6.46122">
        <ele>2281.3004</ele>
        <time>2010-01-01T00:16:19Z</time>
      </trkpt>
      <trkpt lat="45.07718" lon="6.46127">
        <ele>2280.3457</ele>
        <time>2010-01-01T00:16:23Z</time>
      </trkpt>
      <trkpt lat="45.07709" lon="6.46138">
        <ele>2281.0502</ele>
        <time>2010-01-01T00:16:28Z</time>
      </trkpt>
      <trkpt lat="45.077" lon="6.46148">
        <ele>2281.9507</ele>
        <time>2010-01-01T00:16:32Z</time>
      </trkpt>
      <trkpt lat="45.07686" lon="6.46163">
        <ele>2278.3971</ele>
        <time>2010-01-01T00:16:39Z</time>
      </trkpt>
      <trkpt lat="45.07676" lon="6.4617">
        <ele>2279.2565</ele>
        <time>2010-01-01T00:16:44Z</time>
      </trkpt>
      <trkpt lat="45.07662" lon="6.4617">
        <ele>2282.5018</ele>
        <time>2010-01-01T00:16:49Z</time>
      </trkpt>
      <trkpt lat="45.07654" lon="6.46189">
        <ele>2284.4499</ele>
        <time>2010-01-01T00:16:56Z</time>
      </trkpt>
      <trkpt lat="45.07649" lon="6.46207">
        <ele>2285.7034</ele>
        <time>2010-01-01T00:17:01Z</time>
      </trkpt>
      <trkpt lat="45.07637" lon="6.46213">
        <ele>2288.653</ele>
        <time>2010-01-01T00:17:06Z</time>
      </trkpt>
      <trkpt lat="45.07627" lon="6.46216">
        <ele>2289.6489</ele>
        <time>2010-01-01T00:17:11Z</time>
      </trkpt>
      <trkpt lat="45.07615" lon="6.4623">
        <ele>2289.4502</ele>
        <time>2010-01-01T00:17:17Z</time>
      </trkpt>
      <trkpt lat="45.07604" lon="6.46238">
        <ele>2290</ele>
        <time>2010-01-01T00:17:22Z</time>
      </trkpt>
      <trkpt lat="45.07598" lon="6.46251">
        <ele>2291.1016</ele>
        <time>2010-01-01T00:17:26Z</time>
      </trkpt>
      <trkpt lat="45.07589" lon="6.46263">
        <ele>2292</ele>
        <time>2010-01-01T00:17:31Z</time>
      </trkpt>
      <trkpt lat="45.07576" lon="6.46264">
        <ele>2295.8542</ele>
        <time>2010-01-01T00:17:36Z</time>
      </trkpt>
      <trkpt lat="45.07567" lon="6.46271">
        <ele>2299</ele>
        <time>2010-01-01T00:17:40Z</time>
      </trkpt>
      <trkpt lat="45.07559" lon="6.46285">
        <ele>2299.6507</ele>
        <time>2010-01-01T00:17:45Z</time>
      </trkpt>
      <trkpt lat="45.07551" lon="6.46298">
        <ele>2300.8506</ele>
        <time>2010-01-01T00:17:50Z</time>
      </trkpt>
      <trkpt lat="45.07542" lon="6.4631">
        <ele>2300.3492</ele>
        <time>2010-01-01T00:17:55Z</time>
      </trkpt>
      <trkpt lat="45.07532" lon="6.46323">
        <ele>2301.7018</ele>
        <time>2010-01-01T00:18:01Z</time>
      </trkpt>
      <trkpt lat="45.07527" lon="6.46341">
        <ele>2299.2552</ele>
        <time>2010-01-01T00:18:06Z</time>
      </trkpt>
      <trkpt lat="45.07521" lon="6.46353">
        <ele>2306.6006</ele>
        <time>2010-01-01T00:18:10Z</time>
      </trkpt>
      <trkpt lat="45.07516" lon="6.46367">
        <ele>2311.4979</ele>
        <time>2010-01-01T00:18:15Z</time>
      </trkpt>
      <trkpt lat="45.07508" lon="6.46384">
        <ele>2310.9008</ele>
        <time>2010-01-01T00:18:20Z</time>
      </trkpt>
      <trkpt lat="45.07506" lon="6.46397">
        <ele>2310.6989</ele>
        <time>2010-01-01T00:18:24Z</time>
      </trkpt>
      <trkpt lat="45.07499" lon="6.46407">
        <ele>2310.9006</ele>
        <time>2010-01-01T00:18:28Z</time>
      </trkpt>
      <trkpt lat="45.0749" lon="6.46422">
        <ele>2312.6514</ele>
        <time>2010-01-01T00:18:34Z</time>
      </trkpt>
      <trkpt lat="45.07479" lon="6.46429">
        <ele>2314.7022</ele>
        <time>2010-01-01T00:18:38Z</time>
      </trkpt>
      <trkpt lat="45.07473" lon="6.46445">
        <ele>2320.35</ele>
        <time>2010-01-01T00:18:44Z</time>
      </trkpt>
      <trkpt lat="45.07463" lon="6.4645">
        <ele>2325.9542</ele>
        <time>2010-01-01T00:18:48Z</time>
      </trkpt>
      <trkpt lat="45.07451" lon="6.46461">
        <ele>2328.0511</ele>
        <time>2010-01-01T00:18:54Z</time>
      </trkpt>
      <trkpt lat="45.07445" lon="6.46475">
        <ele>2328.8508</ele>
        <time>2010-01-01T00:18:58Z</time>
      </trkpt>
      <trkpt lat="45.07434" lon="6.46485">
        <ele>2331.3536</ele>
        <time>2010-01-01T00:19:04Z</time>
      </trkpt>
      <trkpt lat="45.07424" lon="6.46494">
        <ele>2333.0508</ele>
        <time>2010-01-01T00:19:08Z</time>
      </trkpt>
      <trkpt lat="45.07412" lon="6.46497">
        <ele>2334.4821</ele>
        <time>2010-01-01T00:19:13Z</time>
      </trkpt>
      <trkpt lat="45.07407" lon="6.46512">
        <ele>2337.9008</ele>
        <time>2010-01-01T00:19:18Z</time>
      </trkpt>
      <trkpt lat="45.07405" lon="6.46526">
        <ele>2339.65</ele>
        <time>2010-01-01T00:19:22Z</time>
      </trkpt>
      <trkpt lat="45.074" lon="6.46542">
        <ele>2338.7512</ele>
        <time>2010-01-01T00:19:27Z</time>
      </trkpt>
      <trkpt lat="45.07388" lon="6.46543">
        <ele>2344.1488</ele>
        <time>2010-01-01T00:19:31Z</time>
      </trkpt>
      <trkpt lat="45.07383" lon="6.46558">
        <ele>2350.2525</ele>
        <time>2010-01-01T00:19:36Z</time>
      </trkpt>
      <trkpt lat="45.07378" lon="6.46568">
        <ele>2354.251</ele>
        <time>2010-01-01T00:19:39Z</time>
      </trkpt>
      <trkpt lat="45.07379" lon="6.46584">
        <ele>2356.9013</ele>
        <time>2010-01-01T00:19:44Z</time>
      </trkpt>
      <trkpt lat="45.07391" lon="6.46587">
        <ele>2358.6506</ele>
        <time>2010-01-01T00:19:49Z</time>
      </trkpt>
      <trkpt lat="45.07405" lon="6.46587">
        <ele>2359.85</ele>
        <time>2010-01-01T00:19:54Z</time>
      </trkpt>
      <trkpt lat="45.0741" lon="6.46603">
        <ele>2361.303</ele>
        <time>2010-01-01T00:19:59Z</time>
      </trkpt>
      <trkpt lat="45.07414" lon="6.4662">
        <ele>2362.8513</ele>
        <time>2010-01-01T00:20:04Z</time>
      </trkpt>
      <trkpt lat="45.07421" lon="6.46634">
        <ele>2366.0499</ele>
        <time>2010-01-01T00:20:09Z</time>
      </trkpt>
      <trkpt lat="45.07426" lon="6.46646">
        <ele>2371.2024</ele>
        <time>2010-01-01T00:20:13Z</time>
      </trkpt>
      <trkpt lat="45.07422" lon="6.46661">
        <ele>2373.6981</ele>
        <time>2010-01-01T00:20:18Z</time>
      </trkpt>
      <trkpt lat="45.07417" lon="6.46676">
        <ele>2371.6499</ele>
        <time>2010-01-01T00:20:22Z</time>
      </trkpt>
      <trkpt lat="45.07411" lon="6.46692">
        <ele>2371.301</ele>
        <time>2010-01-01T00:20:27Z</time>
      </trkpt>
      <trkpt lat="45.07409" lon="6.4671">
        <ele>2372</ele>
        <time>2010-01-01T00:20:32Z</time>
      </trkpt>
      <trkpt lat="45.07407" lon="6.46724">
        <ele>2374.606</ele>
        <time>2010-01-01T00:20:37Z</time>
      </trkpt>
      <trkpt lat="45.07401" lon="6.46742">
        <ele>2379.3996</ele>
        <time>2010-01-01T00:20:42Z</time>
      </trkpt>
      <trkpt lat="45.07396" lon="6.46762">
        <ele>2385.1509</ele>
        <time>2010-01-01T00:20:48Z</time>
      </trkpt>
      <trkpt lat="45.0739" lon="6.46774">
        <ele>2387.5512</ele>
        <time>2010-01-01T00:20:52Z</time>
      </trkpt>
      <trkpt lat="45.07383" lon="6.46789">
        <ele>2390.0509</ele>
        <time>2010-01-01T00:20:57Z</time>
      </trkpt>
      <trkpt lat="45.07378" lon="6.46803">
        <ele>2389.7963</ele>
        <time>2010-01-01T00:21:02Z</time>
      </trkpt>
      <trkpt lat="45.0737" lon="6.46816">
        <ele>2386.5967</ele>
        <time>2010-01-01T00:21:07Z</time>
      </trkpt>
      <trkpt lat="45.07356" lon="6.46817">
        <ele>2386.6509</ele>
        <time>2010-01-01T00:21:12Z</time>
      </trkpt>
      <trkpt lat="45.07342" lon="6.46821">
        <ele>2390.2497</ele>
        <time>2010-01-01T00:21:18Z</time>
      </trkpt>
      <trkpt lat="45.07333" lon="6.46832">
        <ele>2397.4036</ele>
        <time>2010-01-01T00:21:23Z</time>
      </trkpt>
      <trkpt lat="45.07328" lon="6.46846">
        <ele>2402.9016</ele>
        <time>2010-01-01T00:21:27Z</time>
      </trkpt>
      <trkpt lat="45.07327" lon="6.46862">
        <ele>2403.1008</ele>
        <time>2010-01-01T00:21:32Z</time>
      </trkpt>
      <trkpt lat="45.07327" lon="6.46878">
        <ele>2405</ele>
        <time>2010-01-01T00:21:36Z</time>
      </trkpt>
      <trkpt lat="45.07322" lon="6.46896">
        <ele>2406.501</ele>
        <time>2010-01-01T00:21:42Z</time>
      </trkpt>
      <trkpt lat="45.07319" lon="6.4691">
        <ele>2409.3515</ele>
        <time>2010-01-01T00:21:46Z</time>
      </trkpt>
      <trkpt lat="45.07324" lon="6.46914">
        <ele>2414.7475</ele>
        <time>2010-01-01T00:21:49Z</time>
      </trkpt>
      <trkpt lat="45.07331" lon="6.46928">
        <ele>2413.4491</ele>
        <time>2010-01-01T00:21:53Z</time>
      </trkpt>
      <trkpt lat="45.07331" lon="6.46947">
        <ele>2413</ele>
        <time>2010-01-01T00:21:59Z</time>
      </trkpt>
      <trkpt lat="45.07325" lon="6.46963">
        <ele>2413</ele>
        <time>2010-01-01T00:22:04Z</time>
      </trkpt>
      <trkpt lat="45.07316" lon="6.46976">
        <ele>2413</ele>
        <time>2010-01-01T00:22:09Z</time>
      </trkpt>
      <trkpt lat="45.07308" lon="6.4699">
        <ele>2413</ele>
        <time>2010-01-01T00:22:14Z</time>
      </trkpt>
      <trkpt lat="45.073" lon="6.47004">
        <ele>2412.4491</ele>
        <time>2010-01-01T00:22:19Z</time>
      </trkpt>
      <trkpt lat="45.07299" lon="6.47021">
        <ele>2411.6491</ele>
        <time>2010-01-01T00:22:24Z</time>
      </trkpt>
      <trkpt lat="45.07298" lon="6.47036">
        <ele>2411.7508</ele>
        <time>2010-01-01T00:22:28Z</time>
      </trkpt>
      <trkpt lat="45.07296" lon="6.4704">
        <ele>2413.9016</ele>
        <time>2010-01-01T00:22:30Z</time>
      </trkpt>
      <trkpt lat="45.07296" lon="6.47049">
        <ele>2412</ele>
        <time>2010-01-01T00:22:32Z</time>
      </trkpt>
      <trkpt lat="45.07295" lon="6.47066">
        <ele>2411.8491</ele>
        <time>2010-01-01T00:22:37Z</time>
      </trkpt>
      <trkpt lat="45.07296" lon="6.47084">
        <ele>2411.0491</ele>
        <time>2010-01-01T00:22:42Z</time>
      </trkpt>
      <trkpt lat="45.07299" lon="6.47105">
        <ele>2412.3016</ele>
        <time>2010-01-01T00:22:48Z</time>
      </trkpt>
      <trkpt lat="45.07295" lon="6.47116">
        <ele>2413.9016</ele>
        <time>2010-01-01T00:22:52Z</time>
      </trkpt>
      <trkpt lat="45.07289" lon="6.47127">
        <ele>2415.5016</ele>
        <time>2010-01-01T00:22:56Z</time>
      </trkpt>
      <trkpt lat="45.07282" lon="6.47149">
        <ele>2416</ele>
        <time>2010-01-01T00:23:02Z</time>
      </trkpt>
      <trkpt lat="45.07278" lon="6.47177">
        <ele>2416.6511</ele>
        <time>2010-01-01T00:23:10Z</time>
      </trkpt>
      <trkpt lat="45.07278" lon="6.47191">
        <ele>2416.0995</ele>
        <time>2010-01-01T00:23:14Z</time>
      </trkpt>
      <trkpt lat="45.07271" lon="6.47206">
        <ele>2414.7494</ele>
        <time>2010-01-01T00:23:19Z</time>
      </trkpt>
      <trkpt lat="45.07267" lon="6.47225">
        <ele>2413.5491</ele>
        <time>2010-01-01T00:23:25Z</time>
      </trkpt>
      <trkpt lat="45.07266" lon="6.47243">
        <ele>2414.3006</ele>
        <time>2010-01-01T00:23:30Z</time>
      </trkpt>
      <trkpt lat="45.07272" lon="6.4726">
        <ele>2420</ele>
        <time>2010-01-01T00:23:35Z</time>
      </trkpt>
      <trkpt lat="45.07267" lon="6.47275">
        <ele>2419.5496</ele>
        <time>2010-01-01T00:23:40Z</time>
      </trkpt>
      <trkpt lat="45.07264" lon="6.47296">
        <ele>2418.4983</ele>
        <time>2010-01-01T00:23:47Z</time>
      </trkpt>
      <trkpt lat="45.07266" lon="6.47315">
        <ele>2417</ele>
        <time>2010-01-01T00:23:52Z</time>
      </trkpt>
      <trkpt lat="45.0727" lon="6.47331">
        <ele>2417</ele>
        <time>2010-01-01T00:23:57Z</time>
      </trkpt>
      <trkpt lat="45.07269" lon="6.47352">
        <ele>2417.6503</ele>
        <time>2010-01-01T00:24:03Z</time>
      </trkpt>
      <trkpt lat="45.07264" lon="6.47342">
        <ele>2417</ele>
        <time>2010-01-01T00:24:06Z</time>
      </trkpt>
      <trkpt lat="45.07268" lon="6.47361">
        <ele>2411.6052</ele>
        <time>2010-01-01T00:24:12Z</time>
      </trkpt>
      <trkpt lat="45.07272" lon="6.47383">
        <ele>2414.802</ele>
        <time>2010-01-01T00:24:18Z</time>
      </trkpt>
      <trkpt lat="45.07277" lon="6.47398">
        <ele>2416.5012</ele>
        <time>2010-01-01T00:24:23Z</time>
      </trkpt>
      <trkpt lat="45.07287" lon="6.47416">
        <ele>2416.2977</ele>
        <time>2010-01-01T00:24:29Z</time>
      </trkpt>
      <trkpt lat="45.07284" lon="6.47431">
        <ele>2416.1014</ele>
        <time>2010-01-01T00:24:34Z</time>
      </trkpt>
      <trkpt lat="45.07258" lon="6.47429">
        <ele>2415.4985</ele>
        <time>2010-01-01T00:24:44Z</time>
      </trkpt>
      <trkpt lat="45.07242" lon="6.47436">
        <ele>2411.1991</ele>
        <time>2010-01-01T00:24:51Z</time>
      </trkpt>
      <trkpt lat="45.07234" lon="6.4745">
        <ele>2411.7511</ele>
        <time>2010-01-01T00:24:56Z</time>
      </trkpt>
      <trkpt lat="45.07225" lon="6.47456">
        <ele>2412.9512</ele>
        <time>2010-01-01T00:25:00Z</time>
      </trkpt>
      <trkpt lat="45.07201" lon="6.47464">
        <ele>2416.4533</ele>
        <time>2010-01-01T00:25:10Z</time>
      </trkpt>
      <trkpt lat="45.07183" lon="6.47468">
        <ele>2419.7022</ele>
        <time>2010-01-01T00:25:17Z</time>
      </trkpt>
      <trkpt lat="45.07161" lon="6.47475">
        <ele>2418.149</ele>
        <time>2010-01-01T00:25:26Z</time>
      </trkpt>
      <trkpt lat="45.07152" lon="6.47482">
        <ele>2419.6524</ele>
        <time>2010-01-01T00:25:30Z</time>
      </trkpt>
      <trkpt lat="45.07146" lon="6.47498">
        <ele>2417.9963</ele>
        <time>2010-01-01T00:25:35Z</time>
      </trkpt>
      <trkpt lat="45.07145" lon="6.47522">
        <ele>2412.5999</ele>
        <time>2010-01-01T00:25:42Z</time>
      </trkpt>
      <trkpt lat="45.07125" lon="6.47541">
        <ele>2405.6048</ele>
        <time>2010-01-01T00:25:51Z</time>
      </trkpt>
      <trkpt lat="45.07129" lon="6.47551">
        <ele>2415.3475</ele>
        <time>2010-01-01T00:25:54Z</time>
      </trkpt>
      <trkpt lat="45.07136" lon="6.47567">
        <ele>2404.2494</ele>
        <time>2010-01-01T00:26:00Z</time>
      </trkpt>
      <trkpt lat="45.07139" lon="6.47591">
        <ele>2404.5505</ele>
        <time>2010-01-01T00:26:07Z</time>
      </trkpt>
      <trkpt lat="45.07136" lon="6.4761">
        <ele>2401.2454</ele>
        <time>2010-01-01T00:26:12Z</time>
      </trkpt>
      <trkpt lat="45.07139" lon="6.47623">
        <ele>2403.3066</ele>
        <time>2010-01-01T00:26:16Z</time>
      </trkpt>
      <trkpt lat="45.07128" lon="6.47628">
        <ele>2407.0536</ele>
        <time>2010-01-01T00:26:21Z</time>
      </trkpt>
      <trkpt lat="45.0711" lon="6.47632">
        <ele>2409</ele>
        <time>2010-01-01T00:26:28Z</time>
      </trkpt>
      <trkpt lat="45.07108" lon="6.47646">
        <ele>2409</ele>
        <time>2010-01-01T00:26:32Z</time>
      </trkpt>
      <trkpt lat="45.07105" lon="6.4766">
        <ele>2408.8496</ele>
        <time>2010-01-01T00:26:36Z</time>
      </trkpt>
      <trkpt lat="45.07111" lon="6.47673">
        <ele>2408.0492</ele>
        <time>2010-01-01T00:26:41Z</time>
      </trkpt>
      <trkpt lat="45.0711" lon="6.47697">
        <ele>2408.1509</ele>
        <time>2010-01-01T00:26:47Z</time>
      </trkpt>
      <trkpt lat="45.07119" lon="6.477">
        <ele>2412.754</ele>
        <time>2010-01-01T00:26:51Z</time>
      </trkpt>
      <trkpt lat="45.07112" lon="6.47692">
        <ele>2415.5475</ele>
        <time>2010-01-01T00:26:55Z</time>
      </trkpt>
      <trkpt lat="45.07108" lon="6.47679">
        <ele>2420.8518</ele>
        <time>2010-01-01T00:26:58Z</time>
      </trkpt>
      <trkpt lat="45.07111" lon="6.4769">
        <ele>2421.0981</ele>
        <time>2010-01-01T00:27:02Z</time>
      </trkpt>
      <trkpt lat="45.0711" lon="6.47677">
        <ele>2416.5028</ele>
        <time>2010-01-01T00:27:05Z</time>
      </trkpt>
      <trkpt lat="45.07097" lon="6.4767">
        <ele>2416.0486</ele>
        <time>2010-01-01T00:27:11Z</time>
      </trkpt>
      <trkpt lat="45.0709" lon="6.47654">
        <ele>2415.1506</ele>
        <time>2010-01-01T00:27:16Z</time>
      </trkpt>
      <trkpt lat="45.07089" lon="6.47637">
        <ele>2415.9511</ele>
        <time>2010-01-01T00:27:21Z</time>
      </trkpt>
      <trkpt lat="45.07095" lon="6.47627">
        <ele>2418.9501</ele>
        <time>2010-01-01T00:27:25Z</time>
      </trkpt>
      <trkpt lat="45.07085" lon="6.47636">
        <ele>2412.7535</ele>
        <time>2010-01-01T00:27:30Z</time>
      </trkpt>
      <trkpt lat="45.07094" lon="6.4763">
        <ele>2417.2987</ele>
        <time>2010-01-01T00:27:34Z</time>
      </trkpt>
      <trkpt lat="45.07085" lon="6.47627">
        <ele>2425.6494</ele>
        <time>2010-01-01T00:27:38Z</time>
      </trkpt>
      <trkpt lat="45.07095" lon="6.47634">
        <ele>2411.4528</ele>
        <time>2010-01-01T00:27:42Z</time>
      </trkpt>
      <trkpt lat="45.07088" lon="6.47624">
        <ele>2421.3513</ele>
        <time>2010-01-01T00:27:46Z</time>
      </trkpt>
      <trkpt lat="45.07075" lon="6.47625">
        <ele>2421.4496</ele>
        <time>2010-01-01T00:27:51Z</time>
      </trkpt>
      <trkpt lat="45.07062" lon="6.47619">
        <ele>2419.949</ele>
        <time>2010-01-01T00:27:57Z</time>
      </trkpt>
      <trkpt lat="45.07053" lon="6.4761">
        <ele>2417.2454</ele>
        <time>2010-01-01T00:28:01Z</time>
      </trkpt>
      <trkpt lat="45.07041" lon="6.47598">
        <ele>2412.649</ele>
        <time>2010-01-01T00:28:07Z</time>
      </trkpt>
      <trkpt lat="45.07033" lon="6.47587">
        <ele>2411.8496</ele>
        <time>2010-01-01T00:28:11Z</time>
      </trkpt>
      <trkpt lat="45.07024" lon="6.47575">
        <ele>2411.0496</ele>
        <time>2010-01-01T00:28:16Z</time>
      </trkpt>
      <trkpt lat="45.07017" lon="6.47561">
        <ele>2411.7506</ele>
        <time>2010-01-01T00:28:21Z</time>
      </trkpt>
      <trkpt lat="45.07029" lon="6.47553">
        <ele>2413.9016</ele>
        <time>2010-01-01T00:28:27Z</time>
      </trkpt>
      <trkpt lat="45.07017" lon="6.47554">
        <ele>2417.4056</ele>
        <time>2010-01-01T00:28:31Z</time>
      </trkpt>
      <trkpt lat="45.07001" lon="6.47532">
        <ele>2421.1016</ele>
        <time>2010-01-01T00:28:40Z</time>
      </trkpt>
      <trkpt lat="45.06996" lon="6.47516">
        <ele>2421.2489</ele>
        <time>2010-01-01T00:28:45Z</time>
      </trkpt>
      <trkpt lat="45.06991" lon="6.47503">
        <ele>2422.9</ele>
        <time>2010-01-01T00:28:49Z</time>
      </trkpt>
      <trkpt lat="45.06992" lon="6.47489">
        <ele>2423.6508</ele>
        <time>2010-01-01T00:28:53Z</time>
      </trkpt>
      <trkpt lat="45.06992" lon="6.47472">
        <ele>2424</ele>
        <time>2010-01-01T00:28:58Z</time>
      </trkpt>
      <trkpt lat="45.06988" lon="6.47457">
        <ele>2425.5018</ele>
        <time>2010-01-01T00:29:03Z</time>
      </trkpt>
      <trkpt lat="45.06989" lon="6.47434">
        <ele>2425.0489</ele>
        <time>2010-01-01T00:29:09Z</time>
      </trkpt>
      <trkpt lat="45.06988" lon="6.47417">
        <ele>2430.257</ele>
        <time>2010-01-01T00:29:14Z</time>
      </trkpt>
      <trkpt lat="45.06984" lon="6.474">
        <ele>2430.8993</ele>
        <time>2010-01-01T00:29:19Z</time>
      </trkpt>
      <trkpt lat="45.06986" lon="6.47385">
        <ele>2433.0044</ele>
        <time>2010-01-01T00:29:23Z</time>
      </trkpt>
      <trkpt lat="45.06984" lon="6.4737">
        <ele>2436.2024</ele>
        <time>2010-01-01T00:29:28Z</time>
      </trkpt>
      <trkpt lat="45.0698" lon="6.4736">
        <ele>2438.3507</ele>
        <time>2010-01-01T00:29:31Z</time>
      </trkpt>
      <trkpt lat="45.06977" lon="6.47345">
        <ele>2439.1504</ele>
        <time>2010-01-01T00:29:35Z</time>
      </trkpt>
      <trkpt lat="45.06969" lon="6.47333">
        <ele>2439.9512</ele>
        <time>2010-01-01T00:29:40Z</time>
      </trkpt>
      <trkpt lat="45.06968" lon="6.47318">
        <ele>2439.2499</ele>
        <time>2010-01-01T00:29:44Z</time>
      </trkpt>
      <trkpt lat="45.06967" lon="6.47298">
        <ele>2436.1488</ele>
        <time>2010-01-01T00:29:50Z</time>
      </trkpt>
      <trkpt lat="45.0697" lon="6.47287">
        <ele>2436</ele>
        <time>2010-01-01T00:29:53Z</time>
      </trkpt>
      <trkpt lat="45.0697" lon="6.47272">
        <ele>2438.202</ele>
        <time>2010-01-01T00:29:58Z</time>
      </trkpt>
      <trkpt lat="45.06964" lon="6.47258">
        <ele>2440</ele>
        <time>2010-01-01T00:30:02Z</time>
      </trkpt>
      <trkpt lat="45.06956" lon="6.47247">
        <ele>2439.0493</ele>
        <time>2010-01-01T00:30:07Z</time>
      </trkpt>
      <trkpt lat="45.06946" lon="6.47241">
        <ele>2441.1963</ele>
        <time>2010-01-01T00:30:11Z</time>
      </trkpt>
      <trkpt lat="45.0694" lon="6.47227">
        <ele>2447.61</ele>
        <time>2010-01-01T00:30:16Z</time>
      </trkpt>
      <trkpt lat="45.06938" lon="6.47209">
        <ele>2446.0494</ele>
        <time>2010-01-01T00:30:21Z</time>
      </trkpt>
      <trkpt lat="45.06924" lon="6.47213">
        <ele>2448.1032</ele>
        <time>2010-01-01T00:30:27Z</time>
      </trkpt>
      <trkpt lat="45.0691" lon="6.47206">
        <ele>2448.6491</ele>
        <time>2010-01-01T00:30:33Z</time>
      </trkpt>
      <trkpt lat="45.06898" lon="6.47204">
        <ele>2448.3012</ele>
        <time>2010-01-01T00:30:37Z</time>
      </trkpt>
      <trkpt lat="45.06889" lon="6.47211">
        <ele>2449.9006</ele>
        <time>2010-01-01T00:30:41Z</time>
      </trkpt>
      <trkpt lat="45.06884" lon="6.47227">
        <ele>2448.1502</ele>
        <time>2010-01-01T00:30:46Z</time>
      </trkpt>
      <trkpt lat="45.06873" lon="6.47237">
        <ele>2448.9508</ele>
        <time>2010-01-01T00:30:51Z</time>
      </trkpt>
      <trkpt lat="45.06853" lon="6.47228">
        <ele>2452.4496</ele>
        <time>2010-01-01T00:31:00Z</time>
      </trkpt>
      <trkpt lat="45.06851" lon="6.47213">
        <ele>2449.7495</ele>
        <time>2010-01-01T00:31:04Z</time>
      </trkpt>
      <trkpt lat="45.06842" lon="6.47203">
        <ele>2452.8068</ele>
        <time>2010-01-01T00:31:09Z</time>
      </trkpt>
      <trkpt lat="45.06833" lon="6.47195">
        <ele>2449.8995</ele>
        <time>2010-01-01T00:31:13Z</time>
      </trkpt>
      <trkpt lat="45.0682" lon="6.47182">
        <ele>2447.4985</ele>
        <time>2010-01-01T00:31:19Z</time>
      </trkpt>
      <trkpt lat="45.06814" lon="6.47171">
        <ele>2445.349</ele>
        <time>2010-01-01T00:31:23Z</time>
      </trkpt>
      <trkpt lat="45.06803" lon="6.47178">
        <ele>2443.6487</ele>
        <time>2010-01-01T00:31:28Z</time>
      </trkpt>
      <trkpt lat="45.06789" lon="6.47177">
        <ele>2443.4512</ele>
        <time>2010-01-01T00:31:34Z</time>
      </trkpt>
      <trkpt lat="45.06779" lon="6.47168">
        <ele>2446.7014</ele>
        <time>2010-01-01T00:31:39Z</time>
      </trkpt>
      <trkpt lat="45.0677" lon="6.4716">
        <ele>2450.754</ele>
        <time>2010-01-01T00:31:43Z</time>
      </trkpt>
      <trkpt lat="45.06773" lon="6.47141">
        <ele>2453</ele>
        <time>2010-01-01T00:31:48Z</time>
      </trkpt>
      <trkpt lat="45.06765" lon="6.47133">
        <ele>2453</ele>
        <time>2010-01-01T00:31:53Z</time>
      </trkpt>
      <trkpt lat="45.0676" lon="6.4712">
        <ele>2453</ele>
        <time>2010-01-01T00:31:57Z</time>
      </trkpt>
      <trkpt lat="45.06751" lon="6.47117">
        <ele>2453.8613</ele>
        <time>2010-01-01T00:32:01Z</time>
      </trkpt>
      <trkpt lat="45.06742" lon="6.47109">
        <ele>2452.4795</ele>
        <time>2010-01-01T00:32:05Z</time>
      </trkpt>
      <trkpt lat="45.06739" lon="6.47098">
        <ele>2451.3385</ele>
        <time>2010-01-01T00:32:08Z</time>
      </trkpt>
      <trkpt lat="45.06728" lon="6.4708">
        <ele>2454.7222</ele>
        <time>2010-01-01T00:32:15Z</time>
      </trkpt>
      <trkpt lat="45.06717" lon="6.47083">
        <ele>2458.7215</ele>
        <time>2010-01-01T00:32:19Z</time>
      </trkpt>
      <trkpt lat="45.06702" lon="6.47085">
        <ele>2462.6824</ele>
        <time>2010-01-01T00:32:25Z</time>
      </trkpt>
      <trkpt lat="45.06691" lon="6.47089">
        <ele>2465.3842</ele>
        <time>2010-01-01T00:32:30Z</time>
      </trkpt>
      <trkpt lat="45.06676" lon="6.47084">
        <ele>2469.5197</ele>
        <time>2010-01-01T00:32:36Z</time>
      </trkpt>
      <trkpt lat="45.06665" lon="6.47085">
        <ele>2470</ele>
        <time>2010-01-01T00:32:41Z</time>
      </trkpt>
      <trkpt lat="45.06655" lon="6.4708">
        <ele>2471.2814</ele>
        <time>2010-01-01T00:32:45Z</time>
      </trkpt>
      <trkpt lat="45.06642" lon="6.47076">
        <ele>2473.6215</ele>
        <time>2010-01-01T00:32:50Z</time>
      </trkpt>
      <trkpt lat="45.06629" lon="6.47073">
        <ele>2475.4408</ele>
        <time>2010-01-01T00:32:55Z</time>
      </trkpt>
      <trkpt lat="45.06603" lon="6.47066">
        <ele>2477.2405</ele>
        <time>2010-01-01T00:33:06Z</time>
      </trkpt>
      <trkpt lat="45.06596" lon="6.47056">
        <ele>2478.1408</ele>
        <time>2010-01-01T00:33:10Z</time>
      </trkpt>
      <trkpt lat="45.06582" lon="6.47055">
        <ele>2479.0398</ele>
        <time>2010-01-01T00:33:15Z</time>
      </trkpt>
      <trkpt lat="45.06565" lon="6.47049">
        <ele>2480.8406</ele>
        <time>2010-01-01T00:33:22Z</time>
      </trkpt>
      <trkpt lat="45.06559" lon="6.47043">
        <ele>2482.921</ele>
        <time>2010-01-01T00:33:26Z</time>
      </trkpt>
      <trkpt lat="45.06549" lon="6.47034">
        <ele>2489</ele>
        <time>2010-01-01T00:33:30Z</time>
      </trkpt>
      <trkpt lat="45.0654" lon="6.47033">
        <ele>2487.0586</ele>
        <time>2010-01-01T00:33:34Z</time>
      </trkpt>
      <trkpt lat="45.0653" lon="6.47031">
        <ele>2487.8399</ele>
        <time>2010-01-01T00:33:38Z</time>
      </trkpt>
      <trkpt lat="45.06517" lon="6.47025">
        <ele>2487</ele>
        <time>2010-01-01T00:33:44Z</time>
      </trkpt>
      <trkpt lat="45.0651" lon="6.47013">
        <ele>2486.9395</ele>
        <time>2010-01-01T00:33:48Z</time>
      </trkpt>
      <trkpt lat="45.06498" lon="6.47002">
        <ele>2486.0392</ele>
        <time>2010-01-01T00:33:53Z</time>
      </trkpt>
      <trkpt lat="45.06488" lon="6.46994">
        <ele>2485.1385</ele>
        <time>2010-01-01T00:33:58Z</time>
      </trkpt>
      <trkpt lat="45.06481" lon="6.46982">
        <ele>2485.7601</ele>
        <time>2010-01-01T00:34:02Z</time>
      </trkpt>
      <trkpt lat="45.06474" lon="6.46972">
        <ele>2489.9222</ele>
        <time>2010-01-01T00:34:06Z</time>
      </trkpt>
      <trkpt lat="45.06464" lon="6.4697">
        <ele>2492.4416</ele>
        <time>2010-01-01T00:34:10Z</time>
      </trkpt>
      <trkpt lat="45.06456" lon="6.4696">
        <ele>2495.2608</ele>
        <time>2010-01-01T00:34:15Z</time>
      </trkpt>
      <trkpt lat="45.06445" lon="6.46952">
        <ele>2496</ele>
        <time>2010-01-01T00:34:20Z</time>
      </trkpt>
      <trkpt lat="45.06434" lon="6.46962">
        <ele>2497.082</ele>
        <time>2010-01-01T00:34:25Z</time>
      </trkpt>
      <trkpt lat="45.06424" lon="6.46963">
        <ele>2498.4412</ele>
        <time>2010-01-01T00:34:29Z</time>
      </trkpt>
      <trkpt lat="45.06407" lon="6.46961">
        <ele>2500.3644</ele>
        <time>2010-01-01T00:34:36Z</time>
      </trkpt>
      <trkpt lat="45.06395" lon="6.46953">
        <ele>2503</ele>
        <time>2010-01-01T00:34:41Z</time>
      </trkpt>
      <trkpt lat="45.06379" lon="6.46946">
        <ele>2503.2828</ele>
        <time>2010-01-01T00:34:48Z</time>
      </trkpt>
      <trkpt lat="45.06369" lon="6.4694">
        <ele>2505</ele>
        <time>2010-01-01T00:34:52Z</time>
      </trkpt>
      <trkpt lat="45.06359" lon="6.46931">
        <ele>2505</ele>
        <time>2010-01-01T00:34:57Z</time>
      </trkpt>
      <trkpt lat="45.06346" lon="6.46922">
        <ele>2505.84</ele>
        <time>2010-01-01T00:35:02Z</time>
      </trkpt>
      <trkpt lat="45.06336" lon="6.46913">
        <ele>2506.7403</ele>
        <time>2010-01-01T00:35:07Z</time>
      </trkpt>
      <trkpt lat="45.06322" lon="6.46908">
        <ele>2505.6786</ele>
        <time>2010-01-01T00:35:13Z</time>
      </trkpt>
      <trkpt lat="45.06309" lon="6.4691">
        <ele>2507</ele>
        <time>2010-01-01T00:35:18Z</time>
      </trkpt>
      <trkpt lat="45.063" lon="6.46903">
        <ele>2507</ele>
        <time>2010-01-01T00:35:23Z</time>
      </trkpt>
      <trkpt lat="45.06287" lon="6.46898">
        <ele>2506.7555</ele>
        <time>2010-01-01T00:35:28Z</time>
      </trkpt>
      <trkpt lat="45.0627" lon="6.46903">
        <ele>2502.8487</ele>
        <time>2010-01-01T00:35:35Z</time>
      </trkpt>
      <trkpt lat="45.06258" lon="6.46899">
        <ele>2500.449</ele>
        <time>2010-01-01T00:35:40Z</time>
      </trkpt>
      <trkpt lat="45.06246" lon="6.46898">
        <ele>2498.1524</ele>
        <time>2010-01-01T00:35:44Z</time>
      </trkpt>
      <trkpt lat="45.06239" lon="6.46915">
        <ele>2500.5527</ele>
        <time>2010-01-01T00:35:50Z</time>
      </trkpt>
      <trkpt lat="45.0623" lon="6.46931">
        <ele>2501.7512</ele>
        <time>2010-01-01T00:35:56Z</time>
      </trkpt>
      <trkpt lat="45.06222" lon="6.46947">
        <ele>2502.8517</ele>
        <time>2010-01-01T00:36:01Z</time>
      </trkpt>
      <trkpt lat="45.06212" lon="6.46965">
        <ele>2502.1598</ele>
        <time>2010-01-01T00:36:08Z</time>
      </trkpt>
      <trkpt lat="45.06205" lon="6.46979">
        <ele>2502.7401</ele>
        <time>2010-01-01T00:36:13Z</time>
      </trkpt>
      <trkpt lat="45.06192" lon="6.46978">
        <ele>2502.0608</ele>
        <time>2010-01-01T00:36:18Z</time>
      </trkpt>
      <trkpt lat="45.0618" lon="6.4697">
        <ele>2502.9616</ele>
        <time>2010-01-01T00:36:23Z</time>
      </trkpt>
      <trkpt lat="45.06171" lon="6.46961">
        <ele>2503.8607</ele>
        <time>2010-01-01T00:36:28Z</time>
      </trkpt>
      <trkpt lat="45.06163" lon="6.46949">
        <ele>2505.5228</ele>
        <time>2010-01-01T00:36:32Z</time>
      </trkpt>
      <trkpt lat="45.06156" lon="6.46938">
        <ele>2507.3206</ele>
        <time>2010-01-01T00:36:37Z</time>
      </trkpt>
      <trkpt lat="45.06145" lon="6.46899">
        <ele>2511</ele>
        <time>2010-01-01T00:36:49Z</time>
      </trkpt>
      <trkpt lat="45.06142" lon="6.46884">
        <ele>2511</ele>
        <time>2010-01-01T00:36:53Z</time>
      </trkpt>
      <trkpt lat="45.06134" lon="6.46872">
        <ele>2511</ele>
        <time>2010-01-01T00:36:57Z</time>
      </trkpt>
      <trkpt lat="45.06124" lon="6.46869">
        <ele>2509.6757</ele>
        <time>2010-01-01T00:37:02Z</time>
      </trkpt>
      <trkpt lat="45.06111" lon="6.4687">
        <ele>2508.3406</ele>
        <time>2010-01-01T00:37:07Z</time>
      </trkpt>
      <trkpt lat="45.06101" lon="6.4687">
        <ele>2509</ele>
        <time>2010-01-01T00:37:11Z</time>
      </trkpt>
      <trkpt lat="45.06089" lon="6.46861">
        <ele>2509.4414</ele>
        <time>2010-01-01T00:37:16Z</time>
      </trkpt>
      <trkpt lat="45.06079" lon="6.46857">
        <ele>2509.3171</ele>
        <time>2010-01-01T00:37:21Z</time>
      </trkpt>
      <trkpt lat="45.06063" lon="6.4686">
        <ele>2508.4802</ele>
        <time>2010-01-01T00:37:27Z</time>
      </trkpt>
      <trkpt lat="45.06055" lon="6.46851">
        <ele>2510.1414</ele>
        <time>2010-01-01T00:37:31Z</time>
      </trkpt>
      <trkpt lat="45.06041" lon="6.46851">
        <ele>2511.204</ele>
        <time>2010-01-01T00:37:36Z</time>
      </trkpt>
      <trkpt lat="45.06027" lon="6.46839">
        <ele>2515.7</ele>
        <time>2010-01-01T00:37:43Z</time>
      </trkpt>
      <trkpt lat="45.06017" lon="6.4683">
        <ele>2519.3656</ele>
        <time>2010-01-01T00:37:48Z</time>
      </trkpt>
      <trkpt lat="45.06003" lon="6.46817">
        <ele>2523.7025</ele>
        <time>2010-01-01T00:37:55Z</time>
      </trkpt>
      <trkpt lat="45.05987" lon="6.46807">
        <ele>2529.7</ele>
        <time>2010-01-01T00:38:02Z</time>
      </trkpt>
      <trkpt lat="45.05979" lon="6.46797">
        <ele>2530</ele>
        <time>2010-01-01T00:38:06Z</time>
      </trkpt>
      <trkpt lat="45.0597" lon="6.46787">
        <ele>2531.6812</ele>
        <time>2010-01-01T00:38:11Z</time>
      </trkpt>
      <trkpt lat="45.05964" lon="6.46774">
        <ele>2531.1934</ele>
        <time>2010-01-01T00:38:15Z</time>
      </trkpt>
      <trkpt lat="45.05956" lon="6.46757">
        <ele>2529.5022</ele>
        <time>2010-01-01T00:38:21Z</time>
      </trkpt>
      <trkpt lat="45.05949" lon="6.46746">
        <ele>2531.3016</ele>
        <time>2010-01-01T00:38:25Z</time>
      </trkpt>
      <trkpt lat="45.0594" lon="6.46731">
        <ele>2531.549</ele>
        <time>2010-01-01T00:38:31Z</time>
      </trkpt>
      <trkpt lat="45.05929" lon="6.46727">
        <ele>2530.2971</ele>
        <time>2010-01-01T00:38:35Z</time>
      </trkpt>
      <trkpt lat="45.05918" lon="6.4673">
        <ele>2531.2521</ele>
        <time>2010-01-01T00:38:39Z</time>
      </trkpt>
      <trkpt lat="45.05908" lon="6.46721">
        <ele>2533.208</ele>
        <time>2010-01-01T00:38:44Z</time>
      </trkpt>
      <trkpt lat="45.05899" lon="6.46708">
        <ele>2539.6072</ele>
        <time>2010-01-01T00:38:49Z</time>
      </trkpt>
      <trkpt lat="45.0589" lon="6.46696">
        <ele>2543.004</ele>
        <time>2010-01-01T00:38:54Z</time>
      </trkpt>
      <trkpt lat="45.05879" lon="6.46689">
        <ele>2544</ele>
        <time>2010-01-01T00:38:59Z</time>
      </trkpt>
      <trkpt lat="45.05868" lon="6.46684">
        <ele>2544.4512</ele>
        <time>2010-01-01T00:39:04Z</time>
      </trkpt>
      <trkpt lat="45.05855" lon="6.46679">
        <ele>2545.7504</ele>
        <time>2010-01-01T00:39:09Z</time>
      </trkpt>
      <trkpt lat="45.05842" lon="6.46675">
        <ele>2544.0989</ele>
        <time>2010-01-01T00:39:15Z</time>
      </trkpt>
      <trkpt lat="45.05831" lon="6.46674">
        <ele>2543.0511</ele>
        <time>2010-01-01T00:39:19Z</time>
      </trkpt>
      <trkpt lat="45.05818" lon="6.46675">
        <ele>2545.7535</ele>
        <time>2010-01-01T00:39:24Z</time>
      </trkpt>
      <trkpt lat="45.05808" lon="6.46673">
        <ele>2550.0032</ele>
        <time>2010-01-01T00:39:28Z</time>
      </trkpt>
      <trkpt lat="45.05795" lon="6.46676">
        <ele>2554.6509</ele>
        <time>2010-01-01T00:39:33Z</time>
      </trkpt>
      <trkpt lat="45.05782" lon="6.46679">
        <ele>2556</ele>
        <time>2010-01-01T00:39:39Z</time>
      </trkpt>
      <trkpt lat="45.0577" lon="6.46682">
        <ele>2556.6505</ele>
        <time>2010-01-01T00:39:44Z</time>
      </trkpt>
      <trkpt lat="45.0576" lon="6.46689">
        <ele>2557.8508</ele>
        <time>2010-01-01T00:39:48Z</time>
      </trkpt>
      <trkpt lat="45.05747" lon="6.46695">
        <ele>2557.8983</ele>
        <time>2010-01-01T00:39:54Z</time>
      </trkpt>
      <trkpt lat="45.05737" lon="6.46687">
        <ele>2556.701</ele>
        <time>2010-01-01T00:39:58Z</time>
      </trkpt>
      <trkpt lat="45.05721" lon="6.4668">
        <ele>2559.0012</ele>
        <time>2010-01-01T00:40:05Z</time>
      </trkpt>
      <trkpt lat="45.05707" lon="6.46682">
        <ele>2565.8563</ele>
        <time>2010-01-01T00:40:11Z</time>
      </trkpt>
      <trkpt lat="45.05693" lon="6.46686">
        <ele>2572.4032</ele>
        <time>2010-01-01T00:40:16Z</time>
      </trkpt>
      <trkpt lat="45.05682" lon="6.46683">
        <ele>2577</ele>
        <time>2010-01-01T00:40:21Z</time>
      </trkpt>
      <trkpt lat="45.05672" lon="6.46688">
        <ele>2576.9496</ele>
        <time>2010-01-01T00:40:25Z</time>
      </trkpt>
      <trkpt lat="45.05657" lon="6.46691">
        <ele>2575.7489</ele>
        <time>2010-01-01T00:40:31Z</time>
      </trkpt>
      <trkpt lat="45.05647" lon="6.46686">
        <ele>2575.9022</ele>
        <time>2010-01-01T00:40:35Z</time>
      </trkpt>
      <trkpt lat="45.05637" lon="6.46681">
        <ele>2578.3012</ele>
        <time>2010-01-01T00:40:39Z</time>
      </trkpt>
      <trkpt lat="45.05625" lon="6.4668">
        <ele>2580.65</ele>
        <time>2010-01-01T00:40:44Z</time>
      </trkpt>
      <trkpt lat="45.05612" lon="6.46679">
        <ele>2585</ele>
        <time>2010-01-01T00:40:49Z</time>
      </trkpt>
      <trkpt lat="45.05602" lon="6.46673">
        <ele>2588.4969</ele>
        <time>2010-01-01T00:40:54Z</time>
      </trkpt>
      <trkpt lat="45.05592" lon="6.46666">
        <ele>2588.3508</ele>
        <time>2010-01-01T00:40:58Z</time>
      </trkpt>
      <trkpt lat="45.05578" lon="6.4666">
        <ele>2588.7482</ele>
        <time>2010-01-01T00:41:04Z</time>
      </trkpt>
      <trkpt lat="45.05567" lon="6.46654">
        <ele>2588.5508</ele>
        <time>2010-01-01T00:41:09Z</time>
      </trkpt>
      <trkpt lat="45.05551" lon="6.46659">
        <ele>2590.5012</ele>
        <time>2010-01-01T00:41:15Z</time>
      </trkpt>
      <trkpt lat="45.0553" lon="6.46659">
        <ele>2591.5508</ele>
        <time>2010-01-01T00:41:24Z</time>
      </trkpt>
      <trkpt lat="45.05522" lon="6.46643">
        <ele>2592.2012</ele>
        <time>2010-01-01T00:41:30Z</time>
      </trkpt>
      <trkpt lat="45.05522" lon="6.46628">
        <ele>2599.1507</ele>
        <time>2010-01-01T00:41:34Z</time>
      </trkpt>
      <trkpt lat="45.05513" lon="6.46619">
        <ele>2604.503</ele>
        <time>2010-01-01T00:41:38Z</time>
      </trkpt>
      <trkpt lat="45.05504" lon="6.46626">
        <ele>2606</ele>
        <time>2010-01-01T00:41:42Z</time>
      </trkpt>
      <trkpt lat="45.05494" lon="6.46629">
        <ele>2610.903</ele>
        <time>2010-01-01T00:41:46Z</time>
      </trkpt>
      <trkpt lat="45.05479" lon="6.46623">
        <ele>2615.7018</ele>
        <time>2010-01-01T00:41:53Z</time>
      </trkpt>
      <trkpt lat="45.05467" lon="6.4661">
        <ele>2618.7525</ele>
        <time>2010-01-01T00:41:59Z</time>
      </trkpt>
      <trkpt lat="45.05458" lon="6.46598">
        <ele>2621.4493</ele>
        <time>2010-01-01T00:42:04Z</time>
      </trkpt>
      <trkpt lat="45.05446" lon="6.46594">
        <ele>2621.0493</ele>
        <time>2010-01-01T00:42:08Z</time>
      </trkpt>
      <trkpt lat="45.05444" lon="6.46612">
        <ele>2621.7505</ele>
        <time>2010-01-01T00:42:13Z</time>
      </trkpt>
      <trkpt lat="45.05435" lon="6.46621">
        <ele>2626.7008</ele>
        <time>2010-01-01T00:42:18Z</time>
      </trkpt>
      <trkpt lat="45.05431" lon="6.4661">
        <ele>2625.9999</ele>
        <time>2010-01-01T00:42:21Z</time>
      </trkpt>
      <trkpt lat="45.05437" lon="6.46602">
        <ele>2620</ele>
        <time>2010-01-01T00:42:24Z</time>
      </trkpt>
      <trkpt lat="45.05447" lon="6.46597">
        <ele>2619</ele>
        <time>2010-01-01T00:42:29Z</time>
      </trkpt>
      <trkpt lat="45.05437" lon="6.46596">
        <ele>2631.7536</ele>
        <time>2010-01-01T00:42:33Z</time>
      </trkpt>
      <trkpt lat="45.05439" lon="6.46581">
        <ele>2632.4494</ele>
        <time>2010-01-01T00:42:37Z</time>
      </trkpt>
      <trkpt lat="45.05439" lon="6.46565">
        <ele>2631.2993</ele>
        <time>2010-01-01T00:42:42Z</time>
      </trkpt>
      <trkpt lat="45.05433" lon="6.46547">
        <ele>2629.5481</ele>
        <time>2010-01-01T00:42:47Z</time>
      </trkpt>
      <trkpt lat="45.05431" lon="6.46531">
        <ele>2630.7495</ele>
        <time>2010-01-01T00:42:52Z</time>
      </trkpt>
      <trkpt lat="45.05427" lon="6.46514">
        <ele>2632.95</ele>
        <time>2010-01-01T00:42:57Z</time>
      </trkpt>
      <trkpt lat="45.05425" lon="6.46496">
        <ele>2633.7545</ele>
        <time>2010-01-01T00:43:02Z</time>
      </trkpt>
      <trkpt lat="45.05426" lon="6.4648">
        <ele>2640.1042</ele>
        <time>2010-01-01T00:43:07Z</time>
      </trkpt>
      <trkpt lat="45.05433" lon="6.46466">
        <ele>2647.0524</ele>
        <time>2010-01-01T00:43:11Z</time>
      </trkpt>
      <trkpt lat="45.05441" lon="6.46458">
        <ele>2649.453</ele>
        <time>2010-01-01T00:43:15Z</time>
      </trkpt>
      <trkpt lat="45.05444" lon="6.46442">
        <ele>2648.7022</ele>
        <time>2010-01-01T00:43:20Z</time>
      </trkpt>
      <trkpt lat="45.05432" lon="6.46433">
        <ele>2648.8989</ele>
        <time>2010-01-01T00:43:25Z</time>
      </trkpt>
      <trkpt lat="45.05426" lon="6.46412">
        <ele>2646.9466</ele>
        <time>2010-01-01T00:43:32Z</time>
      </trkpt>
      <trkpt lat="45.05422" lon="6.46394">
        <ele>2644.8497</ele>
        <time>2010-01-01T00:43:37Z</time>
      </trkpt>
      <trkpt lat="45.05414" lon="6.46377">
        <ele>2644.049</ele>
        <time>2010-01-01T00:43:43Z</time>
      </trkpt>
      <trkpt lat="45.05411" lon="6.46364">
        <ele>2643.3492</ele>
        <time>2010-01-01T00:43:47Z</time>
      </trkpt>
      <trkpt lat="45.05405" lon="6.4635">
        <ele>2638.7459</ele>
        <time>2010-01-01T00:43:52Z</time>
      </trkpt>
      <trkpt lat="45.05403" lon="6.4633">
        <ele>2637</ele>
        <time>2010-01-01T00:43:57Z</time>
      </trkpt>
      <trkpt lat="45.05403" lon="6.46317">
        <ele>2636.7491</ele>
        <time>2010-01-01T00:44:01Z</time>
      </trkpt>
      <trkpt lat="45.05402" lon="6.46301">
        <ele>2636</ele>
        <time>2010-01-01T00:44:05Z</time>
      </trkpt>
      <trkpt lat="45.05404" lon="6.4629">
        <ele>2636.2508</ele>
        <time>2010-01-01T00:44:08Z</time>
      </trkpt>
      <trkpt lat="45.05405" lon="6.46278">
        <ele>2638.7016</ele>
        <time>2010-01-01T00:44:12Z</time>
      </trkpt>
      <trkpt lat="45.05403" lon="6.46262">
        <ele>2639.6508</ele>
        <time>2010-01-01T00:44:17Z</time>
      </trkpt>
      <trkpt lat="45.05404" lon="6.46245">
        <ele>2641.7016</ele>
        <time>2010-01-01T00:44:21Z</time>
      </trkpt>
      <trkpt lat="45.05406" lon="6.46236">
        <ele>2642.6508</ele>
        <time>2010-01-01T00:44:24Z</time>
      </trkpt>
      <trkpt lat="45.05407" lon="6.46225">
        <ele>2643.4508</ele>
        <time>2010-01-01T00:44:27Z</time>
      </trkpt>
      <trkpt lat="45.05408" lon="6.46214">
        <ele>2645.3016</ele>
        <time>2010-01-01T00:44:30Z</time>
      </trkpt>
      <trkpt lat="45.05412" lon="6.46207">
        <ele>2647.7016</ele>
        <time>2010-01-01T00:44:33Z</time>
      </trkpt>
      <trkpt lat="45.0541" lon="6.46197">
        <ele>2651.3524</ele>
        <time>2010-01-01T00:44:36Z</time>
      </trkpt>
      <trkpt lat="45.05401" lon="6.46187">
        <ele>2653.6508</ele>
        <time>2010-01-01T00:44:40Z</time>
      </trkpt>
      <trkpt lat="45.05396" lon="6.46177">
        <ele>2654.4508</ele>
        <time>2010-01-01T00:44:44Z</time>
      </trkpt>
      <trkpt lat="45.05391" lon="6.46163">
        <ele>2656.3016</ele>
        <time>2010-01-01T00:44:48Z</time>
      </trkpt>
      <trkpt lat="45.05387" lon="6.4615">
        <ele>2660.2508</ele>
        <time>2010-01-01T00:44:52Z</time>
      </trkpt>
      <trkpt lat="45.05387" lon="6.46144">
        <ele>2661.0508</ele>
        <time>2010-01-01T00:44:54Z</time>
      </trkpt>
      <trkpt lat="45.05385" lon="6.46139">
        <ele>2662.5016</ele>
        <time>2010-01-01T00:44:55Z</time>
      </trkpt>
      <trkpt lat="45.0538" lon="6.46133">
        <ele>2664.1524</ele>
        <time>2010-01-01T00:44:58Z</time>
      </trkpt>
      <trkpt lat="45.05384" lon="6.46128">
        <ele>2667.2508</ele>
        <time>2010-01-01T00:45:00Z</time>
      </trkpt>
      <trkpt lat="45.05387" lon="6.46112">
        <ele>2676.8096</ele>
        <time>2010-01-01T00:45:04Z</time>
      </trkpt>
      <trkpt lat="45.05388" lon="6.46094">
        <ele>2676.6014</ele>
        <time>2010-01-01T00:45:09Z</time>
      </trkpt>
      <trkpt lat="45.05382" lon="6.46083">
        <ele>2690.1512</ele>
        <time>2010-01-01T00:45:14Z</time>
      </trkpt>
      <trkpt lat="45.05374" lon="6.46074">
        <ele>2695.1506</ele>
        <time>2010-01-01T00:45:18Z</time>
      </trkpt>
      <trkpt lat="45.05369" lon="6.46057">
        <ele>2698.651</ele>
        <time>2010-01-01T00:45:23Z</time>
      </trkpt>
      <trkpt lat="45.05367" lon="6.46043">
        <ele>2701.5524</ele>
        <time>2010-01-01T00:45:27Z</time>
      </trkpt>
      <trkpt lat="45.05371" lon="6.46022">
        <ele>2701.9502</ele>
        <time>2010-01-01T00:45:33Z</time>
      </trkpt>
      <trkpt lat="45.05367" lon="6.46005">
        <ele>2701.2507</ele>
        <time>2010-01-01T00:45:38Z</time>
      </trkpt>
      <trkpt lat="45.05368" lon="6.45988">
        <ele>2702</ele>
        <time>2010-01-01T00:45:43Z</time>
      </trkpt>
      <trkpt lat="45.05367" lon="6.45967">
        <ele>2700.6979</ele>
        <time>2010-01-01T00:45:49Z</time>
      </trkpt>
      <trkpt lat="45.05378" lon="6.45956">
        <ele>2697.7495</ele>
        <time>2010-01-01T00:45:54Z</time>
      </trkpt>
      <trkpt lat="45.05388" lon="6.45949">
        <ele>2698.3497</ele>
        <time>2010-01-01T00:45:59Z</time>
      </trkpt>
      <trkpt lat="45.05397" lon="6.4594">
        <ele>2700.7521</ele>
        <time>2010-01-01T00:46:03Z</time>
      </trkpt>
      <trkpt lat="45.05402" lon="6.45928">
        <ele>2705.706</ele>
        <time>2010-01-01T00:46:07Z</time>
      </trkpt>
      <trkpt lat="45.05408" lon="6.45915">
        <ele>2709</ele>
        <time>2010-01-01T00:46:11Z</time>
      </trkpt>
      <trkpt lat="45.05401" lon="6.45903">
        <ele>2714.9012</ele>
        <time>2010-01-01T00:46:16Z</time>
      </trkpt>
      <trkpt lat="45.05404" lon="6.45888">
        <ele>2716.7506</ele>
        <time>2010-01-01T00:46:20Z</time>
      </trkpt>
      <trkpt lat="45.05402" lon="6.45873">
        <ele>2718.9498</ele>
        <time>2010-01-01T00:46:24Z</time>
      </trkpt>
      <trkpt lat="45.05405" lon="6.45858">
        <ele>2716.7499</ele>
        <time>2010-01-01T00:46:29Z</time>
      </trkpt>
      <trkpt lat="45.05407" lon="6.45843">
        <ele>2713.9006</ele>
        <time>2010-01-01T00:46:33Z</time>
      </trkpt>
      <trkpt lat="45.05404" lon="6.4582">
        <ele>2714.7496</ele>
        <time>2010-01-01T00:46:40Z</time>
      </trkpt>
      <trkpt lat="45.054" lon="6.45805">
        <ele>2714</ele>
        <time>2010-01-01T00:46:44Z</time>
      </trkpt>
      <trkpt lat="45.05399" lon="6.45779">
        <ele>2714.7521</ele>
        <time>2010-01-01T00:46:52Z</time>
      </trkpt>
      <trkpt lat="45.05385" lon="6.45744">
        <ele>2717.4508</ele>
        <time>2010-01-01T00:47:03Z</time>
      </trkpt>
      <trkpt lat="45.05375" lon="6.45739">
        <ele>2716.6981</ele>
        <time>2010-01-01T00:47:07Z</time>
      </trkpt>
      <trkpt lat="45.05367" lon="6.45721">
        <ele>2717.7018</ele>
        <time>2010-01-01T00:47:13Z</time>
      </trkpt>
      <trkpt lat="45.05361" lon="6.45701">
        <ele>2716.0472</ele>
        <time>2010-01-01T00:47:19Z</time>
      </trkpt>
      <trkpt lat="45.05347" lon="6.45675">
        <ele>2715.85</ele>
        <time>2010-01-01T00:47:28Z</time>
      </trkpt>
      <trkpt lat="45.05347" lon="6.45659">
        <ele>2715.3489</ele>
        <time>2010-01-01T00:47:33Z</time>
      </trkpt>
      <trkpt lat="45.05356" lon="6.45644">
        <ele>2715</ele>
        <time>2010-01-01T00:47:38Z</time>
      </trkpt>
      <trkpt lat="45.05351" lon="6.45628">
        <ele>2716.0016</ele>
        <time>2010-01-01T00:47:43Z</time>
      </trkpt>
      <trkpt lat="45.05347" lon="6.45611">
        <ele>2715.4951</ele>
        <time>2010-01-01T00:47:48Z</time>
      </trkpt>
      <trkpt lat="45.05356" lon="6.45591">
        <ele>2711.2016</ele>
        <time>2010-01-01T00:47:55Z</time>
      </trkpt>
      <trkpt lat="45.05372" lon="6.4558">
        <ele>2714.4012</ele>
        <time>2010-01-01T00:48:02Z</time>
      </trkpt>
      <trkpt lat="45.05377" lon="6.45567">
        <ele>2714.0451</ele>
        <time>2010-01-01T00:48:06Z</time>
      </trkpt>
      <trkpt lat="45.05365" lon="6.45574">
        <ele>2705</ele>
        <time>2010-01-01T00:48:11Z</time>
      </trkpt>
      <trkpt lat="45.05355" lon="6.45559">
        <ele>2705.903</ele>
        <time>2010-01-01T00:48:17Z</time>
      </trkpt>
      <trkpt lat="45.05345" lon="6.45548">
        <ele>2709.0504</ele>
        <time>2010-01-01T00:48:22Z</time>
      </trkpt>
      <trkpt lat="45.0534" lon="6.45534">
        <ele>2709.8506</ele>
        <time>2010-01-01T00:48:27Z</time>
      </trkpt>
      <trkpt lat="45.05329" lon="6.45518">
        <ele>2710</ele>
        <time>2010-01-01T00:48:33Z</time>
      </trkpt>
      <trkpt lat="45.05333" lon="6.45499">
        <ele>2709.0977</ele>
        <time>2010-01-01T00:48:38Z</time>
      </trkpt>
      <trkpt lat="45.0534" lon="6.45486">
        <ele>2708.5016</ele>
        <time>2010-01-01T00:48:43Z</time>
      </trkpt>
      <trkpt lat="45.0535" lon="6.45469">
        <ele>2709.6963</ele>
        <time>2010-01-01T00:48:49Z</time>
      </trkpt>
      <trkpt lat="45.05349" lon="6.45451">
        <ele>2706.9006</ele>
        <time>2010-01-01T00:48:54Z</time>
      </trkpt>
      <trkpt lat="45.05352" lon="6.45435">
        <ele>2709.1505</ele>
        <time>2010-01-01T00:48:59Z</time>
      </trkpt>
      <trkpt lat="45.05359" lon="6.4542">
        <ele>2709.9507</ele>
        <time>2010-01-01T00:49:04Z</time>
      </trkpt>
      <trkpt lat="45.05359" lon="6.45405">
        <ele>2711.5014</ele>
        <time>2010-01-01T00:49:08Z</time>
      </trkpt>
      <trkpt lat="45.05367" lon="6.45389">
        <ele>2713.653</ele>
        <time>2010-01-01T00:49:14Z</time>
      </trkpt>
      <trkpt lat="45.05375" lon="6.45378">
        <ele>2714.6489</ele>
        <time>2010-01-01T00:49:18Z</time>
      </trkpt>
      <trkpt lat="45.05374" lon="6.45363">
        <ele>2718.5002</ele>
        <time>2010-01-01T00:49:23Z</time>
      </trkpt>
      <trkpt lat="45.05379" lon="6.4535">
        <ele>2721.8506</ele>
        <time>2010-01-01T00:49:27Z</time>
      </trkpt>
      <trkpt lat="45.05385" lon="6.45335">
        <ele>2720.4985</ele>
        <time>2010-01-01T00:49:32Z</time>
      </trkpt>
      <trkpt lat="45.05397" lon="6.4533">
        <ele>2722.2028</ele>
        <time>2010-01-01T00:49:37Z</time>
      </trkpt>
      <trkpt lat="45.05404" lon="6.45319">
        <ele>2724</ele>
        <time>2010-01-01T00:49:41Z</time>
      </trkpt>
      <trkpt lat="45.05415" lon="6.45313">
        <ele>2726.7028</ele>
        <time>2010-01-01T00:49:46Z</time>
      </trkpt>
      <trkpt lat="45.05418" lon="6.45299">
        <ele>2738.5508</ele>
        <time>2010-01-01T00:49:50Z</time>
      </trkpt>
      <trkpt lat="45.05428" lon="6.45297">
        <ele>2739.7014</ele>
        <time>2010-01-01T00:49:54Z</time>
      </trkpt>
      <trkpt lat="45.05434" lon="6.45285">
        <ele>2741.5506</ele>
        <time>2010-01-01T00:49:58Z</time>
      </trkpt>
      <trkpt lat="45.0543" lon="6.45271">
        <ele>2744.2533</ele>
        <time>2010-01-01T00:50:02Z</time>
      </trkpt>
      <trkpt lat="45.05431" lon="6.45255">
        <ele>2746.7008</ele>
        <time>2010-01-01T00:50:07Z</time>
      </trkpt>
      <trkpt lat="45.05427" lon="6.45242">
        <ele>2748.3012</ele>
        <time>2010-01-01T00:50:11Z</time>
      </trkpt>
      <trkpt lat="45.0542" lon="6.45229">
        <ele>2749.6499</ele>
        <time>2010-01-01T00:50:16Z</time>
      </trkpt>
      <trkpt lat="45.05422" lon="6.45215">
        <ele>2758.9072</ele>
        <time>2010-01-01T00:50:20Z</time>
      </trkpt>
      <trkpt lat="45.0543" lon="6.45206">
        <ele>2768.5616</ele>
        <time>2010-01-01T00:50:24Z</time>
      </trkpt>
      <trkpt lat="45.05434" lon="6.4519">
        <ele>2775.2833</ele>
        <time>2010-01-01T00:50:28Z</time>
      </trkpt>
      <trkpt lat="45.05442" lon="6.45179">
        <ele>2777.9815</ele>
        <time>2010-01-01T00:50:33Z</time>
      </trkpt>
      <trkpt lat="45.05448" lon="6.45167">
        <ele>2781.3821</ele>
        <time>2010-01-01T00:50:37Z</time>
      </trkpt>
      <trkpt lat="45.0546" lon="6.45158">
        <ele>2785.5233</ele>
        <time>2010-01-01T00:50:43Z</time>
      </trkpt>
      <trkpt lat="45.05472" lon="6.45148">
        <ele>2794.206</ele>
        <time>2010-01-01T00:50:48Z</time>
      </trkpt>
      <trkpt lat="45.05475" lon="6.45132">
        <ele>2798.5222</ele>
        <time>2010-01-01T00:50:53Z</time>
      </trkpt>
      <trkpt lat="45.05477" lon="6.45115">
        <ele>2802.6821</ele>
        <time>2010-01-01T00:50:58Z</time>
      </trkpt>
      <trkpt lat="45.05474" lon="6.45101">
        <ele>2804</ele>
        <time>2010-01-01T00:51:02Z</time>
      </trkpt>
      <trkpt lat="45.05465" lon="6.45088">
        <ele>2806.2416</ele>
        <time>2010-01-01T00:51:07Z</time>
      </trkpt>
      <trkpt lat="45.05475" lon="6.4508">
        <ele>2809.8448</ele>
        <time>2010-01-01T00:51:11Z</time>
      </trkpt>
      <trkpt lat="45.05482" lon="6.4507">
        <ele>2816.2827</ele>
        <time>2010-01-01T00:51:15Z</time>
      </trkpt>
      <trkpt lat="45.05487" lon="6.45057">
        <ele>2819</ele>
        <time>2010-01-01T00:51:19Z</time>
      </trkpt>
      <trkpt lat="45.05485" lon="6.4504">
        <ele>2822.4824</ele>
        <time>2010-01-01T00:51:24Z</time>
      </trkpt>
      <trkpt lat="45.05495" lon="6.45031">
        <ele>2825</ele>
        <time>2010-01-01T00:51:29Z</time>
      </trkpt>
      <trkpt lat="45.05498" lon="6.45017">
        <ele>2829.5206</ele>
        <time>2010-01-01T00:51:33Z</time>
      </trkpt>
      <trkpt lat="45.05509" lon="6.45002">
        <ele>2835.7234</ele>
        <time>2010-01-01T00:51:39Z</time>
      </trkpt>
      <trkpt lat="45.05518" lon="6.44996">
        <ele>2837.646</ele>
        <time>2010-01-01T00:51:43Z</time>
      </trkpt>
      <trkpt lat="45.05528" lon="6.44988">
        <ele>2840.0382</ele>
        <time>2010-01-01T00:51:48Z</time>
      </trkpt>
      <trkpt lat="45.05539" lon="6.4498">
        <ele>2845.7598</ele>
        <time>2010-01-01T00:51:53Z</time>
      </trkpt>
      <trkpt lat="45.05544" lon="6.44967">
        <ele>2847.4603</ele>
        <time>2010-01-01T00:51:57Z</time>
      </trkpt>
      <trkpt lat="45.05546" lon="6.44954">
        <ele>2849</ele>
        <time>2010-01-01T00:52:01Z</time>
      </trkpt>
      <trkpt lat="45.05545" lon="6.44943">
        <ele>2849.8401</ele>
        <time>2010-01-01T00:52:04Z</time>
      </trkpt>
      <trkpt lat="45.0555" lon="6.44926">
        <ele>2856.1845</ele>
        <time>2010-01-01T00:52:09Z</time>
      </trkpt>
      <trkpt lat="45.0556" lon="6.44916">
        <ele>2859.88</ele>
        <time>2010-01-01T00:52:14Z</time>
      </trkpt>
      <trkpt lat="45.0556" lon="6.44902">
        <ele>2864.8085</ele>
        <time>2010-01-01T00:52:18Z</time>
      </trkpt>
      <trkpt lat="45.05556" lon="6.44889">
        <ele>2870.4224</ele>
        <time>2010-01-01T00:52:22Z</time>
      </trkpt>
      <trkpt lat="45.05554" lon="6.44869">
        <ele>2876.4448</ele>
        <time>2010-01-01T00:52:28Z</time>
      </trkpt>
      <trkpt lat="45.05553" lon="6.44854">
        <ele>2879.78</ele>
        <time>2010-01-01T00:52:32Z</time>
      </trkpt>
      <trkpt lat="45.05555" lon="6.44838">
        <ele>2883.2818</ele>
        <time>2010-01-01T00:52:37Z</time>
      </trkpt>
      <trkpt lat="45.05551" lon="6.44825">
        <ele>2885.0812</ele>
        <time>2010-01-01T00:52:41Z</time>
      </trkpt>
      <trkpt lat="45.05561" lon="6.4482">
        <ele>2886.8814</ele>
        <time>2010-01-01T00:52:45Z</time>
      </trkpt>
      <trkpt lat="45.05555" lon="6.44806">
        <ele>2888</ele>
        <time>2010-01-01T00:52:49Z</time>
      </trkpt>
      <trkpt lat="45.05566" lon="6.44791">
        <ele>2889</ele>
        <time>2010-01-01T00:52:55Z</time>
      </trkpt>
      <trkpt lat="45.05563" lon="6.44774">
        <ele>2890.844</ele>
        <time>2010-01-01T00:53:00Z</time>
      </trkpt>
      <trkpt lat="45.05567" lon="6.4476">
        <ele>2893</ele>
        <time>2010-01-01T00:53:05Z</time>
      </trkpt>
      <trkpt lat="45.05575" lon="6.4475">
        <ele>2893.5208</ele>
        <time>2010-01-01T00:53:09Z</time>
      </trkpt>
      <trkpt lat="45.05579" lon="6.44733">
        <ele>2896.9206</ele>
        <time>2010-01-01T00:53:14Z</time>
      </trkpt>
      <trkpt lat="45.05579" lon="6.44715">
        <ele>2900.8833</ele>
        <time>2010-01-01T00:53:19Z</time>
      </trkpt>
      <trkpt lat="45.05583" lon="6.44702">
        <ele>2902.68</ele>
        <time>2010-01-01T00:53:23Z</time>
      </trkpt>
      <trkpt lat="45.05586" lon="6.44686">
        <ele>2905.3224</ele>
        <time>2010-01-01T00:53:28Z</time>
      </trkpt>
      <trkpt lat="45.05597" lon="6.44669">
        <ele>2906.0808</ele>
        <time>2010-01-01T00:53:34Z</time>
      </trkpt>
      <trkpt lat="45.056" lon="6.44656">
        <ele>2907.8814</ele>
        <time>2010-01-01T00:53:38Z</time>
      </trkpt>
      <trkpt lat="45.05602" lon="6.44641">
        <ele>2909.2606</ele>
        <time>2010-01-01T00:53:42Z</time>
      </trkpt>
      <trkpt lat="45.05598" lon="6.44627">
        <ele>2910</ele>
        <time>2010-01-01T00:53:47Z</time>
      </trkpt>
      <trkpt lat="45.05595" lon="6.44614">
        <ele>2910.5413</ele>
        <time>2010-01-01T00:53:51Z</time>
      </trkpt>
      <trkpt lat="45.05587" lon="6.446">
        <ele>2910.5592</ele>
        <time>2010-01-01T00:53:56Z</time>
      </trkpt>
      <trkpt lat="45.05585" lon="6.44583">
        <ele>2911.0218</ele>
        <time>2010-01-01T00:54:00Z</time>
      </trkpt>
      <trkpt lat="45.05585" lon="6.44566">
        <ele>2912.5197</ele>
        <time>2010-01-01T00:54:05Z</time>
      </trkpt>
      <trkpt lat="45.05576" lon="6.44552">
        <ele>2910.8599</ele>
        <time>2010-01-01T00:54:11Z</time>
      </trkpt>
      <trkpt lat="45.05569" lon="6.44541">
        <ele>2909.9185</ele>
        <time>2010-01-01T00:54:15Z</time>
      </trkpt>
      <trkpt lat="45.05564" lon="6.44529">
        <ele>2908.1181</ele>
        <time>2010-01-01T00:54:19Z</time>
      </trkpt>
      <trkpt lat="45.05559" lon="6.44515">
        <ele>2907.1595</ele>
        <time>2010-01-01T00:54:23Z</time>
      </trkpt>
      <trkpt lat="45.05559" lon="6.44494">
        <ele>2908.16</ele>
        <time>2010-01-01T00:54:29Z</time>
      </trkpt>
      <trkpt lat="45.05571" lon="6.44482">
        <ele>2909</ele>
        <time>2010-01-01T00:54:35Z</time>
      </trkpt>
      <trkpt lat="45.0558" lon="6.44471">
        <ele>2908.1387</ele>
        <time>2010-01-01T00:54:40Z</time>
      </trkpt>
      <trkpt lat="45.05574" lon="6.44458">
        <ele>2907.5772</ele>
        <time>2010-01-01T00:54:44Z</time>
      </trkpt>
      <trkpt lat="45.05567" lon="6.44449">
        <ele>2905</ele>
        <time>2010-01-01T00:54:48Z</time>
      </trkpt>
      <trkpt lat="45.05562" lon="6.44437">
        <ele>2905</ele>
        <time>2010-01-01T00:54:52Z</time>
      </trkpt>
      <trkpt lat="45.05573" lon="6.44426">
        <ele>2906.4822</ele>
        <time>2010-01-01T00:54:57Z</time>
      </trkpt>
      <trkpt lat="45.05582" lon="6.44421">
        <ele>2908.9239</ele>
        <time>2010-01-01T00:55:02Z</time>
      </trkpt>
      <trkpt lat="45.05587" lon="6.44411">
        <ele>2910</ele>
        <time>2010-01-01T00:55:05Z</time>
      </trkpt>
      <trkpt lat="45.05596" lon="6.44403">
        <ele>2910.8808</ele>
        <time>2010-01-01T00:55:09Z</time>
      </trkpt>
      <trkpt lat="45.05606" lon="6.44399">
        <ele>2912.7613</ele>
        <time>2010-01-01T00:55:13Z</time>
      </trkpt>
      <trkpt lat="45.05616" lon="6.4439">
        <ele>2912.3392</ele>
        <time>2010-01-01T00:55:18Z</time>
      </trkpt>
      <trkpt lat="45.05622" lon="6.44376">
        <ele>2914.0408</ele>
        <time>2010-01-01T00:55:23Z</time>
      </trkpt>
      <trkpt lat="45.0563" lon="6.44367">
        <ele>2914.2789</ele>
        <time>2010-01-01T00:55:27Z</time>
      </trkpt>
      <trkpt lat="45.05638" lon="6.44358">
        <ele>2909</ele>
        <time>2010-01-01T00:55:31Z</time>
      </trkpt>
      <trkpt lat="45.05638" lon="6.44342">
        <ele>2906.479</ele>
        <time>2010-01-01T00:55:35Z</time>
      </trkpt>
      <trkpt lat="45.05647" lon="6.44338">
        <ele>2903.8397</ele>
        <time>2010-01-01T00:55:39Z</time>
      </trkpt>
      <trkpt lat="45.05663" lon="6.44334">
        <ele>2908.9403</ele>
        <time>2010-01-01T00:55:46Z</time>
      </trkpt>
      <trkpt lat="45.05673" lon="6.44324">
        <ele>2912.2612</ele>
        <time>2010-01-01T00:55:51Z</time>
      </trkpt>
      <trkpt lat="45.05678" lon="6.44307">
        <ele>2917</ele>
        <time>2010-01-01T00:55:56Z</time>
      </trkpt>
      <trkpt lat="45.0568" lon="6.44293">
        <ele>2917</ele>
        <time>2010-01-01T00:56:00Z</time>
      </trkpt>
      <trkpt lat="45.05691" lon="6.44286">
        <ele>2925.2314</ele>
        <time>2010-01-01T00:56:05Z</time>
      </trkpt>
      <trkpt lat="45.05704" lon="6.44276">
        <ele>2922.6779</ele>
        <time>2010-01-01T00:56:11Z</time>
      </trkpt>
      <trkpt lat="45.05715" lon="6.44263">
        <ele>2919.3212</ele>
        <time>2010-01-01T00:56:16Z</time>
      </trkpt>
      <trkpt lat="45.05723" lon="6.44251">
        <ele>2920.6587</ele>
        <time>2010-01-01T00:56:21Z</time>
      </trkpt>
      <trkpt lat="45.05727" lon="6.44264">
        <ele>2919.5183</ele>
        <time>2010-01-01T00:56:25Z</time>
      </trkpt>
      <trkpt lat="45.05736" lon="6.44257">
        <ele>2917.5408</ele>
        <time>2010-01-01T00:56:29Z</time>
      </trkpt>
      <trkpt lat="45.05749" lon="6.44252">
        <ele>2916.68</ele>
        <time>2010-01-01T00:56:35Z</time>
      </trkpt>
      <trkpt lat="45.05756" lon="6.44259">
        <ele>2919.3228</ele>
        <time>2010-01-01T00:56:38Z</time>
      </trkpt>
      <trkpt lat="45.05762" lon="6.44265">
        <ele>2915.5215</ele>
        <time>2010-01-01T00:56:41Z</time>
      </trkpt>
      <trkpt lat="45.0577" lon="6.44269">
        <ele>2920.282</ele>
        <time>2010-01-01T00:56:44Z</time>
      </trkpt>
      <trkpt lat="45.05777" lon="6.44276">
        <ele>2922.8814</ele>
        <time>2010-01-01T00:56:47Z</time>
      </trkpt>
      <trkpt lat="45.05782" lon="6.44284">
        <ele>2925.521</ele>
        <time>2010-01-01T00:56:50Z</time>
      </trkpt>
      <trkpt lat="45.0579" lon="6.44271">
        <ele>2930.9409</ele>
        <time>2010-01-01T00:56:55Z</time>
      </trkpt>
      <trkpt lat="45.05799" lon="6.44268">
        <ele>2930.1585</ele>
        <time>2010-01-01T00:56:59Z</time>
      </trkpt>
      <trkpt lat="45.05801" lon="6.44252">
        <ele>2930.8388</ele>
        <time>2010-01-01T00:57:04Z</time>
      </trkpt>
      <trkpt lat="45.05799" lon="6.44233">
        <ele>2928.9177</ele>
        <time>2010-01-01T00:57:09Z</time>
      </trkpt>
      <trkpt lat="45.05799" lon="6.44219">
        <ele>2929</ele>
        <time>2010-01-01T00:57:13Z</time>
      </trkpt>
      <trkpt lat="45.05806" lon="6.44212">
        <ele>2931.5611</ele>
        <time>2010-01-01T00:57:17Z</time>
      </trkpt>
      <trkpt lat="45.05814" lon="6.44222">
        <ele>2937.0388</ele>
        <time>2010-01-01T00:57:21Z</time>
      </trkpt>
      <trkpt lat="45.0582" lon="6.44237">
        <ele>2936.341</ele>
        <time>2010-01-01T00:57:26Z</time>
      </trkpt>
      <trkpt lat="45.05826" lon="6.44246">
        <ele>2937.6613</ele>
        <time>2010-01-01T00:57:29Z</time>
      </trkpt>
      <trkpt lat="45.05833" lon="6.44237">
        <ele>2933.2607</ele>
        <time>2010-01-01T00:57:33Z</time>
      </trkpt>
      <trkpt lat="45.05841" lon="6.44228">
        <ele>2935.2818</ele>
        <time>2010-01-01T00:57:37Z</time>
      </trkpt>
      <trkpt lat="45.05852" lon="6.44233">
        <ele>2945.2826</ele>
        <time>2010-01-01T00:57:42Z</time>
      </trkpt>
      <trkpt lat="45.0586" lon="6.44227">
        <ele>2966</ele>
        <time>2010-01-01T00:57:45Z</time>
      </trkpt>
      <trkpt lat="45.05867" lon="6.44215">
        <ele>2965.0592</ele>
        <time>2010-01-01T00:57:50Z</time>
      </trkpt>
      <trkpt lat="45.05863" lon="6.442">
        <ele>2961</ele>
        <time>2010-01-01T00:57:54Z</time>
      </trkpt>
      <trkpt lat="45.05857" lon="6.44192">
        <ele>2963.3203</ele>
        <time>2010-01-01T00:57:57Z</time>
      </trkpt>
      <trkpt lat="45.05859" lon="6.44184">
        <ele>2979.9821</ele>
        <time>2010-01-01T00:58:00Z</time>
      </trkpt>
      <trkpt lat="45.05853" lon="6.44174">
        <ele>2982.2814</ele>
        <time>2010-01-01T00:58:03Z</time>
      </trkpt>
      <trkpt lat="45.05852" lon="6.44162">
        <ele>2984.0798</ele>
        <time>2010-01-01T00:58:07Z</time>
      </trkpt>
      <trkpt lat="45.05857" lon="6.44151">
        <ele>2985.123</ele>
        <time>2010-01-01T00:58:10Z</time>
      </trkpt>
      <trkpt lat="45.05862" lon="6.44147">
        <ele>2992.5818</ele>
        <time>2010-01-01T00:58:13Z</time>
      </trkpt>
      <trkpt lat="45.0587" lon="6.44137">
        <ele>2994.4412</ele>
        <time>2010-01-01T00:58:17Z</time>
      </trkpt>
      <trkpt lat="45.0588" lon="6.44132">
        <ele>2998.9827</ele>
        <time>2010-01-01T00:58:22Z</time>
      </trkpt>
      <trkpt lat="45.05887" lon="6.44122">
        <ele>3004.5212</ele>
        <time>2010-01-01T00:58:25Z</time>
      </trkpt>
      <trkpt lat="45.05897" lon="6.44125">
        <ele>3006.3202</ele>
        <time>2010-01-01T00:58:29Z</time>
      </trkpt>
      <trkpt lat="45.05903" lon="6.44137">
        <ele>3007.7599</ele>
        <time>2010-01-01T00:58:33Z</time>
      </trkpt>
      <trkpt lat="45.05908" lon="6.44126">
        <ele>3007.7607</ele>
        <time>2010-01-01T00:58:37Z</time>
      </trkpt>
      <trkpt lat="45.05909" lon="6.44114">
        <ele>3008</ele>
        <time>2010-01-01T00:58:41Z</time>
      </trkpt>
      <trkpt lat="45.05916" lon="6.44114">
        <ele>3004.839</ele>
        <time>2010-01-01T00:58:44Z</time>
      </trkpt>
      <trkpt lat="45.05922" lon="6.44105">
        <ele>3003.639</ele>
        <time>2010-01-01T00:58:47Z</time>
      </trkpt>
      <trkpt lat="45.05926" lon="6.44094">
        <ele>3003</ele>
        <time>2010-01-01T00:58:51Z</time>
      </trkpt>
      <trkpt lat="45.05932" lon="6.44101">
        <ele>3004.1185</ele>
        <time>2010-01-01T00:58:54Z</time>
      </trkpt>
      <trkpt lat="45.05944" lon="6.44102">
        <ele>2999.9539</ele>
        <time>2010-01-01T00:58:58Z</time>
      </trkpt>
      <trkpt lat="45.05956" lon="6.44094">
        <ele>2995.0391</ele>
        <time>2010-01-01T00:59:04Z</time>
      </trkpt>
      <trkpt lat="45.05964" lon="6.44093">
        <ele>2992.2769</ele>
        <time>2010-01-01T00:59:07Z</time>
      </trkpt>
      <trkpt lat="45.05965" lon="6.44083">
        <ele>2994.5524</ele>
        <time>2010-01-01T00:59:10Z</time>
      </trkpt>
      <trkpt lat="45.05972" lon="6.44083">
        <ele>2993.1491</ele>
        <time>2010-01-01T00:59:13Z</time>
      </trkpt>
      <trkpt lat="45.05973" lon="6.44078">
        <ele>2993.6508</ele>
        <time>2010-01-01T00:59:14Z</time>
      </trkpt>
      <trkpt lat="45.05975" lon="6.44073">
        <ele>2994.8508</ele>
        <time>2010-01-01T00:59:16Z</time>
      </trkpt>
      <trkpt lat="45.05977" lon="6.4407">
        <ele>2996.4385</ele>
        <time>2010-01-01T00:59:17Z</time>
      </trkpt>
      <trkpt lat="45.05982" lon="6.44068">
        <ele>2997.6876</ele>
        <time>2010-01-01T00:59:19Z</time>
      </trkpt>
      <trkpt lat="45.05986" lon="6.44066">
        <ele>3000.1016</ele>
        <time>2010-01-01T00:59:21Z</time>
      </trkpt>
      <trkpt lat="45.05989" lon="6.44069">
        <ele>3001.7016</ele>
        <time>2010-01-01T00:59:22Z</time>
      </trkpt>
      <trkpt lat="45.05991" lon="6.44071">
        <ele>3002.6508</ele>
        <time>2010-01-01T00:59:23Z</time>
      </trkpt>
      <trkpt lat="45.05996" lon="6.44071">
        <ele>3005.2032</ele>
        <time>2010-01-01T00:59:25Z</time>
      </trkpt>
      <trkpt lat="45.05999" lon="6.44078">
        <ele>3008.4032</ele>
        <time>2010-01-01T00:59:27Z</time>
      </trkpt>
      <trkpt lat="45.06001" lon="6.44085">
        <ele>3010.3016</ele>
        <time>2010-01-01T00:59:30Z</time>
      </trkpt>
      <trkpt lat="45.06006" lon="6.44084">
        <ele>3011.8508</ele>
        <time>2010-01-01T00:59:32Z</time>
      </trkpt>
      <trkpt lat="45.06011" lon="6.44089">
        <ele>3012</ele>
        <time>2010-01-01T00:59:34Z</time>
      </trkpt>
      <trkpt lat="45.06016" lon="6.44095">
        <ele>3012</ele>
        <time>2010-01-01T00:59:37Z</time>
      </trkpt>
      <trkpt lat="45.0602" lon="6.44097">
        <ele>3013.3016</ele>
        <time>2010-01-01T00:59:38Z</time>
      </trkpt>
      <trkpt lat="45.06021" lon="6.44091">
        <ele>3014</ele>
        <time>2010-01-01T00:59:40Z</time>
      </trkpt>
      <trkpt lat="45.06019" lon="6.44082">
        <ele>3014.6508</ele>
        <time>2010-01-01T00:59:43Z</time>
      </trkpt>
      <trkpt lat="45.06023" lon="6.4407">
        <ele>3016.5016</ele>
        <time>2010-01-01T00:59:47Z</time>
      </trkpt>
      <trkpt lat="45.06027" lon="6.44056">
        <ele>3017.6992</ele>
        <time>2010-01-01T00:59:51Z</time>
      </trkpt>
      <trkpt lat="45.06023" lon="6.44042">
        <ele>3014</ele>
        <time>2010-01-01T00:59:55Z</time>
      </trkpt>
      <trkpt lat="45.06023" lon="6.44027">
        <ele>3009.5491</ele>
        <time>2010-01-01T00:59:59Z</time>
      </trkpt>
      <trkpt lat="45.06033" lon="6.44019">
        <ele>3007.8983</ele>
        <time>2010-01-01T01:00:04Z</time>
      </trkpt>
      <trkpt lat="45.06041" lon="6.44009">
        <ele>3005.2475</ele>
        <time>2010-01-01T01:00:08Z</time>
      </trkpt>
      <trkpt lat="45.06042" lon="6.43994">
        <ele>3008.8032</ele>
        <time>2010-01-01T01:00:13Z</time>
      </trkpt>
      <trkpt lat="45.06051" lon="6.43982">
        <ele>3013.9016</ele>
        <time>2010-01-01T01:00:17Z</time>
      </trkpt>
      <trkpt lat="45.06061" lon="6.43974">
        <ele>3019.9016</ele>
        <time>2010-01-01T01:00:22Z</time>
      </trkpt>
      <trkpt lat="45.06068" lon="6.4396">
        <ele>3022.2032</ele>
        <time>2010-01-01T01:00:27Z</time>
      </trkpt>
      <trkpt lat="45.06073" lon="6.43947">
        <ele>3027.3016</ele>
        <time>2010-01-01T01:00:31Z</time>
      </trkpt>
      <trkpt lat="45.06078" lon="6.43932">
        <ele>3030.5524</ele>
        <time>2010-01-01T01:00:36Z</time>
      </trkpt>
      <trkpt lat="45.06087" lon="6.43924">
        <ele>3035</ele>
        <time>2010-01-01T01:00:40Z</time>
      </trkpt>
      <trkpt lat="45.06087" lon="6.43907">
        <ele>3031.7459</ele>
        <time>2010-01-01T01:00:45Z</time>
      </trkpt>
      <trkpt lat="45.06097" lon="6.43898">
        <ele>3029.1491</ele>
        <time>2010-01-01T01:00:49Z</time>
      </trkpt>
      <trkpt lat="45.06105" lon="6.4389">
        <ele>3032.7016</ele>
        <time>2010-01-01T01:00:53Z</time>
      </trkpt>
      <trkpt lat="45.0611" lon="6.43874">
        <ele>3038.4032</ele>
        <time>2010-01-01T01:00:58Z</time>
      </trkpt>
      <trkpt lat="45.06118" lon="6.43865">
        <ele>3044.7016</ele>
        <time>2010-01-01T01:01:02Z</time>
      </trkpt>
      <trkpt lat="45.06122" lon="6.43854">
        <ele>3048.4508</ele>
        <time>2010-01-01T01:01:06Z</time>
      </trkpt>
      <trkpt lat="45.06127" lon="6.43842">
        <ele>3049</ele>
        <time>2010-01-01T01:01:09Z</time>
      </trkpt>
      <trkpt lat="45.06128" lon="6.43831">
        <ele>3055.1524</ele>
        <time>2010-01-01T01:01:13Z</time>
      </trkpt>
      <trkpt lat="45.06139" lon="6.43833">
        <ele>3058</ele>
        <time>2010-01-01T01:01:17Z</time>
      </trkpt>
      <trkpt lat="45.06148" lon="6.43835">
        <ele>3062.4983</ele>
        <time>2010-01-01T01:01:20Z</time>
      </trkpt>
      <trkpt lat="45.06157" lon="6.43825">
        <ele>3071.5491</ele>
        <time>2010-01-01T01:01:25Z</time>
      </trkpt>
      <trkpt lat="45.06164" lon="6.43817">
        <ele>3074.3491</ele>
        <time>2010-01-01T01:01:29Z</time>
      </trkpt>
      <trkpt lat="45.0617" lon="6.43804">
        <ele>3077.5524</ele>
        <time>2010-01-01T01:01:33Z</time>
      </trkpt>
      <trkpt lat="45.06175" lon="6.43792">
        <ele>3080</ele>
        <time>2010-01-01T01:01:37Z</time>
      </trkpt>
      <trkpt lat="45.06178" lon="6.43779">
        <ele>3080.0032</ele>
        <time>2010-01-01T01:01:41Z</time>
      </trkpt>
      <trkpt lat="45.06187" lon="6.43767">
        <ele>3083.6983</ele>
        <time>2010-01-01T01:01:46Z</time>
      </trkpt>
      <trkpt lat="45.06197" lon="6.43768">
        <ele>3084.254</ele>
        <time>2010-01-01T01:01:50Z</time>
      </trkpt>
      <trkpt lat="45.06199" lon="6.43785">
        <ele>3101.1048</ele>
        <time>2010-01-01T01:01:55Z</time>
      </trkpt>
      <trkpt lat="45.06195" lon="6.43771">
        <ele>3102.8475</ele>
        <time>2010-01-01T01:01:59Z</time>
      </trkpt>
      <trkpt lat="45.06195" lon="6.43753">
        <ele>3091</ele>
        <time>2010-01-01T01:02:04Z</time>
      </trkpt>
      <trkpt lat="45.06204" lon="6.43742">
        <ele>3091.0985</ele>
        <time>2010-01-01T01:02:08Z</time>
      </trkpt>
      <trkpt lat="45.0621" lon="6.43732">
        <ele>3088.1016</ele>
        <time>2010-01-01T01:02:12Z</time>
      </trkpt>
      <trkpt lat="45.06214" lon="6.43722">
        <ele>3099.1016</ele>
        <time>2010-01-01T01:02:16Z</time>
      </trkpt>
      <trkpt lat="45.06225" lon="6.43714">
        <ele>3099.1016</ele>
        <time>2010-01-01T01:02:21Z</time>
      </trkpt>
      <trkpt lat="45.06229" lon="6.437">
        <ele>3102</ele>
        <time>2010-01-01T01:02:25Z</time>
      </trkpt>
      <trkpt lat="45.0624" lon="6.43694">
        <ele>3109.1524</ele>
        <time>2010-01-01T01:02:29Z</time>
      </trkpt>
      <trkpt lat="45.06242" lon="6.43681">
        <ele>3113.0508</ele>
        <time>2010-01-01T01:02:33Z</time>
      </trkpt>
      <trkpt lat="45.06244" lon="6.43666">
        <ele>3114</ele>
        <time>2010-01-01T01:02:38Z</time>
      </trkpt>
      <trkpt lat="45.06242" lon="6.43648">
        <ele>3113.1493</ele>
        <time>2010-01-01T01:02:43Z</time>
      </trkpt>
      <trkpt lat="45.06249" lon="6.43638">
        <ele>3114</ele>
        <time>2010-01-01T01:02:47Z</time>
      </trkpt>
      <trkpt lat="45.06259" lon="6.4363">
        <ele>3117.9016</ele>
        <time>2010-01-01T01:02:51Z</time>
      </trkpt>
      <trkpt lat="45.06267" lon="6.43621">
        <ele>3121.9491</ele>
        <time>2010-01-01T01:02:55Z</time>
      </trkpt>
      <trkpt lat="45.06271" lon="6.43607">
        <ele>3123</ele>
        <time>2010-01-01T01:02:59Z</time>
      </trkpt>
      <trkpt lat="45.06281" lon="6.436">
        <ele>3118.5524</ele>
        <time>2010-01-01T01:03:04Z</time>
      </trkpt>
      <trkpt lat="45.06289" lon="6.43591">
        <ele>3120.7499</ele>
        <time>2010-01-01T01:03:08Z</time>
      </trkpt>
      <trkpt lat="45.06299" lon="6.43596">
        <ele>3130.0983</ele>
        <time>2010-01-01T01:03:12Z</time>
      </trkpt>
      <trkpt lat="45.06309" lon="6.43596">
        <ele>3128.8032</ele>
        <time>2010-01-01T01:03:16Z</time>
      </trkpt>
      <trkpt lat="45.06311" lon="6.43582">
        <ele>3136.1016</ele>
        <time>2010-01-01T01:03:20Z</time>
      </trkpt>
      <trkpt lat="45.06313" lon="6.43564">
        <ele>3138.0008</ele>
        <time>2010-01-01T01:03:25Z</time>
      </trkpt>
      <trkpt lat="45.06322" lon="6.43558">
        <ele>3175.2018</ele>
        <time>2010-01-01T01:03:29Z</time>
      </trkpt>
      <trkpt lat="45.06326" lon="6.43571">
        <ele>3171.1215</ele>
        <time>2010-01-01T01:03:33Z</time>
      </trkpt>
      <trkpt lat="45.06318" lon="6.43564">
        <ele>3176.027</ele>
        <time>2010-01-01T01:03:37Z</time>
      </trkpt>
      <trkpt lat="45.06313" lon="6.43577">
        <ele>3172.9172</ele>
        <time>2010-01-01T01:03:41Z</time>
      </trkpt>
      <trkpt lat="45.06325" lon="6.4358">
        <ele>3155.4608</ele>
        <time>2010-01-01T01:03:46Z</time>
      </trkpt>
      <trkpt lat="45.06314" lon="6.43573">
        <ele>3160.9636</ele>
        <time>2010-01-01T01:03:51Z</time>
      </trkpt>
      <trkpt lat="45.06303" lon="6.43571">
        <ele>3169.8983</ele>
        <time>2010-01-01T01:03:55Z</time>
      </trkpt>
      <trkpt lat="45.06313" lon="6.43568">
        <ele>3168</ele>
        <time>2010-01-01T01:03:59Z</time>
      </trkpt>
      <trkpt lat="45.06316" lon="6.43553">
        <ele>3165.0499</ele>
        <time>2010-01-01T01:04:04Z</time>
      </trkpt>
      <trkpt lat="45.0631" lon="6.43564">
        <ele>3168.6393</ele>
        <time>2010-01-01T01:04:08Z</time>
      </trkpt>
      <trkpt lat="45.06313" lon="6.43579">
        <ele>3169.2508</ele>
        <time>2010-01-01T01:04:12Z</time>
      </trkpt>
      <trkpt lat="45.06302" lon="6.43575">
        <ele>3167.7692</ele>
        <time>2010-01-01T01:04:17Z</time>
      </trkpt>
      <trkpt lat="45.06292" lon="6.4358">
        <ele>3167</ele>
        <time>2010-01-01T01:04:21Z</time>
      </trkpt>
      <trkpt lat="45.06295" lon="6.43594">
        <ele>3156.9512</ele>
        <time>2010-01-01T01:04:25Z</time>
      </trkpt>
      <trkpt lat="45.06284" lon="6.43588">
        <ele>3154.5967</ele>
        <time>2010-01-01T01:04:30Z</time>
      </trkpt>
      <trkpt lat="45.06279" lon="6.43601">
        <ele>3152.7459</ele>
        <time>2010-01-01T01:04:34Z</time>
      </trkpt>
      <trkpt lat="45.06271" lon="6.43586">
        <ele>3144.6983</ele>
        <time>2010-01-01T01:04:39Z</time>
      </trkpt>
      <trkpt lat="45.06268" lon="6.43572">
        <ele>3140.5979</ele>
        <time>2010-01-01T01:04:43Z</time>
      </trkpt>
      <trkpt lat="45.06276" lon="6.43563">
        <ele>3136</ele>
        <time>2010-01-01T01:04:47Z</time>
      </trkpt>
      <trkpt lat="45.06285" lon="6.43558">
        <ele>3142</ele>
        <time>2010-01-01T01:04:51Z</time>
      </trkpt>
      <trkpt lat="45.06276" lon="6.43547">
        <ele>3144.6945</ele>
        <time>2010-01-01T01:04:56Z</time>
      </trkpt>
      <trkpt lat="45.06268" lon="6.43556">
        <ele>3130.0973</ele>
        <time>2010-01-01T01:05:00Z</time>
      </trkpt>
      <trkpt lat="45.06279" lon="6.43564">
        <ele>3132.3016</ele>
        <time>2010-01-01T01:05:05Z</time>
      </trkpt>
      <trkpt lat="45.06288" lon="6.43557">
        <ele>3135.9016</ele>
        <time>2010-01-01T01:05:09Z</time>
      </trkpt>
      <trkpt lat="45.06277" lon="6.43554">
        <ele>3138.8475</ele>
        <time>2010-01-01T01:05:13Z</time>
      </trkpt>
      <trkpt lat="45.06287" lon="6.43554">
        <ele>3143.254</ele>
        <time>2010-01-01T01:05:17Z</time>
      </trkpt>
      <trkpt lat="45.06284" lon="6.43539">
        <ele>3157.254</ele>
        <time>2010-01-01T01:05:22Z</time>
      </trkpt>
      <trkpt lat="45.06275" lon="6.4355">
        <ele>3144.4508</ele>
        <time>2010-01-01T01:05:27Z</time>
      </trkpt>
      <trkpt lat="45.06282" lon="6.43549">
        <ele>3142</ele>
        <time>2010-01-01T01:05:29Z</time>
      </trkpt>
      <trkpt lat="45.06271" lon="6.43553">
        <ele>3139.3592</ele>
        <time>2010-01-01T01:05:34Z</time>
      </trkpt>
      <trkpt lat="45.0628" lon="6.43542">
        <ele>3148.0032</ele>
        <time>2010-01-01T01:05:39Z</time>
      </trkpt>
      <trkpt lat="45.06271" lon="6.43555">
        <ele>3151.6472</ele>
        <time>2010-01-01T01:05:43Z</time>
      </trkpt>
      <trkpt lat="45.06266" lon="6.43574">
        <ele>3151</ele>
        <time>2010-01-01T01:05:49Z</time>
      </trkpt>
      <trkpt lat="45.0626" lon="6.43587">
        <ele>3152.9524</ele>
        <time>2010-01-01T01:05:54Z</time>
      </trkpt>
      <trkpt lat="45.06255" lon="6.43602">
        <ele>3153.1491</ele>
        <time>2010-01-01T01:05:58Z</time>
      </trkpt>
      <trkpt lat="45.06254" lon="6.43625">
        <ele>3152</ele>
        <time>2010-01-01T01:06:05Z</time>
      </trkpt>
      <trkpt lat="45.0625" lon="6.43641">
        <ele>3151.3491</ele>
        <time>2010-01-01T01:06:10Z</time>
      </trkpt>
      <trkpt lat="45.0625" lon="6.43656">
        <ele>3150.1491</ele>
        <time>2010-01-01T01:06:14Z</time>
      </trkpt>
      <trkpt lat="45.06248" lon="6.43671">
        <ele>3144.7935</ele>
        <time>2010-01-01T01:06:18Z</time>
      </trkpt>
      <trkpt lat="45.06241" lon="6.43684">
        <ele>3137.7459</ele>
        <time>2010-01-01T01:06:23Z</time>
      </trkpt>
      <trkpt lat="45.06236" lon="6.43697">
        <ele>3134.6475</ele>
        <time>2010-01-01T01:06:27Z</time>
      </trkpt>
      <trkpt lat="45.06232" lon="6.43711">
        <ele>3125.4983</ele>
        <time>2010-01-01T01:06:32Z</time>
      </trkpt>
      <trkpt lat="45.0623" lon="6.43725">
        <ele>3117.8475</ele>
        <time>2010-01-01T01:06:35Z</time>
      </trkpt>
      <trkpt lat="45.06222" lon="6.43735">
        <ele>3110.4478</ele>
        <time>2010-01-01T01:06:40Z</time>
      </trkpt>
      <trkpt lat="45.06215" lon="6.43748">
        <ele>3105.4475</ele>
        <time>2010-01-01T01:06:44Z</time>
      </trkpt>
      <trkpt lat="45.06209" lon="6.43761">
        <ele>3103.8983</ele>
        <time>2010-01-01T01:06:49Z</time>
      </trkpt>
      <trkpt lat="45.06198" lon="6.43764">
        <ele>3098.3967</ele>
        <time>2010-01-01T01:06:53Z</time>
      </trkpt>
      <trkpt lat="45.06191" lon="6.43773">
        <ele>3095.2983</ele>
        <time>2010-01-01T01:06:57Z</time>
      </trkpt>
      <trkpt lat="45.06183" lon="6.43778">
        <ele>3091.6475</ele>
        <time>2010-01-01T01:07:00Z</time>
      </trkpt>
      <trkpt lat="45.06175" lon="6.43789">
        <ele>3087.2983</ele>
        <time>2010-01-01T01:07:05Z</time>
      </trkpt>
      <trkpt lat="45.06173" lon="6.43803">
        <ele>3083.1967</ele>
        <time>2010-01-01T01:07:09Z</time>
      </trkpt>
      <trkpt lat="45.06168" lon="6.43812">
        <ele>3079.6983</ele>
        <time>2010-01-01T01:07:12Z</time>
      </trkpt>
      <trkpt lat="45.06161" lon="6.43828">
        <ele>3076.6983</ele>
        <time>2010-01-01T01:07:18Z</time>
      </trkpt>
      <trkpt lat="45.06151" lon="6.43842">
        <ele>3071.7459</ele>
        <time>2010-01-01T01:07:23Z</time>
      </trkpt>
      <trkpt lat="45.06141" lon="6.43842">
        <ele>3068.1491</ele>
        <time>2010-01-01T01:07:27Z</time>
      </trkpt>
      <trkpt lat="45.06132" lon="6.43838">
        <ele>3065.2983</ele>
        <time>2010-01-01T01:07:31Z</time>
      </trkpt>
      <trkpt lat="45.06129" lon="6.43847">
        <ele>3061.6475</ele>
        <time>2010-01-01T01:07:33Z</time>
      </trkpt>
      <trkpt lat="45.06125" lon="6.43861">
        <ele>3057.8475</ele>
        <time>2010-01-01T01:07:38Z</time>
      </trkpt>
      <trkpt lat="45.06118" lon="6.43873">
        <ele>3055.4475</ele>
        <time>2010-01-01T01:07:42Z</time>
      </trkpt>
      <trkpt lat="45.06106" lon="6.43883">
        <ele>3053.0475</ele>
        <time>2010-01-01T01:07:48Z</time>
      </trkpt>
      <trkpt lat="45.06102" lon="6.43896">
        <ele>3052</ele>
        <time>2010-01-01T01:07:52Z</time>
      </trkpt>
      <trkpt lat="45.06095" lon="6.43908">
        <ele>3047.8475</ele>
        <time>2010-01-01T01:07:56Z</time>
      </trkpt>
      <trkpt lat="45.06091" lon="6.43916">
        <ele>3045.377</ele>
        <time>2010-01-01T01:07:59Z</time>
      </trkpt>
      <trkpt lat="45.06091" lon="6.43926">
        <ele>3044.3389</ele>
        <time>2010-01-01T01:08:02Z</time>
      </trkpt>
      <trkpt lat="45.06087" lon="6.4394">
        <ele>3043.439</ele>
        <time>2010-01-01T01:08:06Z</time>
      </trkpt>
      <trkpt lat="45.06085" lon="6.43954">
        <ele>3039.2522</ele>
        <time>2010-01-01T01:08:10Z</time>
      </trkpt>
      <trkpt lat="45.06081" lon="6.43967">
        <ele>3032.2406</ele>
        <time>2010-01-01T01:08:14Z</time>
      </trkpt>
      <trkpt lat="45.06073" lon="6.43976">
        <ele>3031.3169</ele>
        <time>2010-01-01T01:08:18Z</time>
      </trkpt>
      <trkpt lat="45.0606" lon="6.4398">
        <ele>3032.766</ele>
        <time>2010-01-01T01:08:23Z</time>
      </trkpt>
      <trkpt lat="45.0605" lon="6.43991">
        <ele>3029.4339</ele>
        <time>2010-01-01T01:08:28Z</time>
      </trkpt>
      <trkpt lat="45.06041" lon="6.44">
        <ele>3014.5119</ele>
        <time>2010-01-01T01:08:33Z</time>
      </trkpt>
      <trkpt lat="45.06031" lon="6.44014">
        <ele>3006.1187</ele>
        <time>2010-01-01T01:08:39Z</time>
      </trkpt>
      <trkpt lat="45.06021" lon="6.44014">
        <ele>2998.9119</ele>
        <time>2010-01-01T01:08:43Z</time>
      </trkpt>
      <trkpt lat="45.06013" lon="6.44021">
        <ele>2997</ele>
        <time>2010-01-01T01:08:47Z</time>
      </trkpt>
      <trkpt lat="45.05998" lon="6.44022">
        <ele>2996.0811</ele>
        <time>2010-01-01T01:08:52Z</time>
      </trkpt>
      <trkpt lat="45.0599" lon="6.44033">
        <ele>2994.6378</ele>
        <time>2010-01-01T01:08:57Z</time>
      </trkpt>
      <trkpt lat="45.05989" lon="6.44049">
        <ele>2978.6743</ele>
        <time>2010-01-01T01:09:02Z</time>
      </trkpt>
      <trkpt lat="45.0598" lon="6.44057">
        <ele>2971.7518</ele>
        <time>2010-01-01T01:09:06Z</time>
      </trkpt>
      <trkpt lat="45.05969" lon="6.44062">
        <ele>2965.8592</ele>
        <time>2010-01-01T01:09:11Z</time>
      </trkpt>
      <trkpt lat="45.05959" lon="6.44068">
        <ele>2941.3899</ele>
        <time>2010-01-01T01:09:15Z</time>
      </trkpt>
      <trkpt lat="45.05947" lon="6.44065">
        <ele>2944.9624</ele>
        <time>2010-01-01T01:09:20Z</time>
      </trkpt>
      <trkpt lat="45.05934" lon="6.44065">
        <ele>2949.407</ele>
        <time>2010-01-01T01:09:25Z</time>
      </trkpt>
      <trkpt lat="45.0592" lon="6.4407">
        <ele>2958.1221</ele>
        <time>2010-01-01T01:09:31Z</time>
      </trkpt>
      <trkpt lat="45.05909" lon="6.44074">
        <ele>2960.8218</ele>
        <time>2010-01-01T01:09:35Z</time>
      </trkpt>
      <trkpt lat="45.05899" lon="6.44076">
        <ele>2961</ele>
        <time>2010-01-01T01:09:39Z</time>
      </trkpt>
      <trkpt lat="45.05885" lon="6.44084">
        <ele>2960.0345</ele>
        <time>2010-01-01T01:09:46Z</time>
      </trkpt>
      <trkpt lat="45.05875" lon="6.44091">
        <ele>2955.5929</ele>
        <time>2010-01-01T01:09:50Z</time>
      </trkpt>
      <trkpt lat="45.05862" lon="6.44103">
        <ele>2944.208</ele>
        <time>2010-01-01T01:09:56Z</time>
      </trkpt>
      <trkpt lat="45.05847" lon="6.44103">
        <ele>2924.9518</ele>
        <time>2010-01-01T01:10:02Z</time>
      </trkpt>
      <trkpt lat="45.05842" lon="6.4409">
        <ele>2911.5929</ele>
        <time>2010-01-01T01:10:06Z</time>
      </trkpt>
      <trkpt lat="45.05834" lon="6.44078">
        <ele>2923.406</ele>
        <time>2010-01-01T01:10:11Z</time>
      </trkpt>
      <trkpt lat="45.05821" lon="6.44076">
        <ele>2934.5684</ele>
        <time>2010-01-01T01:10:16Z</time>
      </trkpt>
      <trkpt lat="45.05832" lon="6.4407">
        <ele>2926.2743</ele>
        <time>2010-01-01T01:10:21Z</time>
      </trkpt>
      <trkpt lat="45.05837" lon="6.44082">
        <ele>2927.6058</ele>
        <time>2010-01-01T01:10:25Z</time>
      </trkpt>
      <trkpt lat="45.05824" lon="6.4408">
        <ele>2938.1954</ele>
        <time>2010-01-01T01:10:30Z</time>
      </trkpt>
      <trkpt lat="45.05814" lon="6.44086">
        <ele>2929.1954</ele>
        <time>2010-01-01T01:10:35Z</time>
      </trkpt>
      <trkpt lat="45.05806" lon="6.44096">
        <ele>2929.8609</ele>
        <time>2010-01-01T01:10:39Z</time>
      </trkpt>
      <trkpt lat="45.05796" lon="6.441">
        <ele>2929.239</ele>
        <time>2010-01-01T01:10:43Z</time>
      </trkpt>
      <trkpt lat="45.0578" lon="6.44093">
        <ele>2932.3175</ele>
        <time>2010-01-01T01:10:50Z</time>
      </trkpt>
      <trkpt lat="45.05771" lon="6.44084">
        <ele>2923.4736</ele>
        <time>2010-01-01T01:10:54Z</time>
      </trkpt>
      <trkpt lat="45.05757" lon="6.44076">
        <ele>2908.5929</ele>
        <time>2010-01-01T01:11:00Z</time>
      </trkpt>
      <trkpt lat="45.05748" lon="6.44069">
        <ele>2905.3591</ele>
        <time>2010-01-01T01:11:05Z</time>
      </trkpt>
      <trkpt lat="45.05737" lon="6.44062">
        <ele>2903.9184</ele>
        <time>2010-01-01T01:11:10Z</time>
      </trkpt>
      <trkpt lat="45.05732" lon="6.44041">
        <ele>2899.915</ele>
        <time>2010-01-01T01:11:16Z</time>
      </trkpt>
      <trkpt lat="45.05723" lon="6.44032">
        <ele>2884.3736</ele>
        <time>2010-01-01T01:11:20Z</time>
      </trkpt>
      <trkpt lat="45.05722" lon="6.44016">
        <ele>2868.4743</ele>
        <time>2010-01-01T01:11:25Z</time>
      </trkpt>
      <trkpt lat="45.05711" lon="6.44019">
        <ele>2883.7406</ele>
        <time>2010-01-01T01:11:29Z</time>
      </trkpt>
      <trkpt lat="45.057" lon="6.44027">
        <ele>2884</ele>
        <time>2010-01-01T01:11:34Z</time>
      </trkpt>
      <trkpt lat="45.05705" lon="6.44013">
        <ele>2883</ele>
        <time>2010-01-01T01:11:38Z</time>
      </trkpt>
      <trkpt lat="45.05703" lon="6.44028">
        <ele>2886</ele>
        <time>2010-01-01T01:11:43Z</time>
      </trkpt>
      <trkpt lat="45.05696" lon="6.44044">
        <ele>2885.2389</ele>
        <time>2010-01-01T01:11:48Z</time>
      </trkpt>
      <trkpt lat="45.05684" lon="6.44049">
        <ele>2887.3187</ele>
        <time>2010-01-01T01:11:53Z</time>
      </trkpt>
      <trkpt lat="45.05674" lon="6.44047">
        <ele>2886</ele>
        <time>2010-01-01T01:11:57Z</time>
      </trkpt>
      <trkpt lat="45.05664" lon="6.44051">
        <ele>2885.6389</ele>
        <time>2010-01-01T01:12:01Z</time>
      </trkpt>
      <trkpt lat="45.05647" lon="6.44072">
        <ele>2885</ele>
        <time>2010-01-01T01:12:10Z</time>
      </trkpt>
      <trkpt lat="45.05641" lon="6.44092">
        <ele>2884.3185</ele>
        <time>2010-01-01T01:12:16Z</time>
      </trkpt>
      <trkpt lat="45.05649" lon="6.44102">
        <ele>2883</ele>
        <time>2010-01-01T01:12:21Z</time>
      </trkpt>
      <trkpt lat="45.05634" lon="6.44116">
        <ele>2881.9776</ele>
        <time>2010-01-01T01:12:28Z</time>
      </trkpt>
      <trkpt lat="45.0563" lon="6.44134">
        <ele>2880.5407</ele>
        <time>2010-01-01T01:12:33Z</time>
      </trkpt>
      <trkpt lat="45.05629" lon="6.44149">
        <ele>2881.7218</ele>
        <time>2010-01-01T01:12:37Z</time>
      </trkpt>
      <trkpt lat="45.05626" lon="6.44167">
        <ele>2885.2035</ele>
        <time>2010-01-01T01:12:42Z</time>
      </trkpt>
      <trkpt lat="45.05622" lon="6.44184">
        <ele>2888</ele>
        <time>2010-01-01T01:12:48Z</time>
      </trkpt>
      <trkpt lat="45.05616" lon="6.44197">
        <ele>2892.7035</ele>
        <time>2010-01-01T01:12:52Z</time>
      </trkpt>
      <trkpt lat="45.05616" lon="6.44213">
        <ele>2890.4778</ele>
        <time>2010-01-01T01:12:56Z</time>
      </trkpt>
      <trkpt lat="45.05608" lon="6.44234">
        <ele>2886.2964</ele>
        <time>2010-01-01T01:13:03Z</time>
      </trkpt>
      <trkpt lat="45.05604" lon="6.44248">
        <ele>2888.8442</ele>
        <time>2010-01-01T01:13:07Z</time>
      </trkpt>
      <trkpt lat="45.05604" lon="6.44262">
        <ele>2892.6221</ele>
        <time>2010-01-01T01:13:11Z</time>
      </trkpt>
      <trkpt lat="45.05611" lon="6.44278">
        <ele>2898.839</ele>
        <time>2010-01-01T01:13:17Z</time>
      </trkpt>
      <trkpt lat="45.05615" lon="6.44295">
        <ele>2890.4221</ele>
        <time>2010-01-01T01:13:22Z</time>
      </trkpt>
      <trkpt lat="45.05624" lon="6.44306">
        <ele>2904.8371</ele>
        <time>2010-01-01T01:13:27Z</time>
      </trkpt>
      <trkpt lat="45.05618" lon="6.44322">
        <ele>2901.2779</ele>
        <time>2010-01-01T01:13:32Z</time>
      </trkpt>
      <trkpt lat="45.05623" lon="6.44335">
        <ele>2896.3557</ele>
        <time>2010-01-01T01:13:36Z</time>
      </trkpt>
      <trkpt lat="45.05612" lon="6.44335">
        <ele>2904.2743</ele>
        <time>2010-01-01T01:13:40Z</time>
      </trkpt>
      <trkpt lat="45.05613" lon="6.44356">
        <ele>2884.7988</ele>
        <time>2010-01-01T01:13:46Z</time>
      </trkpt>
      <trkpt lat="45.05611" lon="6.44372">
        <ele>2883.6016</ele>
        <time>2010-01-01T01:13:51Z</time>
      </trkpt>
      <trkpt lat="45.05612" lon="6.44388">
        <ele>2893.2738</ele>
        <time>2010-01-01T01:13:55Z</time>
      </trkpt>
      <trkpt lat="45.05605" lon="6.44403">
        <ele>2897.7035</ele>
        <time>2010-01-01T01:14:00Z</time>
      </trkpt>
      <trkpt lat="45.05596" lon="6.44411">
        <ele>2899</ele>
        <time>2010-01-01T01:14:05Z</time>
      </trkpt>
      <trkpt lat="45.05583" lon="6.44422">
        <ele>2898.3185</ele>
        <time>2010-01-01T01:14:11Z</time>
      </trkpt>
      <trkpt lat="45.05575" lon="6.44435">
        <ele>2897.1407</ele>
        <time>2010-01-01T01:14:16Z</time>
      </trkpt>
      <trkpt lat="45.05575" lon="6.44421">
        <ele>2898.322</ele>
        <time>2010-01-01T01:14:20Z</time>
      </trkpt>
      <trkpt lat="45.05573" lon="6.44435">
        <ele>2896.6954</ele>
        <time>2010-01-01T01:14:23Z</time>
      </trkpt>
      <trkpt lat="45.05572" lon="6.44456">
        <ele>2899.3045</ele>
        <time>2010-01-01T01:14:29Z</time>
      </trkpt>
      <trkpt lat="45.05581" lon="6.44462">
        <ele>2903.2035</ele>
        <time>2010-01-01T01:14:34Z</time>
      </trkpt>
      <trkpt lat="45.05585" lon="6.44479">
        <ele>2903.2371</ele>
        <time>2010-01-01T01:14:38Z</time>
      </trkpt>
      <trkpt lat="45.05588" lon="6.44495">
        <ele>2901.6407</ele>
        <time>2010-01-01T01:14:43Z</time>
      </trkpt>
      <trkpt lat="45.05586" lon="6.44511">
        <ele>2902.0371</ele>
        <time>2010-01-01T01:14:48Z</time>
      </trkpt>
      <trkpt lat="45.05588" lon="6.44531">
        <ele>2899</ele>
        <time>2010-01-01T01:14:54Z</time>
      </trkpt>
      <trkpt lat="45.05598" lon="6.44547">
        <ele>2899.2406</ele>
        <time>2010-01-01T01:15:00Z</time>
      </trkpt>
      <trkpt lat="45.05594" lon="6.44562">
        <ele>2898.6778</ele>
        <time>2010-01-01T01:15:04Z</time>
      </trkpt>
      <trkpt lat="45.05593" lon="6.44577">
        <ele>2896.739</ele>
        <time>2010-01-01T01:15:09Z</time>
      </trkpt>
      <trkpt lat="45.05595" lon="6.44593">
        <ele>2896</ele>
        <time>2010-01-01T01:15:13Z</time>
      </trkpt>
      <trkpt lat="45.05606" lon="6.44604">
        <ele>2896.7218</ele>
        <time>2010-01-01T01:15:18Z</time>
      </trkpt>
      <trkpt lat="45.05617" lon="6.44615">
        <ele>2898.9187</ele>
        <time>2010-01-01T01:15:24Z</time>
      </trkpt>
      <trkpt lat="45.05621" lon="6.44634">
        <ele>2895.0751</ele>
        <time>2010-01-01T01:15:29Z</time>
      </trkpt>
      <trkpt lat="45.05615" lon="6.44647">
        <ele>2888.6339</ele>
        <time>2010-01-01T01:15:34Z</time>
      </trkpt>
      <trkpt lat="45.05608" lon="6.44666">
        <ele>2883.2339</ele>
        <time>2010-01-01T01:15:40Z</time>
      </trkpt>
      <trkpt lat="45.05597" lon="6.44682">
        <ele>2883</ele>
        <time>2010-01-01T01:15:46Z</time>
      </trkpt>
      <trkpt lat="45.05606" lon="6.44666">
        <ele>2888.8592</ele>
        <time>2010-01-01T01:15:52Z</time>
      </trkpt>
      <trkpt lat="45.05598" lon="6.44689">
        <ele>2880.9389</ele>
        <time>2010-01-01T01:15:59Z</time>
      </trkpt>
      <trkpt lat="45.0559" lon="6.44699">
        <ele>2876.4951</ele>
        <time>2010-01-01T01:16:03Z</time>
      </trkpt>
      <trkpt lat="45.05592" lon="6.44715">
        <ele>2873.3172</ele>
        <time>2010-01-01T01:16:08Z</time>
      </trkpt>
      <trkpt lat="45.05589" lon="6.44738">
        <ele>2873.3827</ele>
        <time>2010-01-01T01:16:15Z</time>
      </trkpt>
      <trkpt lat="45.05588" lon="6.44757">
        <ele>2875.7221</ele>
        <time>2010-01-01T01:16:20Z</time>
      </trkpt>
      <trkpt lat="45.05581" lon="6.44768">
        <ele>2877.0157</ele>
        <time>2010-01-01T01:16:24Z</time>
      </trkpt>
      <trkpt lat="45.05571" lon="6.44784">
        <ele>2869.6172</ele>
        <time>2010-01-01T01:16:30Z</time>
      </trkpt>
      <trkpt lat="45.0556" lon="6.44798">
        <ele>2866.9169</ele>
        <time>2010-01-01T01:16:36Z</time>
      </trkpt>
      <trkpt lat="45.05554" lon="6.44813">
        <ele>2864.739</ele>
        <time>2010-01-01T01:16:41Z</time>
      </trkpt>
      <trkpt lat="45.05552" lon="6.44834">
        <ele>2863.839</ele>
        <time>2010-01-01T01:16:47Z</time>
      </trkpt>
      <trkpt lat="45.05554" lon="6.4485">
        <ele>2863.0592</ele>
        <time>2010-01-01T01:16:52Z</time>
      </trkpt>
      <trkpt lat="45.05551" lon="6.44866">
        <ele>2861.3185</ele>
        <time>2010-01-01T01:16:56Z</time>
      </trkpt>
      <trkpt lat="45.05553" lon="6.44881">
        <ele>2860.3593</ele>
        <time>2010-01-01T01:17:01Z</time>
      </trkpt>
      <trkpt lat="45.05558" lon="6.44894">
        <ele>2861.3827</ele>
        <time>2010-01-01T01:17:05Z</time>
      </trkpt>
      <trkpt lat="45.05572" lon="6.44896">
        <ele>2866.9185</ele>
        <time>2010-01-01T01:17:11Z</time>
      </trkpt>
      <trkpt lat="45.05562" lon="6.44896">
        <ele>2861.9563</ele>
        <time>2010-01-01T01:17:15Z</time>
      </trkpt>
      <trkpt lat="45.05562" lon="6.4491">
        <ele>2853.1563</ele>
        <time>2010-01-01T01:17:19Z</time>
      </trkpt>
      <trkpt lat="45.05561" lon="6.44926">
        <ele>2850.2781</ele>
        <time>2010-01-01T01:17:23Z</time>
      </trkpt>
      <trkpt lat="45.05554" lon="6.44941">
        <ele>2850.9221</ele>
        <time>2010-01-01T01:17:28Z</time>
      </trkpt>
      <trkpt lat="45.05553" lon="6.44957">
        <ele>2852.4609</ele>
        <time>2010-01-01T01:17:33Z</time>
      </trkpt>
      <trkpt lat="45.05548" lon="6.44974">
        <ele>2851.0172</ele>
        <time>2010-01-01T01:17:38Z</time>
      </trkpt>
      <trkpt lat="45.05544" lon="6.44987">
        <ele>2843.9736</ele>
        <time>2010-01-01T01:17:42Z</time>
      </trkpt>
      <trkpt lat="45.05533" lon="6.44992">
        <ele>2835.3909</ele>
        <time>2010-01-01T01:17:46Z</time>
      </trkpt>
      <trkpt lat="45.05523" lon="6.44999">
        <ele>2826.2736</ele>
        <time>2010-01-01T01:17:51Z</time>
      </trkpt>
      <trkpt lat="45.05521" lon="6.45016">
        <ele>2826</ele>
        <time>2010-01-01T01:17:56Z</time>
      </trkpt>
      <trkpt lat="45.05513" lon="6.45031">
        <ele>2822.2183</ele>
        <time>2010-01-01T01:18:01Z</time>
      </trkpt>
      <trkpt lat="45.05507" lon="6.45045">
        <ele>2821.5827</ele>
        <time>2010-01-01T01:18:06Z</time>
      </trkpt>
      <trkpt lat="45.05498" lon="6.45052">
        <ele>2817.515</ele>
        <time>2010-01-01T01:18:10Z</time>
      </trkpt>
      <trkpt lat="45.05494" lon="6.45065">
        <ele>2813.3778</ele>
        <time>2010-01-01T01:18:14Z</time>
      </trkpt>
      <trkpt lat="45.0549" lon="6.45081">
        <ele>2808.2964</ele>
        <time>2010-01-01T01:18:19Z</time>
      </trkpt>
      <trkpt lat="45.05482" lon="6.45093">
        <ele>2804.4371</ele>
        <time>2010-01-01T01:18:23Z</time>
      </trkpt>
      <trkpt lat="45.05481" lon="6.4511">
        <ele>2802.039</ele>
        <time>2010-01-01T01:18:28Z</time>
      </trkpt>
      <trkpt lat="45.05477" lon="6.45124">
        <ele>2800.0592</ele>
        <time>2010-01-01T01:18:33Z</time>
      </trkpt>
      <trkpt lat="45.05469" lon="6.45138">
        <ele>2782.0736</ele>
        <time>2010-01-01T01:18:38Z</time>
      </trkpt>
      <trkpt lat="45.05479" lon="6.45157">
        <ele>2779</ele>
        <time>2010-01-01T01:18:44Z</time>
      </trkpt>
      <trkpt lat="45.05482" lon="6.45158">
        <ele>2782.9172</ele>
        <time>2010-01-01T01:18:45Z</time>
      </trkpt>
      <trkpt lat="45.05473" lon="6.45163">
        <ele>2778.9557</ele>
        <time>2010-01-01T01:18:49Z</time>
      </trkpt>
      <trkpt lat="45.05477" lon="6.45152">
        <ele>2762.6221</ele>
        <time>2010-01-01T01:18:53Z</time>
      </trkpt>
      <trkpt lat="45.05484" lon="6.45157">
        <ele>2772.3224</ele>
        <time>2010-01-01T01:18:56Z</time>
      </trkpt>
      <trkpt lat="45.05478" lon="6.45168">
        <ele>2772.6814</ele>
        <time>2010-01-01T01:19:00Z</time>
      </trkpt>
      <trkpt lat="45.05466" lon="6.45161">
        <ele>2764</ele>
        <time>2010-01-01T01:19:05Z</time>
      </trkpt>
      <trkpt lat="45.05456" lon="6.4516">
        <ele>2764.7407</ele>
        <time>2010-01-01T01:19:09Z</time>
      </trkpt>
      <trkpt lat="45.05454" lon="6.45174">
        <ele>2764.0592</ele>
        <time>2010-01-01T01:19:13Z</time>
      </trkpt>
      <trkpt lat="45.05451" lon="6.45187">
        <ele>2764</ele>
        <time>2010-01-01T01:19:17Z</time>
      </trkpt>
      <trkpt lat="45.05446" lon="6.45199">
        <ele>2761.1954</ele>
        <time>2010-01-01T01:19:21Z</time>
      </trkpt>
      <trkpt lat="45.05438" lon="6.45209">
        <ele>2756.1621</ele>
        <time>2010-01-01T01:19:25Z</time>
      </trkpt>
      <trkpt lat="45.05428" lon="6.45214">
        <ele>2751.2348</ele>
        <time>2010-01-01T01:19:29Z</time>
      </trkpt>
      <trkpt lat="45.05426" lon="6.45227">
        <ele>2748.5172</ele>
        <time>2010-01-01T01:19:33Z</time>
      </trkpt>
      <trkpt lat="45.05423" lon="6.4524">
        <ele>2746.1781</ele>
        <time>2010-01-01T01:19:37Z</time>
      </trkpt>
      <trkpt lat="45.05419" lon="6.45256">
        <ele>2743.7185</ele>
        <time>2010-01-01T01:19:42Z</time>
      </trkpt>
      <trkpt lat="45.05415" lon="6.45276">
        <ele>2739.7172</ele>
        <time>2010-01-01T01:19:47Z</time>
      </trkpt>
      <trkpt lat="45.05411" lon="6.45288">
        <ele>2737.3778</ele>
        <time>2010-01-01T01:19:51Z</time>
      </trkpt>
      <trkpt lat="45.05411" lon="6.45304">
        <ele>2735.6602</ele>
        <time>2010-01-01T01:19:56Z</time>
      </trkpt>
      <trkpt lat="45.05409" lon="6.45316">
        <ele>2734.0345</ele>
        <time>2010-01-01T01:19:59Z</time>
      </trkpt>
      <trkpt lat="45.05402" lon="6.45332">
        <ele>2727.4371</ele>
        <time>2010-01-01T01:20:05Z</time>
      </trkpt>
      <trkpt lat="45.05394" lon="6.45341">
        <ele>2724.2371</ele>
        <time>2010-01-01T01:20:09Z</time>
      </trkpt>
      <trkpt lat="45.05388" lon="6.4535">
        <ele>2723.2382</ele>
        <time>2010-01-01T01:20:12Z</time>
      </trkpt>
      <trkpt lat="45.05386" lon="6.45366">
        <ele>2722.4592</ele>
        <time>2010-01-01T01:20:17Z</time>
      </trkpt>
      <trkpt lat="45.05381" lon="6.45379">
        <ele>2721.3185</ele>
        <time>2010-01-01T01:20:21Z</time>
      </trkpt>
      <trkpt lat="45.05381" lon="6.45398">
        <ele>2719.839</ele>
        <time>2010-01-01T01:20:26Z</time>
      </trkpt>
      <trkpt lat="45.05376" lon="6.45409">
        <ele>2719.0592</ele>
        <time>2010-01-01T01:20:30Z</time>
      </trkpt>
      <trkpt lat="45.05376" lon="6.45426">
        <ele>2719</ele>
        <time>2010-01-01T01:20:35Z</time>
      </trkpt>
      <trkpt lat="45.05371" lon="6.45441">
        <ele>2719</ele>
        <time>2010-01-01T01:20:40Z</time>
      </trkpt>
      <trkpt lat="45.0537" lon="6.45454">
        <ele>2718.3185</ele>
        <time>2010-01-01T01:20:43Z</time>
      </trkpt>
      <trkpt lat="45.05368" lon="6.45467">
        <ele>2715.9169</ele>
        <time>2010-01-01T01:20:47Z</time>
      </trkpt>
      <trkpt lat="45.05357" lon="6.45486">
        <ele>2714.6592</ele>
        <time>2010-01-01T01:20:54Z</time>
      </trkpt>
      <trkpt lat="45.05351" lon="6.45498">
        <ele>2713.3538</ele>
        <time>2010-01-01T01:20:58Z</time>
      </trkpt>
      <trkpt lat="45.05357" lon="6.45517">
        <ele>2711.4806</ele>
        <time>2010-01-01T01:21:04Z</time>
      </trkpt>
      <trkpt lat="45.05357" lon="6.4553">
        <ele>2710.3193</ele>
        <time>2010-01-01T01:21:08Z</time>
      </trkpt>
      <trkpt lat="45.05364" lon="6.45541">
        <ele>2709</ele>
        <time>2010-01-01T01:21:12Z</time>
      </trkpt>
      <trkpt lat="45.05373" lon="6.45553">
        <ele>2708.5757</ele>
        <time>2010-01-01T01:21:17Z</time>
      </trkpt>
      <trkpt lat="45.05382" lon="6.45565">
        <ele>2706.119</ele>
        <time>2010-01-01T01:21:22Z</time>
      </trkpt>
      <trkpt lat="45.05375" lon="6.45563">
        <ele>2699.1543</ele>
        <time>2010-01-01T01:21:24Z</time>
      </trkpt>
      <trkpt lat="45.05367" lon="6.45554">
        <ele>2693.8363</ele>
        <time>2010-01-01T01:21:28Z</time>
      </trkpt>
      <trkpt lat="45.05366" lon="6.45544">
        <ele>2691.2588</ele>
        <time>2010-01-01T01:21:31Z</time>
      </trkpt>
      <trkpt lat="45.05371" lon="6.45532">
        <ele>2692.7611</ele>
        <time>2010-01-01T01:21:35Z</time>
      </trkpt>
      <trkpt lat="45.05359" lon="6.45538">
        <ele>2692.9179</ele>
        <time>2010-01-01T01:21:41Z</time>
      </trkpt>
      <trkpt lat="45.05353" lon="6.45554">
        <ele>2692.7403</ele>
        <time>2010-01-01T01:21:46Z</time>
      </trkpt>
      <trkpt lat="45.05348" lon="6.45566">
        <ele>2694.1214</ele>
        <time>2010-01-01T01:21:50Z</time>
      </trkpt>
      <trkpt lat="45.05339" lon="6.4558">
        <ele>2695.3404</ele>
        <time>2010-01-01T01:21:55Z</time>
      </trkpt>
      <trkpt lat="45.05346" lon="6.45589">
        <ele>2692.9185</ele>
        <time>2010-01-01T01:21:58Z</time>
      </trkpt>
      <trkpt lat="45.05351" lon="6.45605">
        <ele>2694.8218</ele>
        <time>2010-01-01T01:22:03Z</time>
      </trkpt>
      <trkpt lat="45.05352" lon="6.4562">
        <ele>2695.5407</ele>
        <time>2010-01-01T01:22:08Z</time>
      </trkpt>
      <trkpt lat="45.05357" lon="6.45638">
        <ele>2697.4816</ele>
        <time>2010-01-01T01:22:13Z</time>
      </trkpt>
      <trkpt lat="45.05359" lon="6.45655">
        <ele>2698</ele>
        <time>2010-01-01T01:22:18Z</time>
      </trkpt>
      <trkpt lat="45.05361" lon="6.45673">
        <ele>2698.8594</ele>
        <time>2010-01-01T01:22:23Z</time>
      </trkpt>
      <trkpt lat="45.05368" lon="6.45688">
        <ele>2698.0389</ele>
        <time>2010-01-01T01:22:28Z</time>
      </trkpt>
      <trkpt lat="45.05377" lon="6.45698">
        <ele>2698.1613</ele>
        <time>2010-01-01T01:22:33Z</time>
      </trkpt>
      <trkpt lat="45.05387" lon="6.45707">
        <ele>2699.722</ele>
        <time>2010-01-01T01:22:38Z</time>
      </trkpt>
      <trkpt lat="45.05394" lon="6.45711">
        <ele>2702</ele>
        <time>2010-01-01T01:22:41Z</time>
      </trkpt>
      <trkpt lat="45.05397" lon="6.45732">
        <ele>2702.1407</ele>
        <time>2010-01-01T01:22:47Z</time>
      </trkpt>
      <trkpt lat="45.05397" lon="6.45749">
        <ele>2702.9609</ele>
        <time>2010-01-01T01:22:51Z</time>
      </trkpt>
      <trkpt lat="45.05402" lon="6.45767">
        <ele>2703</ele>
        <time>2010-01-01T01:22:57Z</time>
      </trkpt>
      <trkpt lat="45.05408" lon="6.45786">
        <ele>2704.081</ele>
        <time>2010-01-01T01:23:03Z</time>
      </trkpt>
      <trkpt lat="45.0541" lon="6.458">
        <ele>2704.2585</ele>
        <time>2010-01-01T01:23:07Z</time>
      </trkpt>
      <trkpt lat="45.05407" lon="6.45822">
        <ele>2704</ele>
        <time>2010-01-01T01:23:13Z</time>
      </trkpt>
      <trkpt lat="45.05413" lon="6.4584">
        <ele>2703.239</ele>
        <time>2010-01-01T01:23:19Z</time>
      </trkpt>
      <trkpt lat="45.0542" lon="6.45849">
        <ele>2703</ele>
        <time>2010-01-01T01:23:22Z</time>
      </trkpt>
      <trkpt lat="45.05428" lon="6.45848">
        <ele>2701.5185</ele>
        <time>2010-01-01T01:23:26Z</time>
      </trkpt>
      <trkpt lat="45.05433" lon="6.45837">
        <ele>2695.1187</ele>
        <time>2010-01-01T01:23:29Z</time>
      </trkpt>
      <trkpt lat="45.05428" lon="6.45844">
        <ele>2700.2508</ele>
        <time>2010-01-01T01:23:32Z</time>
      </trkpt>
      <trkpt lat="45.05421" lon="6.45847">
        <ele>2702.9016</ele>
        <time>2010-01-01T01:23:35Z</time>
      </trkpt>
      <trkpt lat="45.05404" lon="6.45859">
        <ele>2704.651</ele>
        <time>2010-01-01T01:23:43Z</time>
      </trkpt>
      <trkpt lat="45.05406" lon="6.45881">
        <ele>2705.4508</ele>
        <time>2010-01-01T01:23:49Z</time>
      </trkpt>
      <trkpt lat="45.05409" lon="6.45894">
        <ele>2705.7491</ele>
        <time>2010-01-01T01:23:53Z</time>
      </trkpt>
      <trkpt lat="45.05406" lon="6.45907">
        <ele>2704.949</ele>
        <time>2010-01-01T01:23:57Z</time>
      </trkpt>
      <trkpt lat="45.05402" lon="6.45924">
        <ele>2704.1491</ele>
        <time>2010-01-01T01:24:02Z</time>
      </trkpt>
      <trkpt lat="45.05404" lon="6.45942">
        <ele>2702.0475</ele>
        <time>2010-01-01T01:24:07Z</time>
      </trkpt>
      <trkpt lat="45.05398" lon="6.45956">
        <ele>2696.7459</ele>
        <time>2010-01-01T01:24:12Z</time>
      </trkpt>
      <trkpt lat="45.05384" lon="6.45959">
        <ele>2694.0475</ele>
        <time>2010-01-01T01:24:18Z</time>
      </trkpt>
      <trkpt lat="45.05374" lon="6.45969">
        <ele>2693</ele>
        <time>2010-01-01T01:24:23Z</time>
      </trkpt>
      <trkpt lat="45.05375" lon="6.45997">
        <ele>2693.2508</ele>
        <time>2010-01-01T01:24:30Z</time>
      </trkpt>
      <trkpt lat="45.0537" lon="6.46021">
        <ele>2693.9491</ele>
        <time>2010-01-01T01:24:37Z</time>
      </trkpt>
      <trkpt lat="45.05369" lon="6.46038">
        <ele>2695</ele>
        <time>2010-01-01T01:24:42Z</time>
      </trkpt>
      <trkpt lat="45.05373" lon="6.46048">
        <ele>2689.7491</ele>
        <time>2010-01-01T01:24:45Z</time>
      </trkpt>
      <trkpt lat="45.05381" lon="6.46063">
        <ele>2689.4508</ele>
        <time>2010-01-01T01:24:51Z</time>
      </trkpt>
      <trkpt lat="45.0539" lon="6.46069">
        <ele>2691.8508</ele>
        <time>2010-01-01T01:24:55Z</time>
      </trkpt>
      <trkpt lat="45.05392" lon="6.46084">
        <ele>2689.4475</ele>
        <time>2010-01-01T01:24:59Z</time>
      </trkpt>
      <trkpt lat="45.05388" lon="6.46097">
        <ele>2689</ele>
        <time>2010-01-01T01:25:03Z</time>
      </trkpt>
      <trkpt lat="45.05393" lon="6.46111">
        <ele>2687.3491</ele>
        <time>2010-01-01T01:25:07Z</time>
      </trkpt>
      <trkpt lat="45.05397" lon="6.46124">
        <ele>2679.7935</ele>
        <time>2010-01-01T01:25:11Z</time>
      </trkpt>
      <trkpt lat="45.05395" lon="6.46143">
        <ele>2662.7491</ele>
        <time>2010-01-01T01:25:17Z</time>
      </trkpt>
      <trkpt lat="45.05402" lon="6.46163">
        <ele>2660.6509</ele>
        <time>2010-01-01T01:25:23Z</time>
      </trkpt>
      <trkpt lat="45.05405" lon="6.46181">
        <ele>2660.0985</ele>
        <time>2010-01-01T01:25:28Z</time>
      </trkpt>
      <trkpt lat="45.05414" lon="6.46201">
        <ele>2658.3491</ele>
        <time>2010-01-01T01:25:35Z</time>
      </trkpt>
      <trkpt lat="45.05419" lon="6.46215">
        <ele>2652.7459</ele>
        <time>2010-01-01T01:25:40Z</time>
      </trkpt>
      <trkpt lat="45.05417" lon="6.4623">
        <ele>2647.8508</ele>
        <time>2010-01-01T01:25:44Z</time>
      </trkpt>
      <trkpt lat="45.05416" lon="6.46249">
        <ele>2647.3491</ele>
        <time>2010-01-01T01:25:49Z</time>
      </trkpt>
      <trkpt lat="45.05413" lon="6.46266">
        <ele>2646.5491</ele>
        <time>2010-01-01T01:25:54Z</time>
      </trkpt>
      <trkpt lat="45.05415" lon="6.46286">
        <ele>2646</ele>
        <time>2010-01-01T01:26:00Z</time>
      </trkpt>
      <trkpt lat="45.05416" lon="6.46273">
        <ele>2648.0508</ele>
        <time>2010-01-01T01:26:03Z</time>
      </trkpt>
      <trkpt lat="45.05412" lon="6.46286">
        <ele>2640.3491</ele>
        <time>2010-01-01T01:26:07Z</time>
      </trkpt>
      <trkpt lat="45.05415" lon="6.46304">
        <ele>2639.5491</ele>
        <time>2010-01-01T01:26:12Z</time>
      </trkpt>
      <trkpt lat="45.05413" lon="6.46319">
        <ele>2639</ele>
        <time>2010-01-01T01:26:17Z</time>
      </trkpt>
      <trkpt lat="45.05414" lon="6.46334">
        <ele>2639.0508</ele>
        <time>2010-01-01T01:26:21Z</time>
      </trkpt>
      <trkpt lat="45.05418" lon="6.46349">
        <ele>2639.4983</ele>
        <time>2010-01-01T01:26:26Z</time>
      </trkpt>
      <trkpt lat="45.05427" lon="6.46361">
        <ele>2638</ele>
        <time>2010-01-01T01:26:31Z</time>
      </trkpt>
      <trkpt lat="45.0543" lon="6.46374">
        <ele>2638</ele>
        <time>2010-01-01T01:26:34Z</time>
      </trkpt>
      <trkpt lat="45.05432" lon="6.46387">
        <ele>2638</ele>
        <time>2010-01-01T01:26:38Z</time>
      </trkpt>
      <trkpt lat="45.05434" lon="6.46402">
        <ele>2638.4509</ele>
        <time>2010-01-01T01:26:43Z</time>
      </trkpt>
      <trkpt lat="45.05441" lon="6.46422">
        <ele>2640</ele>
        <time>2010-01-01T01:26:49Z</time>
      </trkpt>
      <trkpt lat="45.05445" lon="6.46442">
        <ele>2640.9016</ele>
        <time>2010-01-01T01:26:55Z</time>
      </trkpt>
      <trkpt lat="45.05443" lon="6.4646">
        <ele>2642.5491</ele>
        <time>2010-01-01T01:27:00Z</time>
      </trkpt>
      <trkpt lat="45.0544" lon="6.46478">
        <ele>2640.9967</ele>
        <time>2010-01-01T01:27:05Z</time>
      </trkpt>
      <trkpt lat="45.05445" lon="6.46495">
        <ele>2637.9491</ele>
        <time>2010-01-01T01:27:11Z</time>
      </trkpt>
      <trkpt lat="45.05448" lon="6.46511">
        <ele>2637.1491</ele>
        <time>2010-01-01T01:27:15Z</time>
      </trkpt>
      <trkpt lat="45.05445" lon="6.46529">
        <ele>2632.8983</ele>
        <time>2010-01-01T01:27:20Z</time>
      </trkpt>
      <trkpt lat="45.0545" lon="6.46549">
        <ele>2631.2983</ele>
        <time>2010-01-01T01:27:26Z</time>
      </trkpt>
      <trkpt lat="45.05451" lon="6.46567">
        <ele>2628.3967</ele>
        <time>2010-01-01T01:27:32Z</time>
      </trkpt>
      <trkpt lat="45.05455" lon="6.46582">
        <ele>2626.1524</ele>
        <time>2010-01-01T01:27:36Z</time>
      </trkpt>
      <trkpt lat="45.05453" lon="6.4657">
        <ele>2618.4436</ele>
        <time>2010-01-01T01:27:39Z</time>
      </trkpt>
      <trkpt lat="45.05452" lon="6.46588">
        <ele>2614.9568</ele>
        <time>2010-01-01T01:27:45Z</time>
      </trkpt>
      <trkpt lat="45.0546" lon="6.46599">
        <ele>2611.9593</ele>
        <time>2010-01-01T01:27:49Z</time>
      </trkpt>
      <trkpt lat="45.0547" lon="6.4661">
        <ele>2611.1592</ele>
        <time>2010-01-01T01:27:54Z</time>
      </trkpt>
      <trkpt lat="45.05484" lon="6.46608">
        <ele>2624</ele>
        <time>2010-01-01T01:28:00Z</time>
      </trkpt>
      <trkpt lat="45.05499" lon="6.46612">
        <ele>2623.2781</ele>
        <time>2010-01-01T01:28:06Z</time>
      </trkpt>
      <trkpt lat="45.05524" lon="6.4662">
        <ele>2616.0743</ele>
        <time>2010-01-01T01:28:16Z</time>
      </trkpt>
      <trkpt lat="45.05537" lon="6.46629">
        <ele>2599.8894</ele>
        <time>2010-01-01T01:28:22Z</time>
      </trkpt>
      <trkpt lat="45.05544" lon="6.46645">
        <ele>2599</ele>
        <time>2010-01-01T01:28:27Z</time>
      </trkpt>
      <trkpt lat="45.05558" lon="6.46651">
        <ele>2602.3216</ele>
        <time>2010-01-01T01:28:33Z</time>
      </trkpt>
      <trkpt lat="45.05586" lon="6.4666">
        <ele>2599.1336</ele>
        <time>2010-01-01T01:28:45Z</time>
      </trkpt>
      <trkpt lat="45.05604" lon="6.46658">
        <ele>2591.4743</ele>
        <time>2010-01-01T01:28:52Z</time>
      </trkpt>
      <trkpt lat="45.05628" lon="6.46668">
        <ele>2584.7172</ele>
        <time>2010-01-01T01:29:02Z</time>
      </trkpt>
      <trkpt lat="45.05645" lon="6.46675">
        <ele>2583.339</ele>
        <time>2010-01-01T01:29:09Z</time>
      </trkpt>
      <trkpt lat="45.05663" lon="6.46673">
        <ele>2576.3894</ele>
        <time>2010-01-01T01:29:16Z</time>
      </trkpt>
      <trkpt lat="45.05681" lon="6.46668">
        <ele>2565.9557</ele>
        <time>2010-01-01T01:29:24Z</time>
      </trkpt>
      <trkpt lat="45.05697" lon="6.46668">
        <ele>2560.5929</ele>
        <time>2010-01-01T01:29:30Z</time>
      </trkpt>
      <trkpt lat="45.05715" lon="6.4667">
        <ele>2552.3909</ele>
        <time>2010-01-01T01:29:37Z</time>
      </trkpt>
      <trkpt lat="45.05731" lon="6.46684">
        <ele>2552</ele>
        <time>2010-01-01T01:29:45Z</time>
      </trkpt>
      <trkpt lat="45.05744" lon="6.46693">
        <ele>2548.9563</ele>
        <time>2010-01-01T01:29:50Z</time>
      </trkpt>
      <trkpt lat="45.05754" lon="6.46687">
        <ele>2547.339</ele>
        <time>2010-01-01T01:29:55Z</time>
      </trkpt>
      <trkpt lat="45.05769" lon="6.46674">
        <ele>2544.1954</ele>
        <time>2010-01-01T01:30:02Z</time>
      </trkpt>
      <trkpt lat="45.05782" lon="6.46668">
        <ele>2542</ele>
        <time>2010-01-01T01:30:07Z</time>
      </trkpt>
      <trkpt lat="45.05798" lon="6.46671">
        <ele>2539.8345</ele>
        <time>2010-01-01T01:30:14Z</time>
      </trkpt>
      <trkpt lat="45.05814" lon="6.46665">
        <ele>2536.1407</ele>
        <time>2010-01-01T01:30:20Z</time>
      </trkpt>
      <trkpt lat="45.05827" lon="6.46671">
        <ele>2537.1628</ele>
        <time>2010-01-01T01:30:26Z</time>
      </trkpt>
      <trkpt lat="45.05841" lon="6.46662">
        <ele>2540.7628</ele>
        <time>2010-01-01T01:30:32Z</time>
      </trkpt>
      <trkpt lat="45.05854" lon="6.46669">
        <ele>2540.2592</ele>
        <time>2010-01-01T01:30:38Z</time>
      </trkpt>
      <trkpt lat="45.05865" lon="6.46677">
        <ele>2537.7563</ele>
        <time>2010-01-01T01:30:43Z</time>
      </trkpt>
      <trkpt lat="45.05878" lon="6.4668">
        <ele>2535.539</ele>
        <time>2010-01-01T01:30:48Z</time>
      </trkpt>
      <trkpt lat="45.05887" lon="6.46691">
        <ele>2533.0743</ele>
        <time>2010-01-01T01:30:53Z</time>
      </trkpt>
      <trkpt lat="45.05899" lon="6.46705">
        <ele>2526.1557</ele>
        <time>2010-01-01T01:30:59Z</time>
      </trkpt>
      <trkpt lat="45.05911" lon="6.46707">
        <ele>2527.5939</ele>
        <time>2010-01-01T01:31:04Z</time>
      </trkpt>
      <trkpt lat="45.05923" lon="6.4672">
        <ele>2524</ele>
        <time>2010-01-01T01:31:10Z</time>
      </trkpt>
      <trkpt lat="45.05931" lon="6.4673">
        <ele>2525.0218</ele>
        <time>2010-01-01T01:31:14Z</time>
      </trkpt>
      <trkpt lat="45.0594" lon="6.46736">
        <ele>2526.6781</ele>
        <time>2010-01-01T01:31:18Z</time>
      </trkpt>
      <trkpt lat="45.0595" lon="6.4674">
        <ele>2520.7969</ele>
        <time>2010-01-01T01:31:22Z</time>
      </trkpt>
      <trkpt lat="45.05964" lon="6.46749">
        <ele>2516.1563</ele>
        <time>2010-01-01T01:31:28Z</time>
      </trkpt>
      <trkpt lat="45.05967" lon="6.46762">
        <ele>2514.961</ele>
        <time>2010-01-01T01:31:32Z</time>
      </trkpt>
      <trkpt lat="45.05979" lon="6.46773">
        <ele>2514.2592</ele>
        <time>2010-01-01T01:31:38Z</time>
      </trkpt>
      <trkpt lat="45.05984" lon="6.46787">
        <ele>2514.5405</ele>
        <time>2010-01-01T01:31:43Z</time>
      </trkpt>
      <trkpt lat="45.05994" lon="6.468">
        <ele>2516.0827</ele>
        <time>2010-01-01T01:31:48Z</time>
      </trkpt>
      <trkpt lat="45.06006" lon="6.46805">
        <ele>2518</ele>
        <time>2010-01-01T01:31:53Z</time>
      </trkpt>
      <trkpt lat="45.06019" lon="6.46813">
        <ele>2518</ele>
        <time>2010-01-01T01:31:59Z</time>
      </trkpt>
      <trkpt lat="45.06037" lon="6.46826">
        <ele>2521.1628</ele>
        <time>2010-01-01T01:32:07Z</time>
      </trkpt>
      <trkpt lat="45.06045" lon="6.46838">
        <ele>2523</ele>
        <time>2010-01-01T01:32:11Z</time>
      </trkpt>
      <trkpt lat="45.06062" lon="6.46845">
        <ele>2511.1565</ele>
        <time>2010-01-01T01:32:18Z</time>
      </trkpt>
      <trkpt lat="45.06071" lon="6.46844">
        <ele>2515</ele>
        <time>2010-01-01T01:32:22Z</time>
      </trkpt>
      <trkpt lat="45.0607" lon="6.46855">
        <ele>2508.2781</ele>
        <time>2010-01-01T01:32:25Z</time>
      </trkpt>
      <trkpt lat="45.06067" lon="6.46844">
        <ele>2510.7407</ele>
        <time>2010-01-01T01:32:28Z</time>
      </trkpt>
      <trkpt lat="45.06076" lon="6.46852">
        <ele>2511.7407</ele>
        <time>2010-01-01T01:32:32Z</time>
      </trkpt>
      <trkpt lat="45.06071" lon="6.46842">
        <ele>2516.0814</ele>
        <time>2010-01-01T01:32:36Z</time>
      </trkpt>
      <trkpt lat="45.06068" lon="6.46851">
        <ele>2507.3365</ele>
        <time>2010-01-01T01:32:39Z</time>
      </trkpt>
      <trkpt lat="45.06068" lon="6.46838">
        <ele>2502.3218</ele>
        <time>2010-01-01T01:32:43Z</time>
      </trkpt>
      <trkpt lat="45.06068" lon="6.46854">
        <ele>2492.6593</ele>
        <time>2010-01-01T01:32:47Z</time>
      </trkpt>
      <trkpt lat="45.0607" lon="6.46843">
        <ele>2493.4529</ele>
        <time>2010-01-01T01:32:51Z</time>
      </trkpt>
      <trkpt lat="45.06075" lon="6.46852">
        <ele>2497</ele>
        <time>2010-01-01T01:32:54Z</time>
      </trkpt>
      <trkpt lat="45.06084" lon="6.46854">
        <ele>2497.3407</ele>
        <time>2010-01-01T01:32:57Z</time>
      </trkpt>
      <trkpt lat="45.06096" lon="6.46858">
        <ele>2498</ele>
        <time>2010-01-01T01:33:02Z</time>
      </trkpt>
      <trkpt lat="45.06105" lon="6.46863">
        <ele>2498</ele>
        <time>2010-01-01T01:33:06Z</time>
      </trkpt>
      <trkpt lat="45.06119" lon="6.46869">
        <ele>2496.5185</ele>
        <time>2010-01-01T01:33:12Z</time>
      </trkpt>
      <trkpt lat="45.0613" lon="6.46871">
        <ele>2495.4593</ele>
        <time>2010-01-01T01:33:17Z</time>
      </trkpt>
      <trkpt lat="45.06145" lon="6.46897">
        <ele>2493.5185</ele>
        <time>2010-01-01T01:33:26Z</time>
      </trkpt>
      <trkpt lat="45.06149" lon="6.46911">
        <ele>2491.3189</ele>
        <time>2010-01-01T01:33:30Z</time>
      </trkpt>
      <trkpt lat="45.06153" lon="6.46922">
        <ele>2490</ele>
        <time>2010-01-01T01:33:34Z</time>
      </trkpt>
      <trkpt lat="45.06161" lon="6.46941">
        <ele>2487.8371</ele>
        <time>2010-01-01T01:33:40Z</time>
      </trkpt>
      <trkpt lat="45.06172" lon="6.46955">
        <ele>2486</ele>
        <time>2010-01-01T01:33:46Z</time>
      </trkpt>
      <trkpt lat="45.06186" lon="6.46968">
        <ele>2485.839</ele>
        <time>2010-01-01T01:33:53Z</time>
      </trkpt>
      <trkpt lat="45.06201" lon="6.46966">
        <ele>2485.0592</ele>
        <time>2010-01-01T01:33:59Z</time>
      </trkpt>
      <trkpt lat="45.0622" lon="6.46975">
        <ele>2487.7185</ele>
        <time>2010-01-01T01:34:07Z</time>
      </trkpt>
      <trkpt lat="45.06238" lon="6.46951">
        <ele>2486.6814</ele>
        <time>2010-01-01T01:34:17Z</time>
      </trkpt>
      <trkpt lat="45.06237" lon="6.46935">
        <ele>2487.039</ele>
        <time>2010-01-01T01:34:21Z</time>
      </trkpt>
      <trkpt lat="45.06239" lon="6.46914">
        <ele>2486.2592</ele>
        <time>2010-01-01T01:34:27Z</time>
      </trkpt>
      <trkpt lat="45.0626" lon="6.46896">
        <ele>2486</ele>
        <time>2010-01-01T01:34:37Z</time>
      </trkpt>
      <trkpt lat="45.06273" lon="6.469">
        <ele>2483.7778</ele>
        <time>2010-01-01T01:34:42Z</time>
      </trkpt>
      <trkpt lat="45.06281" lon="6.46894">
        <ele>2482.439</ele>
        <time>2010-01-01T01:34:46Z</time>
      </trkpt>
      <trkpt lat="45.06292" lon="6.46894">
        <ele>2479</ele>
        <time>2010-01-01T01:34:50Z</time>
      </trkpt>
      <trkpt lat="45.06305" lon="6.46895">
        <ele>2479</ele>
        <time>2010-01-01T01:34:56Z</time>
      </trkpt>
      <trkpt lat="45.06319" lon="6.46902">
        <ele>2479.7408</ele>
        <time>2010-01-01T01:35:01Z</time>
      </trkpt>
      <trkpt lat="45.06342" lon="6.46906">
        <ele>2480.9407</ele>
        <time>2010-01-01T01:35:11Z</time>
      </trkpt>
      <trkpt lat="45.06351" lon="6.46913">
        <ele>2481.7407</ele>
        <time>2010-01-01T01:35:15Z</time>
      </trkpt>
      <trkpt lat="45.0636" lon="6.46925">
        <ele>2480.8781</ele>
        <time>2010-01-01T01:35:20Z</time>
      </trkpt>
      <trkpt lat="45.06368" lon="6.46935">
        <ele>2480</ele>
        <time>2010-01-01T01:35:24Z</time>
      </trkpt>
      <trkpt lat="45.06389" lon="6.4694">
        <ele>2480.5407</ele>
        <time>2010-01-01T01:35:32Z</time>
      </trkpt>
      <trkpt lat="45.06402" lon="6.46944">
        <ele>2481</ele>
        <time>2010-01-01T01:35:38Z</time>
      </trkpt>
      <trkpt lat="45.0641" lon="6.4695">
        <ele>2481</ele>
        <time>2010-01-01T01:35:41Z</time>
      </trkpt>
      <trkpt lat="45.06423" lon="6.46948">
        <ele>2481</ele>
        <time>2010-01-01T01:35:47Z</time>
      </trkpt>
      <trkpt lat="45.06431" lon="6.46948">
        <ele>2480.7185</ele>
        <time>2010-01-01T01:35:50Z</time>
      </trkpt>
      <trkpt lat="45.06443" lon="6.46946">
        <ele>2479.1185</ele>
        <time>2010-01-01T01:35:55Z</time>
      </trkpt>
      <trkpt lat="45.06457" lon="6.46954">
        <ele>2479.7609</ele>
        <time>2010-01-01T01:36:01Z</time>
      </trkpt>
      <trkpt lat="45.06472" lon="6.46967">
        <ele>2478.3778</ele>
        <time>2010-01-01T01:36:08Z</time>
      </trkpt>
      <trkpt lat="45.06484" lon="6.46979">
        <ele>2477</ele>
        <time>2010-01-01T01:36:14Z</time>
      </trkpt>
      <trkpt lat="45.06495" lon="6.46996">
        <ele>2476.839</ele>
        <time>2010-01-01T01:36:20Z</time>
      </trkpt>
      <trkpt lat="45.06508" lon="6.47007">
        <ele>2476.0592</ele>
        <time>2010-01-01T01:36:26Z</time>
      </trkpt>
      <trkpt lat="45.06521" lon="6.47008">
        <ele>2476.7407</ele>
        <time>2010-01-01T01:36:32Z</time>
      </trkpt>
      <trkpt lat="45.06532" lon="6.47014">
        <ele>2476.439</ele>
        <time>2010-01-01T01:36:36Z</time>
      </trkpt>
      <trkpt lat="45.06542" lon="6.47025">
        <ele>2475.3185</ele>
        <time>2010-01-01T01:36:42Z</time>
      </trkpt>
      <trkpt lat="45.06552" lon="6.4702">
        <ele>2476.3407</ele>
        <time>2010-01-01T01:36:46Z</time>
      </trkpt>
      <trkpt lat="45.06562" lon="6.47024">
        <ele>2477</ele>
        <time>2010-01-01T01:36:50Z</time>
      </trkpt>
      <trkpt lat="45.06572" lon="6.4703">
        <ele>2477</ele>
        <time>2010-01-01T01:36:54Z</time>
      </trkpt>
      <trkpt lat="45.06586" lon="6.47034">
        <ele>2477.7407</ele>
        <time>2010-01-01T01:37:00Z</time>
      </trkpt>
      <trkpt lat="45.06596" lon="6.47041">
        <ele>2479.1218</ele>
        <time>2010-01-01T01:37:04Z</time>
      </trkpt>
      <trkpt lat="45.06619" lon="6.47056">
        <ele>2480</ele>
        <time>2010-01-01T01:37:15Z</time>
      </trkpt>
      <trkpt lat="45.06634" lon="6.47063">
        <ele>2480</ele>
        <time>2010-01-01T01:37:21Z</time>
      </trkpt>
      <trkpt lat="45.06648" lon="6.47064">
        <ele>2480.3407</ele>
        <time>2010-01-01T01:37:27Z</time>
      </trkpt>
      <trkpt lat="45.06663" lon="6.47066">
        <ele>2480.0592</ele>
        <time>2010-01-01T01:37:33Z</time>
      </trkpt>
      <trkpt lat="45.06675" lon="6.47071">
        <ele>2477.0371</ele>
        <time>2010-01-01T01:37:38Z</time>
      </trkpt>
      <trkpt lat="45.06684" lon="6.47071">
        <ele>2475.9778</ele>
        <time>2010-01-01T01:37:41Z</time>
      </trkpt>
      <trkpt lat="45.06696" lon="6.47075">
        <ele>2473.8592</ele>
        <time>2010-01-01T01:37:46Z</time>
      </trkpt>
      <trkpt lat="45.0671" lon="6.47077">
        <ele>2473.039</ele>
        <time>2010-01-01T01:37:52Z</time>
      </trkpt>
      <trkpt lat="45.06722" lon="6.47076">
        <ele>2469.2964</ele>
        <time>2010-01-01T01:37:57Z</time>
      </trkpt>
      <trkpt lat="45.06738" lon="6.47089">
        <ele>2464.2407</ele>
        <time>2010-01-01T01:38:04Z</time>
      </trkpt>
      <trkpt lat="45.06739" lon="6.47104">
        <ele>2460.2924</ele>
        <time>2010-01-01T01:38:08Z</time>
      </trkpt>
      <trkpt lat="45.06747" lon="6.47113">
        <ele>2455.2371</ele>
        <time>2010-01-01T01:38:12Z</time>
      </trkpt>
      <trkpt lat="45.06756" lon="6.47115">
        <ele>2454.239</ele>
        <time>2010-01-01T01:38:16Z</time>
      </trkpt>
      <trkpt lat="45.0676" lon="6.47128">
        <ele>2449.1959</ele>
        <time>2010-01-01T01:38:20Z</time>
      </trkpt>
      <trkpt lat="45.06769" lon="6.47134">
        <ele>2446.7799</ele>
        <time>2010-01-01T01:38:24Z</time>
      </trkpt>
      <trkpt lat="45.06776" lon="6.47158">
        <ele>2446</ele>
        <time>2010-01-01T01:38:31Z</time>
      </trkpt>
      <trkpt lat="45.06786" lon="6.47164">
        <ele>2445.2583</ele>
        <time>2010-01-01T01:38:36Z</time>
      </trkpt>
      <trkpt lat="45.06795" lon="6.47165">
        <ele>2445.5609</ele>
        <time>2010-01-01T01:38:39Z</time>
      </trkpt>
      <trkpt lat="45.06806" lon="6.47164">
        <ele>2445.6587</ele>
        <time>2010-01-01T01:38:43Z</time>
      </trkpt>
      <trkpt lat="45.06828" lon="6.47164">
        <ele>2442.8339</ele>
        <time>2010-01-01T01:38:52Z</time>
      </trkpt>
      <trkpt lat="45.06834" lon="6.47138">
        <ele>2439.5197</ele>
        <time>2010-01-01T01:39:00Z</time>
      </trkpt>
      <trkpt lat="45.06857" lon="6.47143">
        <ele>2436.1778</ele>
        <time>2010-01-01T01:39:09Z</time>
      </trkpt>
      <trkpt lat="45.06869" lon="6.47166">
        <ele>2436</ele>
        <time>2010-01-01T01:39:17Z</time>
      </trkpt>
      <trkpt lat="45.06875" lon="6.47179">
        <ele>2434.8785</ele>
        <time>2010-01-01T01:39:22Z</time>
      </trkpt>
      <trkpt lat="45.0688" lon="6.4717">
        <ele>2432.9967</ele>
        <time>2010-01-01T01:39:25Z</time>
      </trkpt>
      <trkpt lat="45.06886" lon="6.47159">
        <ele>2430</ele>
        <time>2010-01-01T01:39:29Z</time>
      </trkpt>
      <trkpt lat="45.06892" lon="6.47147">
        <ele>2430</ele>
        <time>2010-01-01T01:39:33Z</time>
      </trkpt>
      <trkpt lat="45.06898" lon="6.47131">
        <ele>2429.3491</ele>
        <time>2010-01-01T01:39:38Z</time>
      </trkpt>
      <trkpt lat="45.06905" lon="6.47117">
        <ele>2429</ele>
        <time>2010-01-01T01:39:43Z</time>
      </trkpt>
      <trkpt lat="45.06909" lon="6.47103">
        <ele>2428.2475</ele>
        <time>2010-01-01T01:39:47Z</time>
      </trkpt>
      <trkpt lat="45.06915" lon="6.47087">
        <ele>2426.0508</ele>
        <time>2010-01-01T01:39:52Z</time>
      </trkpt>
      <trkpt lat="45.06925" lon="6.47082">
        <ele>2426.8508</ele>
        <time>2010-01-01T01:39:57Z</time>
      </trkpt>
      <trkpt lat="45.06934" lon="6.47073">
        <ele>2428.3016</ele>
        <time>2010-01-01T01:40:01Z</time>
      </trkpt>
      <trkpt lat="45.06944" lon="6.47065">
        <ele>2429.4508</ele>
        <time>2010-01-01T01:40:05Z</time>
      </trkpt>
      <trkpt lat="45.06957" lon="6.47056">
        <ele>2431.3016</ele>
        <time>2010-01-01T01:40:11Z</time>
      </trkpt>
      <trkpt lat="45.06968" lon="6.47055">
        <ele>2432.4508</ele>
        <time>2010-01-01T01:40:16Z</time>
      </trkpt>
      <trkpt lat="45.06977" lon="6.47067">
        <ele>2432.7491</ele>
        <time>2010-01-01T01:40:21Z</time>
      </trkpt>
      <trkpt lat="45.06983" lon="6.47081">
        <ele>2432</ele>
        <time>2010-01-01T01:40:25Z</time>
      </trkpt>
      <trkpt lat="45.06993" lon="6.47091">
        <ele>2432</ele>
        <time>2010-01-01T01:40:30Z</time>
      </trkpt>
      <trkpt lat="45.07001" lon="6.47101">
        <ele>2432.6508</ele>
        <time>2010-01-01T01:40:35Z</time>
      </trkpt>
      <trkpt lat="45.07009" lon="6.47113">
        <ele>2433</ele>
        <time>2010-01-01T01:40:39Z</time>
      </trkpt>
      <trkpt lat="45.07013" lon="6.47138">
        <ele>2431.6983</ele>
        <time>2010-01-01T01:40:47Z</time>
      </trkpt>
      <trkpt lat="45.07012" lon="6.47156">
        <ele>2430.0983</ele>
        <time>2010-01-01T01:40:52Z</time>
      </trkpt>
      <trkpt lat="45.07013" lon="6.47174">
        <ele>2428.4989</ele>
        <time>2010-01-01T01:40:57Z</time>
      </trkpt>
      <trkpt lat="45.07015" lon="6.47192">
        <ele>2426.9501</ele>
        <time>2010-01-01T01:41:02Z</time>
      </trkpt>
      <trkpt lat="45.07012" lon="6.47208">
        <ele>2426.1493</ele>
        <time>2010-01-01T01:41:07Z</time>
      </trkpt>
      <trkpt lat="45.07012" lon="6.4723">
        <ele>2424.8983</ele>
        <time>2010-01-01T01:41:13Z</time>
      </trkpt>
      <trkpt lat="45.07013" lon="6.47247">
        <ele>2423.2983</ele>
        <time>2010-01-01T01:41:18Z</time>
      </trkpt>
      <trkpt lat="45.07015" lon="6.47263">
        <ele>2423</ele>
        <time>2010-01-01T01:41:22Z</time>
      </trkpt>
      <trkpt lat="45.07017" lon="6.4728">
        <ele>2423</ele>
        <time>2010-01-01T01:41:27Z</time>
      </trkpt>
      <trkpt lat="45.0702" lon="6.47297">
        <ele>2422.7491</ele>
        <time>2010-01-01T01:41:32Z</time>
      </trkpt>
      <trkpt lat="45.07022" lon="6.47313">
        <ele>2421.9491</ele>
        <time>2010-01-01T01:41:37Z</time>
      </trkpt>
      <trkpt lat="45.07023" lon="6.47331">
        <ele>2421.0586</ele>
        <time>2010-01-01T01:41:42Z</time>
      </trkpt>
      <trkpt lat="45.07023" lon="6.47348">
        <ele>2421.7508</ele>
        <time>2010-01-01T01:41:47Z</time>
      </trkpt>
      <trkpt lat="45.07021" lon="6.47369">
        <ele>2422.5506</ele>
        <time>2010-01-01T01:41:53Z</time>
      </trkpt>
      <trkpt lat="45.0702" lon="6.47385">
        <ele>2417.0011</ele>
        <time>2010-01-01T01:41:57Z</time>
      </trkpt>
      <trkpt lat="45.0702" lon="6.47399">
        <ele>2417.2006</ele>
        <time>2010-01-01T01:42:01Z</time>
      </trkpt>
      <trkpt lat="45.07027" lon="6.47416">
        <ele>2415.9967</ele>
        <time>2010-01-01T01:42:07Z</time>
      </trkpt>
      <trkpt lat="45.07027" lon="6.4743">
        <ele>2416.6524</ele>
        <time>2010-01-01T01:42:11Z</time>
      </trkpt>
      <trkpt lat="45.07022" lon="6.47443">
        <ele>2416.9496</ele>
        <time>2010-01-01T01:42:15Z</time>
      </trkpt>
      <trkpt lat="45.07037" lon="6.47445">
        <ele>2413.3475</ele>
        <time>2010-01-01T01:42:21Z</time>
      </trkpt>
      <trkpt lat="45.07047" lon="6.47451">
        <ele>2414.0983</ele>
        <time>2010-01-01T01:42:25Z</time>
      </trkpt>
      <trkpt lat="45.0704" lon="6.47438">
        <ele>2418</ele>
        <time>2010-01-01T01:42:30Z</time>
      </trkpt>
      <trkpt lat="45.07036" lon="6.47457">
        <ele>2417</ele>
        <time>2010-01-01T01:42:35Z</time>
      </trkpt>
      <trkpt lat="45.0703" lon="6.47472">
        <ele>2416.6491</ele>
        <time>2010-01-01T01:42:40Z</time>
      </trkpt>
      <trkpt lat="45.07019" lon="6.47484">
        <ele>2415.5475</ele>
        <time>2010-01-01T01:42:46Z</time>
      </trkpt>
      <trkpt lat="45.07009" lon="6.47494">
        <ele>2413.1475</ele>
        <time>2010-01-01T01:42:51Z</time>
      </trkpt>
      <trkpt lat="45.07004" lon="6.47515">
        <ele>2411</ele>
        <time>2010-01-01T01:42:57Z</time>
      </trkpt>
      <trkpt lat="45.07002" lon="6.4753">
        <ele>2411</ele>
        <time>2010-01-01T01:43:01Z</time>
      </trkpt>
      <trkpt lat="45.07011" lon="6.47538">
        <ele>2412.5016</ele>
        <time>2010-01-01T01:43:05Z</time>
      </trkpt>
      <trkpt lat="45.07024" lon="6.47558">
        <ele>2415.2983</ele>
        <time>2010-01-01T01:43:13Z</time>
      </trkpt>
      <trkpt lat="45.0703" lon="6.47571">
        <ele>2418.2527</ele>
        <time>2010-01-01T01:43:18Z</time>
      </trkpt>
      <trkpt lat="45.0704" lon="6.47587">
        <ele>2419.5507</ele>
        <time>2010-01-01T01:43:24Z</time>
      </trkpt>
      <trkpt lat="45.07052" lon="6.47589">
        <ele>2420</ele>
        <time>2010-01-01T01:43:28Z</time>
      </trkpt>
      <trkpt lat="45.07058" lon="6.476">
        <ele>2420</ele>
        <time>2010-01-01T01:43:32Z</time>
      </trkpt>
      <trkpt lat="45.07062" lon="6.47616">
        <ele>2414.2524</ele>
        <time>2010-01-01T01:43:37Z</time>
      </trkpt>
      <trkpt lat="45.07075" lon="6.47621">
        <ele>2416.2524</ele>
        <time>2010-01-01T01:43:42Z</time>
      </trkpt>
      <trkpt lat="45.07086" lon="6.47618">
        <ele>2418</ele>
        <time>2010-01-01T01:43:47Z</time>
      </trkpt>
      <trkpt lat="45.07101" lon="6.4762">
        <ele>2418.5508</ele>
        <time>2010-01-01T01:43:53Z</time>
      </trkpt>
      <trkpt lat="45.07112" lon="6.47625">
        <ele>2417.9475</ele>
        <time>2010-01-01T01:43:58Z</time>
      </trkpt>
      <trkpt lat="45.07118" lon="6.47636">
        <ele>2413.7215</ele>
        <time>2010-01-01T01:44:02Z</time>
      </trkpt>
      <trkpt lat="45.0713" lon="6.47642">
        <ele>2404.2487</ele>
        <time>2010-01-01T01:44:07Z</time>
      </trkpt>
      <trkpt lat="45.07131" lon="6.47661">
        <ele>2397.4966</ele>
        <time>2010-01-01T01:44:12Z</time>
      </trkpt>
      <trkpt lat="45.07121" lon="6.47653">
        <ele>2394.2983</ele>
        <time>2010-01-01T01:44:17Z</time>
      </trkpt>
      <trkpt lat="45.07122" lon="6.47667">
        <ele>2404.6983</ele>
        <time>2010-01-01T01:44:21Z</time>
      </trkpt>
      <trkpt lat="45.07118" lon="6.47651">
        <ele>2412.2983</ele>
        <time>2010-01-01T01:44:25Z</time>
      </trkpt>
      <trkpt lat="45.07124" lon="6.47662">
        <ele>2412.9016</ele>
        <time>2010-01-01T01:44:29Z</time>
      </trkpt>
      <trkpt lat="45.07114" lon="6.47653">
        <ele>2404.8491</ele>
        <time>2010-01-01T01:44:34Z</time>
      </trkpt>
      <trkpt lat="45.07107" lon="6.47641">
        <ele>2406.0032</ele>
        <time>2010-01-01T01:44:39Z</time>
      </trkpt>
      <trkpt lat="45.07095" lon="6.47634">
        <ele>2405.8983</ele>
        <time>2010-01-01T01:44:44Z</time>
      </trkpt>
      <trkpt lat="45.07082" lon="6.47637">
        <ele>2405.3508</ele>
        <time>2010-01-01T01:44:49Z</time>
      </trkpt>
      <trkpt lat="45.07091" lon="6.47649">
        <ele>2400.4524</ele>
        <time>2010-01-01T01:44:54Z</time>
      </trkpt>
      <trkpt lat="45.07102" lon="6.47645">
        <ele>2404.754</ele>
        <time>2010-01-01T01:44:58Z</time>
      </trkpt>
      <trkpt lat="45.07113" lon="6.47652">
        <ele>2408.3016</ele>
        <time>2010-01-01T01:45:03Z</time>
      </trkpt>
      <trkpt lat="45.07126" lon="6.47666">
        <ele>2409.6491</ele>
        <time>2010-01-01T01:45:10Z</time>
      </trkpt>
      <trkpt lat="45.07131" lon="6.47678">
        <ele>2394.3508</ele>
        <time>2010-01-01T01:45:14Z</time>
      </trkpt>
      <trkpt lat="45.07126" lon="6.47665">
        <ele>2406.1508</ele>
        <time>2010-01-01T01:45:18Z</time>
      </trkpt>
      <trkpt lat="45.07137" lon="6.47662">
        <ele>2427.9016</ele>
        <time>2010-01-01T01:45:22Z</time>
      </trkpt>
      <trkpt lat="45.07125" lon="6.4765">
        <ele>2429.3018</ele>
        <time>2010-01-01T01:45:28Z</time>
      </trkpt>
      <trkpt lat="45.07114" lon="6.47641">
        <ele>2430.9016</ele>
        <time>2010-01-01T01:45:33Z</time>
      </trkpt>
      <trkpt lat="45.07103" lon="6.47632">
        <ele>2433.2524</ele>
        <time>2010-01-01T01:45:38Z</time>
      </trkpt>
      <trkpt lat="45.07089" lon="6.47631">
        <ele>2429.5935</ele>
        <time>2010-01-01T01:45:44Z</time>
      </trkpt>
      <trkpt lat="45.0708" lon="6.47632">
        <ele>2424.9475</ele>
        <time>2010-01-01T01:45:47Z</time>
      </trkpt>
      <trkpt lat="45.07075" lon="6.47621">
        <ele>2427.5016</ele>
        <time>2010-01-01T01:45:51Z</time>
      </trkpt>
      <trkpt lat="45.07067" lon="6.47605">
        <ele>2436.0983</ele>
        <time>2010-01-01T01:45:57Z</time>
      </trkpt>
      <trkpt lat="45.07061" lon="6.47592">
        <ele>2437.5016</ele>
        <time>2010-01-01T01:46:01Z</time>
      </trkpt>
      <trkpt lat="45.07051" lon="6.47579">
        <ele>2437.4491</ele>
        <time>2010-01-01T01:46:07Z</time>
      </trkpt>
      <trkpt lat="45.07038" lon="6.47566">
        <ele>2435.4983</ele>
        <time>2010-01-01T01:46:13Z</time>
      </trkpt>
      <trkpt lat="45.0703" lon="6.47552">
        <ele>2430.2459</ele>
        <time>2010-01-01T01:46:18Z</time>
      </trkpt>
      <trkpt lat="45.07025" lon="6.47536">
        <ele>2428.7016</ele>
        <time>2010-01-01T01:46:23Z</time>
      </trkpt>
      <trkpt lat="45.07034" lon="6.47548">
        <ele>2432.7016</ele>
        <time>2010-01-01T01:46:28Z</time>
      </trkpt>
      <trkpt lat="45.07032" lon="6.47535">
        <ele>2441.4983</ele>
        <time>2010-01-01T01:46:31Z</time>
      </trkpt>
      <trkpt lat="45.07021" lon="6.47534">
        <ele>2443.6983</ele>
        <time>2010-01-01T01:46:36Z</time>
      </trkpt>
      <trkpt lat="45.07014" lon="6.47525">
        <ele>2441.8983</ele>
        <time>2010-01-01T01:46:39Z</time>
      </trkpt>
      <trkpt lat="45.07008" lon="6.47505">
        <ele>2438.6983</ele>
        <time>2010-01-01T01:46:45Z</time>
      </trkpt>
      <trkpt lat="45.07015" lon="6.47493">
        <ele>2437.0983</ele>
        <time>2010-01-01T01:46:50Z</time>
      </trkpt>
      <trkpt lat="45.07014" lon="6.47478">
        <ele>2436</ele>
        <time>2010-01-01T01:46:54Z</time>
      </trkpt>
      <trkpt lat="45.07009" lon="6.47467">
        <ele>2437.9016</ele>
        <time>2010-01-01T01:46:58Z</time>
      </trkpt>
      <trkpt lat="45.07003" lon="6.47455">
        <ele>2439.5016</ele>
        <time>2010-01-01T01:47:02Z</time>
      </trkpt>
      <trkpt lat="45.06997" lon="6.47436">
        <ele>2439.2983</ele>
        <time>2010-01-01T01:47:08Z</time>
      </trkpt>
      <trkpt lat="45.06998" lon="6.47422">
        <ele>2438</ele>
        <time>2010-01-01T01:47:12Z</time>
      </trkpt>
      <trkpt lat="45.07001" lon="6.47405">
        <ele>2438</ele>
        <time>2010-01-01T01:47:17Z</time>
      </trkpt>
      <trkpt lat="45.07002" lon="6.47388">
        <ele>2440.2032</ele>
        <time>2010-01-01T01:47:22Z</time>
      </trkpt>
      <trkpt lat="45.07002" lon="6.47372">
        <ele>2443.5016</ele>
        <time>2010-01-01T01:47:26Z</time>
      </trkpt>
      <trkpt lat="45.06997" lon="6.47358">
        <ele>2445.9016</ele>
        <time>2010-01-01T01:47:30Z</time>
      </trkpt>
      <trkpt lat="45.06993" lon="6.47342">
        <ele>2446.4524</ele>
        <time>2010-01-01T01:47:35Z</time>
      </trkpt>
      <trkpt lat="45.06996" lon="6.47328">
        <ele>2449</ele>
        <time>2010-01-01T01:47:40Z</time>
      </trkpt>
      <trkpt lat="45.06996" lon="6.47308">
        <ele>2448.6983</ele>
        <time>2010-01-01T01:47:45Z</time>
      </trkpt>
      <trkpt lat="45.06997" lon="6.47292">
        <ele>2447.7016</ele>
        <time>2010-01-01T01:47:50Z</time>
      </trkpt>
      <trkpt lat="45.06997" lon="6.47273">
        <ele>2449.5508</ele>
        <time>2010-01-01T01:47:55Z</time>
      </trkpt>
      <trkpt lat="45.07008" lon="6.47261">
        <ele>2448.4983</ele>
        <time>2010-01-01T01:48:01Z</time>
      </trkpt>
      <trkpt lat="45.07011" lon="6.47253">
        <ele>2451.3056</ele>
        <time>2010-01-01T01:48:03Z</time>
      </trkpt>
      <trkpt lat="45.07006" lon="6.47245">
        <ele>2456.4983</ele>
        <time>2010-01-01T01:48:06Z</time>
      </trkpt>
      <trkpt lat="45.07016" lon="6.47253">
        <ele>2448.5508</ele>
        <time>2010-01-01T01:48:11Z</time>
      </trkpt>
      <trkpt lat="45.07002" lon="6.47255">
        <ele>2450.4983</ele>
        <time>2010-01-01T01:48:17Z</time>
      </trkpt>
      <trkpt lat="45.0701" lon="6.47246">
        <ele>2450</ele>
        <time>2010-01-01T01:48:21Z</time>
      </trkpt>
      <trkpt lat="45.07024" lon="6.4724">
        <ele>2450.7016</ele>
        <time>2010-01-01T01:48:27Z</time>
      </trkpt>
      <trkpt lat="45.07042" lon="6.47239">
        <ele>2451.5472</ele>
        <time>2010-01-01T01:48:34Z</time>
      </trkpt>
      <trkpt lat="45.07053" lon="6.47233">
        <ele>2449</ele>
        <time>2010-01-01T01:48:39Z</time>
      </trkpt>
      <trkpt lat="45.07067" lon="6.47236">
        <ele>2451.8524</ele>
        <time>2010-01-01T01:48:44Z</time>
      </trkpt>
      <trkpt lat="45.07076" lon="6.47232">
        <ele>2453.5016</ele>
        <time>2010-01-01T01:48:48Z</time>
      </trkpt>
      <trkpt lat="45.07093" lon="6.47227">
        <ele>2452.5508</ele>
        <time>2010-01-01T01:48:55Z</time>
      </trkpt>
      <trkpt lat="45.07106" lon="6.47226">
        <ele>2453.3508</ele>
        <time>2010-01-01T01:49:00Z</time>
      </trkpt>
      <trkpt lat="45.07117" lon="6.47228">
        <ele>2454.5508</ele>
        <time>2010-01-01T01:49:05Z</time>
      </trkpt>
      <trkpt lat="45.07129" lon="6.47238">
        <ele>2452</ele>
        <time>2010-01-01T01:49:10Z</time>
      </trkpt>
      <trkpt lat="45.07131" lon="6.47251">
        <ele>2449.7475</ele>
        <time>2010-01-01T01:49:14Z</time>
      </trkpt>
      <trkpt lat="45.07141" lon="6.47256">
        <ele>2449.5508</ele>
        <time>2010-01-01T01:49:18Z</time>
      </trkpt>
      <trkpt lat="45.07157" lon="6.47255">
        <ele>2451.0524</ele>
        <time>2010-01-01T01:49:25Z</time>
      </trkpt>
      <trkpt lat="45.07175" lon="6.47246">
        <ele>2451.8983</ele>
        <time>2010-01-01T01:49:32Z</time>
      </trkpt>
      <trkpt lat="45.07186" lon="6.47238">
        <ele>2451.3508</ele>
        <time>2010-01-01T01:49:37Z</time>
      </trkpt>
      <trkpt lat="45.07197" lon="6.47238">
        <ele>2453.9016</ele>
        <time>2010-01-01T01:49:42Z</time>
      </trkpt>
      <trkpt lat="45.07205" lon="6.47227">
        <ele>2456.0951</ele>
        <time>2010-01-01T01:49:46Z</time>
      </trkpt>
      <trkpt lat="45.07204" lon="6.47239">
        <ele>2453</ele>
        <time>2010-01-01T01:49:50Z</time>
      </trkpt>
      <trkpt lat="45.07204" lon="6.47224">
        <ele>2447.8491</ele>
        <time>2010-01-01T01:49:54Z</time>
      </trkpt>
      <trkpt lat="45.07215" lon="6.47215">
        <ele>2447.0491</ele>
        <time>2010-01-01T01:49:59Z</time>
      </trkpt>
      <trkpt lat="45.07223" lon="6.47203">
        <ele>2449.2524</ele>
        <time>2010-01-01T01:50:04Z</time>
      </trkpt>
      <trkpt lat="45.0723" lon="6.47192">
        <ele>2450.5508</ele>
        <time>2010-01-01T01:50:08Z</time>
      </trkpt>
      <trkpt lat="45.0724" lon="6.47186">
        <ele>2451.7016</ele>
        <time>2010-01-01T01:50:12Z</time>
      </trkpt>
      <trkpt lat="45.07252" lon="6.47185">
        <ele>2452.6983</ele>
        <time>2010-01-01T01:50:17Z</time>
      </trkpt>
      <trkpt lat="45.07266" lon="6.47186">
        <ele>2449.9475</ele>
        <time>2010-01-01T01:50:23Z</time>
      </trkpt>
      <trkpt lat="45.07278" lon="6.47191">
        <ele>2445.8887</ele>
        <time>2010-01-01T01:50:27Z</time>
      </trkpt>
      <trkpt lat="45.07287" lon="6.47188">
        <ele>2434.6887</ele>
        <time>2010-01-01T01:50:31Z</time>
      </trkpt>
      <trkpt lat="45.07294" lon="6.47197">
        <ele>2434</ele>
        <time>2010-01-01T01:50:35Z</time>
      </trkpt>
      <trkpt lat="45.07303" lon="6.4721">
        <ele>2432.0983</ele>
        <time>2010-01-01T01:50:40Z</time>
      </trkpt>
      <trkpt lat="45.07303" lon="6.47193">
        <ele>2432.6524</ele>
        <time>2010-01-01T01:50:45Z</time>
      </trkpt>
      <trkpt lat="45.073" lon="6.47172">
        <ele>2435.5016</ele>
        <time>2010-01-01T01:50:51Z</time>
      </trkpt>
      <trkpt lat="45.07297" lon="6.47158">
        <ele>2434.8983</ele>
        <time>2010-01-01T01:50:55Z</time>
      </trkpt>
      <trkpt lat="45.07307" lon="6.47152">
        <ele>2432.9475</ele>
        <time>2010-01-01T01:50:59Z</time>
      </trkpt>
      <trkpt lat="45.07312" lon="6.47137">
        <ele>2430.6983</ele>
        <time>2010-01-01T01:51:04Z</time>
      </trkpt>
      <trkpt lat="45.07313" lon="6.47115">
        <ele>2427.9475</ele>
        <time>2010-01-01T01:51:11Z</time>
      </trkpt>
      <trkpt lat="45.07313" lon="6.47098">
        <ele>2425.8491</ele>
        <time>2010-01-01T01:51:15Z</time>
      </trkpt>
      <trkpt lat="45.07314" lon="6.47076">
        <ele>2425.0491</ele>
        <time>2010-01-01T01:51:22Z</time>
      </trkpt>
      <trkpt lat="45.07306" lon="6.4706">
        <ele>2425</ele>
        <time>2010-01-01T01:51:27Z</time>
      </trkpt>
      <trkpt lat="45.07299" lon="6.47047">
        <ele>2425.5508</ele>
        <time>2010-01-01T01:51:32Z</time>
      </trkpt>
      <trkpt lat="45.07295" lon="6.47024">
        <ele>2426.7508</ele>
        <time>2010-01-01T01:51:38Z</time>
      </trkpt>
      <trkpt lat="45.07299" lon="6.47001">
        <ele>2428.9016</ele>
        <time>2010-01-01T01:51:45Z</time>
      </trkpt>
      <trkpt lat="45.07311" lon="6.46984">
        <ele>2426.7475</ele>
        <time>2010-01-01T01:51:51Z</time>
      </trkpt>
      <trkpt lat="45.07317" lon="6.46973">
        <ele>2426.5508</ele>
        <time>2010-01-01T01:51:56Z</time>
      </trkpt>
      <trkpt lat="45.07322" lon="6.4696">
        <ele>2426.6592</ele>
        <time>2010-01-01T01:52:00Z</time>
      </trkpt>
      <trkpt lat="45.0732" lon="6.46945">
        <ele>2421.2592</ele>
        <time>2010-01-01T01:52:04Z</time>
      </trkpt>
      <trkpt lat="45.07326" lon="6.46933">
        <ele>2421</ele>
        <time>2010-01-01T01:52:08Z</time>
      </trkpt>
      <trkpt lat="45.0734" lon="6.46915">
        <ele>2421</ele>
        <time>2010-01-01T01:52:16Z</time>
      </trkpt>
      <trkpt lat="45.07343" lon="6.46901">
        <ele>2420.4592</ele>
        <time>2010-01-01T01:52:20Z</time>
      </trkpt>
      <trkpt lat="45.07344" lon="6.46881">
        <ele>2417.7778</ele>
        <time>2010-01-01T01:52:26Z</time>
      </trkpt>
      <trkpt lat="45.07344" lon="6.46863">
        <ele>2416.0592</ele>
        <time>2010-01-01T01:52:31Z</time>
      </trkpt>
      <trkpt lat="45.07342" lon="6.46844">
        <ele>2413.4371</ele>
        <time>2010-01-01T01:52:36Z</time>
      </trkpt>
      <trkpt lat="45.07343" lon="6.4683">
        <ele>2409.6592</ele>
        <time>2010-01-01T01:52:40Z</time>
      </trkpt>
      <trkpt lat="45.07353" lon="6.46825">
        <ele>2408.5778</ele>
        <time>2010-01-01T01:52:44Z</time>
      </trkpt>
      <trkpt lat="45.07342" lon="6.46821">
        <ele>2403.0371</ele>
        <time>2010-01-01T01:52:49Z</time>
      </trkpt>
      <trkpt lat="45.07332" lon="6.46827">
        <ele>2400.3778</ele>
        <time>2010-01-01T01:52:53Z</time>
      </trkpt>
      <trkpt lat="45.0733" lon="6.46812">
        <ele>2397.5185</ele>
        <time>2010-01-01T01:52:58Z</time>
      </trkpt>
      <trkpt lat="45.07343" lon="6.46808">
        <ele>2395.8781</ele>
        <time>2010-01-01T01:53:03Z</time>
      </trkpt>
      <trkpt lat="45.07355" lon="6.46803">
        <ele>2394.3185</ele>
        <time>2010-01-01T01:53:08Z</time>
      </trkpt>
      <trkpt lat="45.07364" lon="6.4679">
        <ele>2393</ele>
        <time>2010-01-01T01:53:13Z</time>
      </trkpt>
      <trkpt lat="45.07375" lon="6.46779">
        <ele>2390</ele>
        <time>2010-01-01T01:53:19Z</time>
      </trkpt>
      <trkpt lat="45.07379" lon="6.46763">
        <ele>2387.7172</ele>
        <time>2010-01-01T01:53:23Z</time>
      </trkpt>
      <trkpt lat="45.07379" lon="6.46744">
        <ele>2384.8371</ele>
        <time>2010-01-01T01:53:29Z</time>
      </trkpt>
      <trkpt lat="45.07374" lon="6.46728">
        <ele>2381.9778</ele>
        <time>2010-01-01T01:53:34Z</time>
      </trkpt>
      <trkpt lat="45.07373" lon="6.46714">
        <ele>2379.5169</ele>
        <time>2010-01-01T01:53:38Z</time>
      </trkpt>
      <trkpt lat="45.07373" lon="6.46699">
        <ele>2377.1781</ele>
        <time>2010-01-01T01:53:42Z</time>
      </trkpt>
      <trkpt lat="45.0737" lon="6.46681">
        <ele>2374.7781</ele>
        <time>2010-01-01T01:53:47Z</time>
      </trkpt>
      <trkpt lat="45.07369" lon="6.4665">
        <ele>2371</ele>
        <time>2010-01-01T01:53:56Z</time>
      </trkpt>
      <trkpt lat="45.07368" lon="6.46627">
        <ele>2371</ele>
        <time>2010-01-01T01:54:02Z</time>
      </trkpt>
      <trkpt lat="45.07357" lon="6.46612">
        <ele>2371</ele>
        <time>2010-01-01T01:54:09Z</time>
      </trkpt>
      <trkpt lat="45.07354" lon="6.46597">
        <ele>2370</ele>
        <time>2010-01-01T01:54:13Z</time>
      </trkpt>
      <trkpt lat="45.0736" lon="6.46582">
        <ele>2370</ele>
        <time>2010-01-01T01:54:18Z</time>
      </trkpt>
      <trkpt lat="45.07364" lon="6.46569">
        <ele>2370</ele>
        <time>2010-01-01T01:54:22Z</time>
      </trkpt>
      <trkpt lat="45.07363" lon="6.46552">
        <ele>2370</ele>
        <time>2010-01-01T01:54:27Z</time>
      </trkpt>
      <trkpt lat="45.0737" lon="6.4654">
        <ele>2369.2592</ele>
        <time>2010-01-01T01:54:31Z</time>
      </trkpt>
      <trkpt lat="45.0738" lon="6.4653">
        <ele>2369</ele>
        <time>2010-01-01T01:54:36Z</time>
      </trkpt>
      <trkpt lat="45.07389" lon="6.46521">
        <ele>2369.7185</ele>
        <time>2010-01-01T01:54:40Z</time>
      </trkpt>
      <trkpt lat="45.07392" lon="6.46506">
        <ele>2367.3185</ele>
        <time>2010-01-01T01:54:45Z</time>
      </trkpt>
      <trkpt lat="45.07399" lon="6.46495">
        <ele>2363.2964</ele>
        <time>2010-01-01T01:54:49Z</time>
      </trkpt>
      <trkpt lat="45.0741" lon="6.4648">
        <ele>2359.5185</ele>
        <time>2010-01-01T01:54:55Z</time>
      </trkpt>
      <trkpt lat="45.07418" lon="6.46462">
        <ele>2357.1185</ele>
        <time>2010-01-01T01:55:01Z</time>
      </trkpt>
      <trkpt lat="45.07432" lon="6.4646">
        <ele>2354.7778</ele>
        <time>2010-01-01T01:55:07Z</time>
      </trkpt>
      <trkpt lat="45.0744" lon="6.4645">
        <ele>2352.8781</ele>
        <time>2010-01-01T01:55:11Z</time>
      </trkpt>
      <trkpt lat="45.07451" lon="6.46439">
        <ele>2350.2964</ele>
        <time>2010-01-01T01:55:16Z</time>
      </trkpt>
      <trkpt lat="45.07459" lon="6.46426">
        <ele>2346.4592</ele>
        <time>2010-01-01T01:55:21Z</time>
      </trkpt>
      <trkpt lat="45.07465" lon="6.46411">
        <ele>2345.3185</ele>
        <time>2010-01-01T01:55:26Z</time>
      </trkpt>
      <trkpt lat="45.07471" lon="6.46394">
        <ele>2343.839</ele>
        <time>2010-01-01T01:55:31Z</time>
      </trkpt>
      <trkpt lat="45.07482" lon="6.46383">
        <ele>2343.0593</ele>
        <time>2010-01-01T01:55:37Z</time>
      </trkpt>
      <trkpt lat="45.07485" lon="6.46366">
        <ele>2344.7185</ele>
        <time>2010-01-01T01:55:42Z</time>
      </trkpt>
      <trkpt lat="45.07491" lon="6.46351">
        <ele>2342.3185</ele>
        <time>2010-01-01T01:55:47Z</time>
      </trkpt>
      <trkpt lat="45.07492" lon="6.46335">
        <ele>2336.6743</ele>
        <time>2010-01-01T01:55:51Z</time>
      </trkpt>
      <trkpt lat="45.07499" lon="6.46323">
        <ele>2331.2964</ele>
        <time>2010-01-01T01:55:56Z</time>
      </trkpt>
      <trkpt lat="45.0751" lon="6.4631">
        <ele>2327.6781</ele>
        <time>2010-01-01T01:56:01Z</time>
      </trkpt>
      <trkpt lat="45.07516" lon="6.46293">
        <ele>2326.1185</ele>
        <time>2010-01-01T01:56:07Z</time>
      </trkpt>
      <trkpt lat="45.0753" lon="6.46271">
        <ele>2322.1185</ele>
        <time>2010-01-01T01:56:15Z</time>
      </trkpt>
      <trkpt lat="45.07539" lon="6.46265">
        <ele>2322</ele>
        <time>2010-01-01T01:56:19Z</time>
      </trkpt>
      <trkpt lat="45.07549" lon="6.46257">
        <ele>2319.8371</ele>
        <time>2010-01-01T01:56:24Z</time>
      </trkpt>
      <trkpt lat="45.07562" lon="6.4625">
        <ele>2315.615</ele>
        <time>2010-01-01T01:56:29Z</time>
      </trkpt>
      <trkpt lat="45.07568" lon="6.46236">
        <ele>2310.3563</ele>
        <time>2010-01-01T01:56:34Z</time>
      </trkpt>
      <trkpt lat="45.07575" lon="6.46224">
        <ele>2307.2371</ele>
        <time>2010-01-01T01:56:38Z</time>
      </trkpt>
      <trkpt lat="45.0759" lon="6.46217">
        <ele>2304.0371</ele>
        <time>2010-01-01T01:56:44Z</time>
      </trkpt>
      <trkpt lat="45.07607" lon="6.46213">
        <ele>2301.3172</ele>
        <time>2010-01-01T01:56:52Z</time>
      </trkpt>
      <trkpt lat="45.07618" lon="6.46203">
        <ele>2299.6592</ele>
        <time>2010-01-01T01:56:57Z</time>
      </trkpt>
      <trkpt lat="45.07626" lon="6.46193">
        <ele>2291.4301</ele>
        <time>2010-01-01T01:57:01Z</time>
      </trkpt>
      <trkpt lat="45.07652" lon="6.46181">
        <ele>2283.4983</ele>
        <time>2010-01-01T01:57:12Z</time>
      </trkpt>
      <trkpt lat="45.07662" lon="6.4617">
        <ele>2282.0491</ele>
        <time>2010-01-01T01:57:17Z</time>
      </trkpt>
      <trkpt lat="45.07673" lon="6.46163">
        <ele>2282</ele>
        <time>2010-01-01T01:57:22Z</time>
      </trkpt>
      <trkpt lat="45.07684" lon="6.46161">
        <ele>2280.8983</ele>
        <time>2010-01-01T01:57:26Z</time>
      </trkpt>
      <trkpt lat="45.0769" lon="6.46151">
        <ele>2280</ele>
        <time>2010-01-01T01:57:30Z</time>
      </trkpt>
      <trkpt lat="45.07695" lon="6.46146">
        <ele>2280</ele>
        <time>2010-01-01T01:57:33Z</time>
      </trkpt>
      <trkpt lat="45.077" lon="6.46134">
        <ele>2279.2983</ele>
        <time>2010-01-01T01:57:37Z</time>
      </trkpt>
      <trkpt lat="45.07709" lon="6.46124">
        <ele>2277.8491</ele>
        <time>2010-01-01T01:57:41Z</time>
      </trkpt>
      <trkpt lat="45.07725" lon="6.46123">
        <ele>2276.2491</ele>
        <time>2010-01-01T01:57:47Z</time>
      </trkpt>
      <trkpt lat="45.07733" lon="6.46115">
        <ele>2275.4491</ele>
        <time>2010-01-01T01:57:51Z</time>
      </trkpt>
      <trkpt lat="45.07743" lon="6.46107">
        <ele>2275</ele>
        <time>2010-01-01T01:57:56Z</time>
      </trkpt>
      <trkpt lat="45.07753" lon="6.46102">
        <ele>2274.5475</ele>
        <time>2010-01-01T01:58:00Z</time>
      </trkpt>
      <trkpt lat="45.07765" lon="6.46097">
        <ele>2272.1475</ele>
        <time>2010-01-01T01:58:05Z</time>
      </trkpt>
      <trkpt lat="45.07776" lon="6.46093">
        <ele>2270.4983</ele>
        <time>2010-01-01T01:58:10Z</time>
      </trkpt>
      <trkpt lat="45.07787" lon="6.46093">
        <ele>2269.4491</ele>
        <time>2010-01-01T01:58:14Z</time>
      </trkpt>
      <trkpt lat="45.07797" lon="6.46088">
        <ele>2269</ele>
        <time>2010-01-01T01:58:19Z</time>
      </trkpt>
      <trkpt lat="45.07808" lon="6.46083">
        <ele>2268.8491</ele>
        <time>2010-01-01T01:58:23Z</time>
      </trkpt>
      <trkpt lat="45.0782" lon="6.46075">
        <ele>2268.0491</ele>
        <time>2010-01-01T01:58:28Z</time>
      </trkpt>
      <trkpt lat="45.07829" lon="6.46065">
        <ele>2268</ele>
        <time>2010-01-01T01:58:33Z</time>
      </trkpt>
      <trkpt lat="45.07839" lon="6.46058">
        <ele>2266.3475</ele>
        <time>2010-01-01T01:58:37Z</time>
      </trkpt>
      <trkpt lat="45.0785" lon="6.46053">
        <ele>2264.6491</ele>
        <time>2010-01-01T01:58:42Z</time>
      </trkpt>
      <trkpt lat="45.07859" lon="6.46043">
        <ele>2263.8491</ele>
        <time>2010-01-01T01:58:47Z</time>
      </trkpt>
      <trkpt lat="45.07867" lon="6.46033">
        <ele>2263.0491</ele>
        <time>2010-01-01T01:58:51Z</time>
      </trkpt>
      <trkpt lat="45.07876" lon="6.46023">
        <ele>2262.2491</ele>
        <time>2010-01-01T01:58:56Z</time>
      </trkpt>
      <trkpt lat="45.07887" lon="6.46017">
        <ele>2260.8983</ele>
        <time>2010-01-01T01:59:00Z</time>
      </trkpt>
      <trkpt lat="45.07898" lon="6.46008">
        <ele>2259.2983</ele>
        <time>2010-01-01T01:59:05Z</time>
      </trkpt>
      <trkpt lat="45.07908" lon="6.46001">
        <ele>2258</ele>
        <time>2010-01-01T01:59:10Z</time>
      </trkpt>
      <trkpt lat="45.0792" lon="6.45998">
        <ele>2258</ele>
        <time>2010-01-01T01:59:14Z</time>
      </trkpt>
      <trkpt lat="45.0793" lon="6.45991">
        <ele>2258.1508</ele>
        <time>2010-01-01T01:59:19Z</time>
      </trkpt>
      <trkpt lat="45.07944" lon="6.45985">
        <ele>2258.9508</ele>
        <time>2010-01-01T01:59:25Z</time>
      </trkpt>
      <trkpt lat="45.07953" lon="6.45977">
        <ele>2262.4524</ele>
        <time>2010-01-01T01:59:29Z</time>
      </trkpt>
      <trkpt lat="45.07962" lon="6.45964">
        <ele>2264.8524</ele>
        <time>2010-01-01T01:59:34Z</time>
      </trkpt>
      <trkpt lat="45.07969" lon="6.4595">
        <ele>2266.5016</ele>
        <time>2010-01-01T01:59:39Z</time>
      </trkpt>
      <trkpt lat="45.07982" lon="6.4594">
        <ele>2267.9508</ele>
        <time>2010-01-01T01:59:45Z</time>
      </trkpt>
      <trkpt lat="45.07993" lon="6.45934">
        <ele>2266.4981</ele>
        <time>2010-01-01T01:59:50Z</time>
      </trkpt>
      <trkpt lat="45.07999" lon="6.45919">
        <ele>2265.449</ele>
        <time>2010-01-01T01:59:55Z</time>
      </trkpt>
      <trkpt lat="45.08001" lon="6.45904">
        <ele>2265</ele>
        <time>2010-01-01T01:59:59Z</time>
      </trkpt>
      <trkpt lat="45.0801" lon="6.45896">
        <ele>2265</ele>
        <time>2010-01-01T02:00:03Z</time>
      </trkpt>
      <trkpt lat="45.08022" lon="6.45895">
        <ele>2263.4983</ele>
        <time>2010-01-01T02:00:08Z</time>
      </trkpt>
      <trkpt lat="45.08031" lon="6.45886">
        <ele>2262.0491</ele>
        <time>2010-01-01T02:00:12Z</time>
      </trkpt>
      <trkpt lat="45.08042" lon="6.45871">
        <ele>2263.1016</ele>
        <time>2010-01-01T02:00:19Z</time>
      </trkpt>
      <trkpt lat="45.08052" lon="6.45864">
        <ele>2263.2491</ele>
        <time>2010-01-01T02:00:23Z</time>
      </trkpt>
      <trkpt lat="45.08059" lon="6.45853">
        <ele>2263.5508</ele>
        <time>2010-01-01T02:00:27Z</time>
      </trkpt>
      <trkpt lat="45.08064" lon="6.45832">
        <ele>2264</ele>
        <time>2010-01-01T02:00:34Z</time>
      </trkpt>
      <trkpt lat="45.08072" lon="6.45814">
        <ele>2263.0961</ele>
        <time>2010-01-01T02:00:39Z</time>
      </trkpt>
      <trkpt lat="45.08078" lon="6.458">
        <ele>2258.3009</ele>
        <time>2010-01-01T02:00:44Z</time>
      </trkpt>
      <trkpt lat="45.08095" lon="6.45793">
        <ele>2255.7483</ele>
        <time>2010-01-01T02:00:51Z</time>
      </trkpt>
      <trkpt lat="45.08105" lon="6.4578">
        <ele>2253.8983</ele>
        <time>2010-01-01T02:00:57Z</time>
      </trkpt>
      <trkpt lat="45.08113" lon="6.45768">
        <ele>2253.3508</ele>
        <time>2010-01-01T02:01:01Z</time>
      </trkpt>
      <trkpt lat="45.08123" lon="6.45758">
        <ele>2254.1508</ele>
        <time>2010-01-01T02:01:06Z</time>
      </trkpt>
      <trkpt lat="45.08133" lon="6.45751">
        <ele>2254.9508</ele>
        <time>2010-01-01T02:01:11Z</time>
      </trkpt>
      <trkpt lat="45.08143" lon="6.45745">
        <ele>2255</ele>
        <time>2010-01-01T02:01:15Z</time>
      </trkpt>
      <trkpt lat="45.08159" lon="6.45744">
        <ele>2257.2032</ele>
        <time>2010-01-01T02:01:21Z</time>
      </trkpt>
      <trkpt lat="45.08185" lon="6.45727">
        <ele>2252.2427</ele>
        <time>2010-01-01T02:01:33Z</time>
      </trkpt>
      <trkpt lat="45.08213" lon="6.4572">
        <ele>2249.0491</ele>
        <time>2010-01-01T02:01:44Z</time>
      </trkpt>
      <trkpt lat="45.08218" lon="6.45701">
        <ele>2247.4983</ele>
        <time>2010-01-01T02:01:50Z</time>
      </trkpt>
      <trkpt lat="45.08234" lon="6.45699">
        <ele>2242.2459</ele>
        <time>2010-01-01T02:01:57Z</time>
      </trkpt>
      <trkpt lat="45.08244" lon="6.45692">
        <ele>2240.4983</ele>
        <time>2010-01-01T02:02:01Z</time>
      </trkpt>
      <trkpt lat="45.08253" lon="6.45675">
        <ele>2236.1967</ele>
        <time>2010-01-01T02:02:07Z</time>
      </trkpt>
      <trkpt lat="45.08256" lon="6.45659">
        <ele>2232.2459</ele>
        <time>2010-01-01T02:02:12Z</time>
      </trkpt>
      <trkpt lat="45.08258" lon="6.45641">
        <ele>2229.3475</ele>
        <time>2010-01-01T02:02:17Z</time>
      </trkpt>
      <trkpt lat="45.08265" lon="6.45627">
        <ele>2227.2983</ele>
        <time>2010-01-01T02:02:22Z</time>
      </trkpt>
      <trkpt lat="45.08271" lon="6.45614">
        <ele>2224.3475</ele>
        <time>2010-01-01T02:02:26Z</time>
      </trkpt>
      <trkpt lat="45.08277" lon="6.45598">
        <ele>2223</ele>
        <time>2010-01-01T02:02:31Z</time>
      </trkpt>
      <trkpt lat="45.08284" lon="6.45588">
        <ele>2222.4375</ele>
        <time>2010-01-01T02:02:35Z</time>
      </trkpt>
      <trkpt lat="45.08291" lon="6.4557">
        <ele>2218.6592</ele>
        <time>2010-01-01T02:02:41Z</time>
      </trkpt>
      <trkpt lat="45.083" lon="6.45558">
        <ele>2218.1408</ele>
        <time>2010-01-01T02:02:46Z</time>
      </trkpt>
      <trkpt lat="45.08311" lon="6.45544">
        <ele>2218.9609</ele>
        <time>2010-01-01T02:02:52Z</time>
      </trkpt>
      <trkpt lat="45.08321" lon="6.45529">
        <ele>2218</ele>
        <time>2010-01-01T02:02:58Z</time>
      </trkpt>
      <trkpt lat="45.08338" lon="6.45512">
        <ele>2218</ele>
        <time>2010-01-01T02:03:06Z</time>
      </trkpt>
      <trkpt lat="45.08343" lon="6.45496">
        <ele>2216.5184</ele>
        <time>2010-01-01T02:03:11Z</time>
      </trkpt>
      <trkpt lat="45.08352" lon="6.45481">
        <ele>2214.3172</ele>
        <time>2010-01-01T02:03:16Z</time>
      </trkpt>
      <trkpt lat="45.08365" lon="6.45468">
        <ele>2212.6597</ele>
        <time>2010-01-01T02:03:23Z</time>
      </trkpt>
      <trkpt lat="45.08372" lon="6.45455">
        <ele>2211.7201</ele>
        <time>2010-01-01T02:03:27Z</time>
      </trkpt>
      <trkpt lat="45.08386" lon="6.45452">
        <ele>2210.0782</ele>
        <time>2010-01-01T02:03:33Z</time>
      </trkpt>
      <trkpt lat="45.08399" lon="6.45447">
        <ele>2208.5185</ele>
        <time>2010-01-01T02:03:38Z</time>
      </trkpt>
      <trkpt lat="45.08406" lon="6.45431">
        <ele>2207.0592</ele>
        <time>2010-01-01T02:03:44Z</time>
      </trkpt>
      <trkpt lat="45.08413" lon="6.45413">
        <ele>2207.4343</ele>
        <time>2010-01-01T02:03:50Z</time>
      </trkpt>
      <trkpt lat="45.08424" lon="6.45405">
        <ele>2204.2331</ele>
        <time>2010-01-01T02:03:54Z</time>
      </trkpt>
      <trkpt lat="45.08437" lon="6.45396">
        <ele>2202</ele>
        <time>2010-01-01T02:04:00Z</time>
      </trkpt>
      <trkpt lat="45.08443" lon="6.45386">
        <ele>2196.815</ele>
        <time>2010-01-01T02:04:04Z</time>
      </trkpt>
      <trkpt lat="45.08449" lon="6.45377">
        <ele>2196.0824</ele>
        <time>2010-01-01T02:04:07Z</time>
      </trkpt>
      <trkpt lat="45.08445" lon="6.45365">
        <ele>2196</ele>
        <time>2010-01-01T02:04:11Z</time>
      </trkpt>
      <trkpt lat="45.08453" lon="6.45353">
        <ele>2195.859</ele>
        <time>2010-01-01T02:04:16Z</time>
      </trkpt>
      <trkpt lat="45.08452" lon="6.45333">
        <ele>2195.0392</ele>
        <time>2010-01-01T02:04:21Z</time>
      </trkpt>
      <trkpt lat="45.0846" lon="6.45322">
        <ele>2195.7406</ele>
        <time>2010-01-01T02:04:25Z</time>
      </trkpt>
      <trkpt lat="45.08468" lon="6.45319">
        <ele>2194.1179</ele>
        <time>2010-01-01T02:04:29Z</time>
      </trkpt>
      <trkpt lat="45.08475" lon="6.45333">
        <ele>2191.7778</ele>
        <time>2010-01-01T02:04:34Z</time>
      </trkpt>
      <trkpt lat="45.08483" lon="6.45347">
        <ele>2192.1196</ele>
        <time>2010-01-01T02:04:39Z</time>
      </trkpt>
      <trkpt lat="45.08492" lon="6.45361">
        <ele>2193</ele>
        <time>2010-01-01T02:04:44Z</time>
      </trkpt>
      <trkpt lat="45.08479" lon="6.45355">
        <ele>2193.7407</ele>
        <time>2010-01-01T02:04:50Z</time>
      </trkpt>
      <trkpt lat="45.08488" lon="6.45353">
        <ele>2184.9903</ele>
        <time>2010-01-01T02:04:53Z</time>
      </trkpt>
      <trkpt lat="45.08503" lon="6.45348">
        <ele>2194.1016</ele>
        <time>2010-01-01T02:04:59Z</time>
      </trkpt>
      <trkpt lat="45.08511" lon="6.45332">
        <ele>2200.8494</ele>
        <time>2010-01-01T02:05:05Z</time>
      </trkpt>
      <trkpt lat="45.08512" lon="6.45317">
        <ele>2198.5947</ele>
        <time>2010-01-01T02:05:09Z</time>
      </trkpt>
      <trkpt lat="45.08511" lon="6.45295">
        <ele>2195.3935</ele>
        <time>2010-01-01T02:05:15Z</time>
      </trkpt>
      <trkpt lat="45.08504" lon="6.45283">
        <ele>2179.049</ele>
        <time>2010-01-01T02:05:20Z</time>
      </trkpt>
      <trkpt lat="45.0851" lon="6.45264">
        <ele>2180.8498</ele>
        <time>2010-01-01T02:05:26Z</time>
      </trkpt>
      <trkpt lat="45.08516" lon="6.45251">
        <ele>2180.0497</ele>
        <time>2010-01-01T02:05:30Z</time>
      </trkpt>
      <trkpt lat="45.08528" lon="6.45236">
        <ele>2179.8496</ele>
        <time>2010-01-01T02:05:36Z</time>
      </trkpt>
      <trkpt lat="45.08536" lon="6.45216">
        <ele>2179.0496</ele>
        <time>2010-01-01T02:05:43Z</time>
      </trkpt>
      <trkpt lat="45.0854" lon="6.45198">
        <ele>2177.4992</ele>
        <time>2010-01-01T02:05:48Z</time>
      </trkpt>
      <trkpt lat="45.08543" lon="6.45182">
        <ele>2175.8987</ele>
        <time>2010-01-01T02:05:53Z</time>
      </trkpt>
      <trkpt lat="45.08551" lon="6.45168">
        <ele>2174.2993</ele>
        <time>2010-01-01T02:05:58Z</time>
      </trkpt>
      <trkpt lat="45.08563" lon="6.45152">
        <ele>2171.8967</ele>
        <time>2010-01-01T02:06:05Z</time>
      </trkpt>
      <trkpt lat="45.08573" lon="6.45136">
        <ele>2168.749</ele>
        <time>2010-01-01T02:06:11Z</time>
      </trkpt>
      <trkpt lat="45.08582" lon="6.45125">
        <ele>2168</ele>
        <time>2010-01-01T02:06:15Z</time>
      </trkpt>
      <trkpt lat="45.08592" lon="6.45114">
        <ele>2166.5947</ele>
        <time>2010-01-01T02:06:20Z</time>
      </trkpt>
      <trkpt lat="45.08598" lon="6.45101">
        <ele>2163.8496</ele>
        <time>2010-01-01T02:06:25Z</time>
      </trkpt>
      <trkpt lat="45.08602" lon="6.45085">
        <ele>2163.0491</ele>
        <time>2010-01-01T02:06:30Z</time>
      </trkpt>
      <trkpt lat="45.08605" lon="6.45066">
        <ele>2162.2494</ele>
        <time>2010-01-01T02:06:35Z</time>
      </trkpt>
      <trkpt lat="45.08609" lon="6.4505">
        <ele>2162.6496</ele>
        <time>2010-01-01T02:06:40Z</time>
      </trkpt>
      <trkpt lat="45.0862" lon="6.45035">
        <ele>2162</ele>
        <time>2010-01-01T02:06:46Z</time>
      </trkpt>
      <trkpt lat="45.08615" lon="6.45018">
        <ele>2162</ele>
        <time>2010-01-01T02:06:51Z</time>
      </trkpt>
      <trkpt lat="45.08611" lon="6.44999">
        <ele>2158.7935</ele>
        <time>2010-01-01T02:06:57Z</time>
      </trkpt>
      <trkpt lat="45.08627" lon="6.44987">
        <ele>2146.7408</ele>
        <time>2010-01-01T02:07:04Z</time>
      </trkpt>
      <trkpt lat="45.0865" lon="6.44956">
        <ele>2140.2444</ele>
        <time>2010-01-01T02:07:17Z</time>
      </trkpt>
      <trkpt lat="45.08668" lon="6.44937">
        <ele>2139.6983</ele>
        <time>2010-01-01T02:07:25Z</time>
      </trkpt>
      <trkpt lat="45.08668" lon="6.44916">
        <ele>2137.2979</ele>
        <time>2010-01-01T02:07:31Z</time>
      </trkpt>
      <trkpt lat="45.08667" lon="6.44898">
        <ele>2136.1506</ele>
        <time>2010-01-01T02:07:37Z</time>
      </trkpt>
      <trkpt lat="45.08661" lon="6.44878">
        <ele>2138.0527</ele>
        <time>2010-01-01T02:07:43Z</time>
      </trkpt>
      <trkpt lat="45.08655" lon="6.44851">
        <ele>2140.1508</ele>
        <time>2010-01-01T02:07:50Z</time>
      </trkpt>
      <trkpt lat="45.08648" lon="6.44827">
        <ele>2140.9508</ele>
        <time>2010-01-01T02:07:58Z</time>
      </trkpt>
      <trkpt lat="45.08641" lon="6.44814">
        <ele>2140.2459</ele>
        <time>2010-01-01T02:08:02Z</time>
      </trkpt>
      <trkpt lat="45.08637" lon="6.448">
        <ele>2130.3971</ele>
        <time>2010-01-01T02:08:07Z</time>
      </trkpt>
      <trkpt lat="45.08645" lon="6.44777">
        <ele>2125.2459</ele>
        <time>2010-01-01T02:08:14Z</time>
      </trkpt>
      <trkpt lat="45.08648" lon="6.44756">
        <ele>2121.5475</ele>
        <time>2010-01-01T02:08:20Z</time>
      </trkpt>
      <trkpt lat="45.08649" lon="6.44736">
        <ele>2119.1475</ele>
        <time>2010-01-01T02:08:26Z</time>
      </trkpt>
      <trkpt lat="45.08652" lon="6.4472">
        <ele>2119.75</ele>
        <time>2010-01-01T02:08:30Z</time>
      </trkpt>
      <trkpt lat="45.08668" lon="6.44701">
        <ele>2118.3489</ele>
        <time>2010-01-01T02:08:39Z</time>
      </trkpt>
      <trkpt lat="45.08677" lon="6.44683">
        <ele>2114.8951</ele>
        <time>2010-01-01T02:08:45Z</time>
      </trkpt>
      <trkpt lat="45.08679" lon="6.44661">
        <ele>2110.3967</ele>
        <time>2010-01-01T02:08:51Z</time>
      </trkpt>
      <trkpt lat="45.08689" lon="6.4465">
        <ele>2107.1967</ele>
        <time>2010-01-01T02:08:56Z</time>
      </trkpt>
      <trkpt lat="45.0869" lon="6.44635">
        <ele>2107</ele>
        <time>2010-01-01T02:09:00Z</time>
      </trkpt>
      <trkpt lat="45.08686" lon="6.44615">
        <ele>2106.0491</ele>
        <time>2010-01-01T02:09:06Z</time>
      </trkpt>
      <trkpt lat="45.08679" lon="6.44603">
        <ele>2106</ele>
        <time>2010-01-01T02:09:11Z</time>
      </trkpt>
      <trkpt lat="45.08673" lon="6.44587">
        <ele>2105.6491</ele>
        <time>2010-01-01T02:09:16Z</time>
      </trkpt>
      <trkpt lat="45.08674" lon="6.4458">
        <ele>2097.1475</ele>
        <time>2010-01-01T02:09:18Z</time>
      </trkpt>
      <trkpt lat="45.08684" lon="6.4456">
        <ele>2090.4983</ele>
        <time>2010-01-01T02:09:25Z</time>
      </trkpt>
      <trkpt lat="45.08688" lon="6.44544">
        <ele>2088.8985</ele>
        <time>2010-01-01T02:09:30Z</time>
      </trkpt>
      <trkpt lat="45.08682" lon="6.4453">
        <ele>2093</ele>
        <time>2010-01-01T02:09:34Z</time>
      </trkpt>
      <trkpt lat="45.08675" lon="6.44514">
        <ele>2093</ele>
        <time>2010-01-01T02:09:40Z</time>
      </trkpt>
      <trkpt lat="45.08668" lon="6.44504">
        <ele>2095.2524</ele>
        <time>2010-01-01T02:09:44Z</time>
      </trkpt>
      <trkpt lat="45.08658" lon="6.44477">
        <ele>2089.3443</ele>
        <time>2010-01-01T02:09:52Z</time>
      </trkpt>
      <trkpt lat="45.08656" lon="6.44455">
        <ele>2086.7475</ele>
        <time>2010-01-01T02:09:59Z</time>
      </trkpt>
      <trkpt lat="45.08654" lon="6.44441">
        <ele>2082.6957</ele>
        <time>2010-01-01T02:10:03Z</time>
      </trkpt>
      <trkpt lat="45.08655" lon="6.4442">
        <ele>2078.2459</ele>
        <time>2010-01-01T02:10:09Z</time>
      </trkpt>
      <trkpt lat="45.08666" lon="6.44414">
        <ele>2068.3443</ele>
        <time>2010-01-01T02:10:14Z</time>
      </trkpt>
      <trkpt lat="45.08671" lon="6.44397">
        <ele>2061.2459</ele>
        <time>2010-01-01T02:10:19Z</time>
      </trkpt>
      <trkpt lat="45.08667" lon="6.44383">
        <ele>2059</ele>
        <time>2010-01-01T02:10:23Z</time>
      </trkpt>
      <trkpt lat="45.08658" lon="6.44368">
        <ele>2059.3016</ele>
        <time>2010-01-01T02:10:29Z</time>
      </trkpt>
      <trkpt lat="45.08651" lon="6.44355">
        <ele>2060.9016</ele>
        <time>2010-01-01T02:10:33Z</time>
      </trkpt>
      <trkpt lat="45.08661" lon="6.4435">
        <ele>2058.9967</ele>
        <time>2010-01-01T02:10:38Z</time>
      </trkpt>
      <trkpt lat="45.08657" lon="6.44333">
        <ele>2060.3508</ele>
        <time>2010-01-01T02:10:43Z</time>
      </trkpt>
      <trkpt lat="45.08653" lon="6.44294">
        <ele>2062.1016</ele>
        <time>2010-01-01T02:10:54Z</time>
      </trkpt>
      <trkpt lat="45.08648" lon="6.44281">
        <ele>2063.3508</ele>
        <time>2010-01-01T02:10:58Z</time>
      </trkpt>
      <trkpt lat="45.08658" lon="6.44273">
        <ele>2064</ele>
        <time>2010-01-01T02:11:03Z</time>
      </trkpt>
      <trkpt lat="45.08667" lon="6.44281">
        <ele>2061.3963</ele>
        <time>2010-01-01T02:11:07Z</time>
      </trkpt>
      <trkpt lat="45.08659" lon="6.44268">
        <ele>2055.7475</ele>
        <time>2010-01-01T02:11:12Z</time>
      </trkpt>
      <trkpt lat="45.08662" lon="6.44252">
        <ele>2055.5508</ele>
        <time>2010-01-01T02:11:16Z</time>
      </trkpt>
      <trkpt lat="45.08674" lon="6.44234">
        <ele>2056.3508</ele>
        <time>2010-01-01T02:11:23Z</time>
      </trkpt>
      <trkpt lat="45.0868" lon="6.44223">
        <ele>2054.2459</ele>
        <time>2010-01-01T02:11:27Z</time>
      </trkpt>
      <trkpt lat="45.08688" lon="6.44204">
        <ele>2051</ele>
        <time>2010-01-01T02:11:33Z</time>
      </trkpt>
      <trkpt lat="45.08684" lon="6.4419">
        <ele>2051</ele>
        <time>2010-01-01T02:11:38Z</time>
      </trkpt>
      <trkpt lat="45.08688" lon="6.44171">
        <ele>2049.4983</ele>
        <time>2010-01-01T02:11:43Z</time>
      </trkpt>
      <trkpt lat="45.08695" lon="6.44148">
        <ele>2045.6945</ele>
        <time>2010-01-01T02:11:51Z</time>
      </trkpt>
      <trkpt lat="45.08703" lon="6.44125">
        <ele>2042.6491</ele>
        <time>2010-01-01T02:11:58Z</time>
      </trkpt>
      <trkpt lat="45.08716" lon="6.4411">
        <ele>2042</ele>
        <time>2010-01-01T02:12:04Z</time>
      </trkpt>
      <trkpt lat="45.08724" lon="6.44098">
        <ele>2042</ele>
        <time>2010-01-01T02:12:09Z</time>
      </trkpt>
      <trkpt lat="45.08725" lon="6.44082">
        <ele>2043.8491</ele>
        <time>2010-01-01T02:12:14Z</time>
      </trkpt>
      <trkpt lat="45.08724" lon="6.4406">
        <ele>2043.0491</ele>
        <time>2010-01-01T02:12:20Z</time>
      </trkpt>
      <trkpt lat="45.08721" lon="6.44045">
        <ele>2041.4983</ele>
        <time>2010-01-01T02:12:24Z</time>
      </trkpt>
      <trkpt lat="45.08716" lon="6.44024">
        <ele>2039.8983</ele>
        <time>2010-01-01T02:12:30Z</time>
      </trkpt>
      <trkpt lat="45.08708" lon="6.4401">
        <ele>2038.2983</ele>
        <time>2010-01-01T02:12:35Z</time>
      </trkpt>
      <trkpt lat="45.08693" lon="6.43998">
        <ele>2036.5475</ele>
        <time>2010-01-01T02:12:43Z</time>
      </trkpt>
      <trkpt lat="45.08695" lon="6.43975">
        <ele>2034.1475</ele>
        <time>2010-01-01T02:12:49Z</time>
      </trkpt>
      <trkpt lat="45.08696" lon="6.43961">
        <ele>2031.7475</ele>
        <time>2010-01-01T02:12:53Z</time>
      </trkpt>
      <trkpt lat="45.08704" lon="6.43945">
        <ele>2029.3475</ele>
        <time>2010-01-01T02:12:59Z</time>
      </trkpt>
      <trkpt lat="45.08712" lon="6.43931">
        <ele>2027.6491</ele>
        <time>2010-01-01T02:13:04Z</time>
      </trkpt>
      <trkpt lat="45.0872" lon="6.43918">
        <ele>2026.6985</ele>
        <time>2010-01-01T02:13:09Z</time>
      </trkpt>
      <trkpt lat="45.08733" lon="6.43901">
        <ele>2025.0983</ele>
        <time>2010-01-01T02:13:15Z</time>
      </trkpt>
      <trkpt lat="45.08744" lon="6.43898">
        <ele>2023.4983</ele>
        <time>2010-01-01T02:13:20Z</time>
      </trkpt>
      <trkpt lat="45.08752" lon="6.43887">
        <ele>2021.8983</ele>
        <time>2010-01-01T02:13:25Z</time>
      </trkpt>
      <trkpt lat="45.08758" lon="6.43874">
        <ele>2018.8345</ele>
        <time>2010-01-01T02:13:29Z</time>
      </trkpt>
      <trkpt lat="45.08778" lon="6.43852">
        <ele>2014.4491</ele>
        <time>2010-01-01T02:13:39Z</time>
      </trkpt>
      <trkpt lat="45.08785" lon="6.43833">
        <ele>2013.6491</ele>
        <time>2010-01-01T02:13:45Z</time>
      </trkpt>
      <trkpt lat="45.08787" lon="6.43818">
        <ele>2010.7967</ele>
        <time>2010-01-01T02:13:49Z</time>
      </trkpt>
      <trkpt lat="45.08798" lon="6.43802">
        <ele>2009.3508</ele>
        <time>2010-01-01T02:13:56Z</time>
      </trkpt>
      <trkpt lat="45.08807" lon="6.43783">
        <ele>2010</ele>
        <time>2010-01-01T02:14:02Z</time>
      </trkpt>
      <trkpt lat="45.08811" lon="6.43768">
        <ele>2009.6491</ele>
        <time>2010-01-01T02:14:07Z</time>
      </trkpt>
      <trkpt lat="45.08826" lon="6.43742">
        <ele>2010.1014</ele>
        <time>2010-01-01T02:14:16Z</time>
      </trkpt>
      <trkpt lat="45.08832" lon="6.43726">
        <ele>2008.7475</ele>
        <time>2010-01-01T02:14:21Z</time>
      </trkpt>
      <trkpt lat="45.08845" lon="6.43703">
        <ele>2004.1443</ele>
        <time>2010-01-01T02:14:30Z</time>
      </trkpt>
      <trkpt lat="45.08862" lon="6.43684">
        <ele>1997.9967</ele>
        <time>2010-01-01T02:14:38Z</time>
      </trkpt>
      <trkpt lat="45.08877" lon="6.43675">
        <ele>1991.2983</ele>
        <time>2010-01-01T02:14:45Z</time>
      </trkpt>
      <trkpt lat="45.08888" lon="6.43666">
        <ele>1988.8983</ele>
        <time>2010-01-01T02:14:50Z</time>
      </trkpt>
      <trkpt lat="45.08899" lon="6.43655">
        <ele>1984.2459</ele>
        <time>2010-01-01T02:14:55Z</time>
      </trkpt>
      <trkpt lat="45.08917" lon="6.43649">
        <ele>1979.6951</ele>
        <time>2010-01-01T02:15:02Z</time>
      </trkpt>
      <trkpt lat="45.08935" lon="6.43646">
        <ele>1977</ele>
        <time>2010-01-01T02:15:10Z</time>
      </trkpt>
      <trkpt lat="45.08954" lon="6.43645">
        <ele>1977.7386</ele>
        <time>2010-01-01T02:15:18Z</time>
      </trkpt>
      <trkpt lat="45.08963" lon="6.43635">
        <ele>1982.0363</ele>
        <time>2010-01-01T02:15:22Z</time>
      </trkpt>
      <trkpt lat="45.08979" lon="6.43613">
        <ele>1983.6469</ele>
        <time>2010-01-01T02:15:31Z</time>
      </trkpt>
    </trkseg>
  </trk>
</gpx>